[[{"header":{"parameterUnit":"m.s-1","parameterCategory":1,"la1":31.0,"la2":29.5877,"lo1":-88.7671,"lo2":-86.6584,"dy":0.0162,"dx":0.0185,"nx":115,"ny":88,"refTime":"2024-11-26T12:00:00:Z","depth":0,"parameterNumber":2,"parameterNumberName":"U-component_of_WINDS"},"data":[0.0,0.0,0.0,0.0,0.0,0.0,0.0,0.0,0.0,0.0,0.0,0.0,0.0,0.0,0.0,0.0,0.0,0.0,0.0,0.0,0.0,0.0,0.0,0.0,0.0,0.0,0.0,0.0,0.0,0.0,0.0,0.0,0.0,0.0,0.0,0.0,0.0,0.0,0.0,0.0,0.0,0.0,0.0,0.0,0.0,0.0,0.0,0.0,0.0,0.0,0.0,0.0,0.0,0.0,0.0,0.0,0.0,0.0,0.0,0.0,0.0,0.0,0.0,0.0,0.0,0.0,0.0,0.0,0.0,0.0,0.0,0.0,0.0,0.0,0.0,0.0,0.0,0.0,0.0,0.0,0.0,0.0,0.0,0.0,0.0,0.0,0.0,0.0,0.0,0.0,0.0,0.0,0.0,0.0,0.0,0.0,0.0,0.0,0.0,0.0,0.0,0.0,0.0,0.0,0.0,0.0,0.0,0.0,0.0,0.0,0.0,0.0,0.0,0.0,0.0,0.0,0.0,0.0,0.0,0.0,0.0,0.0,0.0,0.0,0.0,0.0,0.0,0.0,0.0,0.0,0.0,0.0,0.0,0.0,0.0,0.0,0.0,0.0,0.0,0.0,0.0,0.0,0.0,0.0,0.0,0.0,0.0,0.0,0.0,0.0,0.0,0.0,0.0,0.0,0.0,0.0,0.0,0.0,0.0,0.0,0.0,0.0,0.0,0.0,0.0,0.0,0.0,0.0,0.0,0.0,0.0,0.0,0.0,0.0,0.0,0.0,0.0,0.0,0.0,0.0,0.0,0.0,0.0,0.0,0.0,0.0,0.0,0.0,0.0,0.0,0.0,0.0,0.0,0.0,0.0,0.0,0.0,0.0,0.0,0.0,0.0,0.0,0.0,0.0,0.0,0.0,0.0,0.0,0.0,0.0,0.0,0.0,0.0,0.0,0.0,0.0,0.0,0.0,0.0,0.0,0.0,0.0,0.0,0.0,0.0,0.0,0.0,0.0,0.0,0.0,0.0,0.0,0.0,0.0,0.0,0.0,0.0,0.0,0.0,0.0,0.0,0.0,0.0,0.0,0.0,0.0,0.0,0.0,0.0,0.0,0.0,0.0,0.0,0.0,0.0,0.0,0.0,0.0,0.0,0.0,0.0,0.0,0.0,0.0,0.0,0.0,0.0,0.0,0.0,0.0,0.0,0.0,0.0,0.0,0.0,0.0,0.0,0.0,0.0,0.0,0.0,0.0,0.0,0.0,0.0,0.0,0.0,0.0,0.0,0.0,0.0,0.0,0.0,0.0,0.0,0.0,0.0,0.0,0.0,0.0,0.0,0.0,0.0,0.0,0.0,0.0,0.0,0.0,0.0,0.0,0.0,0.0,0.0,0.0,0.0,0.0,0.0,0.0,0.0,0.0,0.0,0.0,0.0,0.0,0.0,0.0,0.0,0.0,0.0,0.0,0.0,0.0,0.0,0.0,0.0,0.0,0.0,0.0,0.0,0.0,0.0,0.0,0.0,0.0,0.0,0.0,0.0,0.0,0.0,0.0,0.0,0.0,0.0,0.0,0.0,0.0,0.0,0.0,0.0,0.0,0.0,0.0,0.0,0.0,0.0,0.0,0.0,0.0,0.0,0.0,0.0,0.0,0.0,0.0,0.0,0.0,0.0,0.0,0.0,0.0,0.0,0.0,0.0,0.0,0.0,0.0,0.0,0.0,0.0,0.0,0.0,0.0,0.0,0.0,0.0,0.0,0.0,0.0,0.0,0.0,0.0,0.0,0.0,0.0,0.0,0.0,0.0,0.0,0.0,0.0,0.0,0.0,0.0,0.0,0.0,0.0,0.0,0.0,0.0,0.0,0.0,0.0,0.0,0.0,0.0,0.0,0.0,0.0,0.0,0.0,0.0,0.0,0.0,0.0,0.0,0.0,0.0,0.0,0.0,0.0,0.0,0.0,0.0,0.0,0.0,0.0,0.0,0.0,0.0,0.0,0.0,0.0,0.0,0.0,0.0,0.0,0.0,0.0,0.0,0.0,0.0,0.0,0.0,0.0,0.0,0.0,0.0,0.0,0.0,0.0,0.0,0.0,0.0,0.0,0.0,0.0,0.0,0.0,0.0,0.0,0.0,0.0,0.0,0.0,0.0,0.0,0.0,0.0,0.0,0.0,0.0,0.0,0.0,0.0,0.0,0.0,0.0,0.0,0.0,0.0,0.0,0.0,0.0,0.0,0.0,0.0,0.0,0.0,0.0,0.0,0.0,0.0,0.0,0.0,0.0,0.0,0.0,0.0,0.0,0.0,0.0,0.0,0.0,0.0,0.0,0.0,0.0,0.0,0.0,0.0,0.0,0.0,0.0,0.0,0.0,0.0,0.0,0.0,0.0,0.0,0.0,0.0,0.0,0.0,0.0,0.0,0.0,0.0,0.0,0.0,0.0,0.0,0.0,0.0,0.0,0.0,0.0,0.0,0.0,0.0,0.0,0.0,0.0,0.0,0.0,0.0,0.0,0.0,0.0,0.0,0.0,0.0,0.0,0.0,0.0,0.0,0.0,0.0,0.0,0.0,0.0,0.0,0.0,0.0,0.0,0.0,0.0,0.0,0.0,0.0,0.0,0.0,0.0,0.0,0.0,0.0,0.0,0.0,0.0,0.0,0.0,0.0,0.0,0.0,0.0,0.0,0.0,0.0,0.0,0.0,0.0,0.0,0.0,0.0,0.0,0.0,0.0,0.0,0.0,0.0,0.0,0.0,0.0,0.0,0.0,0.0,0.0,0.0,0.0,0.0,0.0,0.0,0.0,0.0,0.0,0.0,0.0,0.0,0.0,0.0,0.0,0.0,0.0,0.0,0.0,0.0,0.0,0.0,0.0,0.0,0.0,0.0,0.0,0.0,0.0,0.0,0.0,0.0,0.0,0.0,0.0,0.0,0.0,0.0,0.0,0.0,0.0,0.0,0.0,0.0,0.0,0.0,0.0,0.0,0.0,0.0,0.0,0.0,0.0,0.0,0.0,0.0,0.0,0.0,0.0,0.0,0.0,0.0,0.0,0.0,0.0,0.0,0.0,0.0,0.0,0.0,0.0,0.0,0.0,0.0,0.0,0.0,0.0,0.0,0.0,0.0,0.0,0.0,0.0,0.0,0.0,0.0,0.0,0.0,0.0,0.0,0.0,0.0,0.0,0.0,0.0,0.0,0.0,0.0,0.0,0.0,0.0,0.0,0.0,0.0,0.0,0.0,0.0,0.0,0.0,0.0,0.0,0.0,0.0,0.0,0.0,0.0,0.0,0.0,0.0,0.0,0.0,0.0,0.0,0.0,0.0,0.0,0.0,0.0,0.0,0.0,0.0,0.0,0.0,0.0,0.0,0.0,0.0,0.0,0.0,0.0,0.0,0.0,0.0,0.0,0.0,0.0,0.0,0.0,0.0,0.0,0.0,0.0,0.0,0.0,0.0,0.0,0.0,0.0,0.0,0.0,0.0,0.0,0.0,0.0,0.0,0.0,0.0,0.0,0.0,0.0,0.0,0.0,0.0,0.0,0.0,0.0,0.0,0.0,0.0,0.0,0.0,0.0,0.0,0.0,0.0,0.0,0.0,0.0,0.0,0.0,0.0,0.0,0.0,0.0,0.0,0.0,0.0,0.0,0.0,0.0,0.0,0.0,0.0,0.0,0.0,0.0,0.0,0.0,0.0,0.0,0.0,0.0,0.0,0.0,0.0,0.0,0.0,0.0,0.0,0.0,0.0,0.0,0.0,0.0,0.0,0.0,0.0,0.0,0.0,0.0,0.0,0.0,0.0,0.0,0.0,0.0,0.0,0.0,0.0,0.0,0.0,0.0,0.0,0.0,0.0,0.0,0.0,0.0,0.0,0.0,0.0,0.0,0.0,0.0,0.0,0.0,0.0,0.0,0.0,0.0,0.0,0.0,0.0,0.0,0.0,0.0,0.0,0.0,0.0,0.0,0.0,0.0,0.0,0.0,0.0,0.0,0.0,0.0,0.0,0.0,0.0,0.0,0.0,0.0,0.0,0.0,0.0,0.0,0.0,0.0,0.0,0.0,0.0,0.0,0.0,0.0,0.0,0.0,0.0,0.0,0.0,0.0,0.0,0.0,0.0,0.0,0.0,0.0,0.0,0.0,0.0,0.0,0.0,0.0,0.0,0.0,0.0,0.0,0.0,0.0,0.0,0.0,0.0,0.0,0.0,0.0,0.0,0.0,0.0,0.0,0.0,0.0,0.0,0.0,0.0,0.0,0.0,0.0,0.0,0.0,2.3798,0.0,0.0,0.0,0.0,0.0,0.0,0.0,0.0,0.0,0.0,0.0,0.0,0.0,0.0,0.0,0.0,0.0,0.0,0.0,0.0,0.0,0.0,0.0,0.0,0.0,0.0,0.0,0.0,0.0,0.0,0.0,0.0,0.0,0.0,0.0,0.0,0.0,0.0,0.0,0.0,0.0,0.0,0.0,0.0,0.0,0.0,0.0,0.0,0.0,0.0,0.0,0.0,0.0,0.0,0.0,0.0,0.0,0.0,0.0,0.0,0.0,0.0,0.0,0.0,0.0,0.0,0.0,0.0,0.0,0.0,0.0,0.0,0.0,0.0,0.0,0.0,0.0,0.0,0.0,0.0,0.0,0.0,0.0,0.0,0.0,0.0,0.0,0.0,0.0,0.0,0.0,0.0,0.0,0.0,0.0,0.0,0.0,0.0,0.0,0.0,0.0,0.0,0.0,0.0,0.0,0.0,0.0,0.0,0.0,0.0,2.3798,2.3798,2.3798,2.3798,2.3798,0.0,0.0,0.0,0.0,0.0,0.0,0.0,0.0,0.0,0.0,0.0,0.0,0.0,0.0,0.0,0.0,0.0,0.0,0.0,0.0,0.0,0.0,0.0,0.0,0.0,0.0,0.0,0.0,0.0,0.0,0.0,0.0,0.0,0.0,0.0,0.0,0.0,0.0,0.0,0.0,0.0,0.0,0.0,0.0,0.0,0.0,0.0,0.0,0.0,0.0,0.0,0.0,0.0,0.0,0.0,0.0,0.0,0.0,0.0,0.0,0.0,0.0,0.0,0.0,0.0,0.0,0.0,0.0,0.0,0.0,0.0,0.0,0.0,0.0,0.0,0.0,0.0,0.0,0.0,0.0,0.0,0.0,0.0,0.0,0.0,0.0,0.0,0.0,0.0,0.0,0.0,0.0,0.0,0.0,0.0,0.0,0.0,0.0,0.0,0.0,0.0,0.0,0.0,0.0,0.0,0.0,0.0,0.0,0.0,0.0,0.0,0.0,2.4629,2.4664,2.4745,0.0,0.0,0.0,0.0,0.0,0.0,0.0,0.0,0.0,0.0,0.0,0.0,0.0,0.0,0.0,0.0,0.0,0.0,0.0,0.0,0.0,0.0,0.0,0.0,0.0,0.0,0.0,0.0,0.0,0.0,0.0,0.0,0.0,0.0,0.0,0.0,0.0,0.0,0.0,0.0,0.0,0.0,0.0,0.0,0.0,0.0,0.0,0.0,0.0,0.0,0.0,0.0,0.0,0.0,0.0,0.0,0.0,0.0,0.0,0.0,0.0,0.0,0.0,0.0,0.0,0.0,0.0,0.0,0.0,0.0,0.0,0.0,0.0,0.0,0.0,0.0,0.0,0.0,0.0,0.0,0.0,0.0,0.0,0.0,0.0,0.0,0.0,0.0,0.0,0.0,0.0,0.0,0.0,0.0,0.0,0.0,0.0,0.0,0.0,0.0,0.0,0.0,0.0,0.0,0.0,0.0,0.0,0.0,0.0,0.0,2.4443,2.7074,2.7148,0.0,2.7528,0.0,0.0,0.0,0.0,0.0,0.0,0.0,0.0,0.0,0.0,0.0,0.0,0.0,0.0,0.0,0.0,0.0,0.0,0.0,0.0,0.0,0.0,0.0,0.0,0.0,0.0,0.0,0.0,0.0,0.0,0.0,0.0,0.0,0.0,0.0,0.0,0.0,0.0,0.0,0.0,0.0,0.0,0.0,0.0,0.0,0.0,0.0,0.0,0.0,0.0,0.0,0.0,0.0,0.0,0.0,0.0,0.0,0.0,0.0,0.0,0.0,0.0,0.0,0.0,0.0,0.0,0.0,0.0,0.0,0.0,0.0,0.0,0.0,0.0,0.0,0.0,0.0,0.0,0.0,0.0,0.0,0.0,0.0,0.0,0.0,0.0,0.0,0.0,0.0,0.0,0.0,0.0,0.0,0.0,0.0,0.0,0.0,0.0,0.0,0.0,0.0,0.0,0.0,0.0,0.0,0.0,0.0,0.0,0.0,0.0,2.637,2.7711,2.7557,2.7487,0.0,0.0,0.0,0.0,0.0,0.0,0.0,0.0,0.0,0.0,0.0,0.0,0.0,0.0,0.0,0.0,0.0,0.0,0.0,0.0,0.0,0.0,0.0,0.0,0.0,0.0,0.0,0.0,0.0,0.0,0.0,0.0,0.0,0.0,0.0,0.0,0.0,0.0,0.0,0.0,0.0,0.0,0.0,0.0,0.0,0.0,0.0,0.0,0.0,0.0,0.0,0.0,0.0,0.0,0.0,0.0,0.0,0.0,0.0,0.0,0.0,0.0,0.0,0.0,0.0,0.0,0.0,0.0,0.0,0.0,0.0,0.0,0.0,0.0,0.0,0.0,0.0,0.0,0.0,0.0,0.0,0.0,0.0,0.0,0.0,0.0,0.0,0.0,0.0,0.0,0.0,0.0,0.0,0.0,0.0,0.0,0.0,0.0,0.0,0.0,0.0,0.0,0.0,0.0,0.0,0.0,0.0,0.0,0.0,0.0,2.6841,0.0,2.8937,2.881,2.8213,2.7145,0.0,0.0,0.0,0.0,0.0,0.0,0.0,0.0,0.0,0.0,0.0,0.0,0.0,0.0,0.0,0.0,0.0,0.0,0.0,0.0,0.0,0.0,0.0,0.0,0.0,0.0,0.0,0.0,0.0,0.0,0.0,0.0,0.0,0.0,0.0,0.0,0.0,0.0,0.0,0.0,0.0,0.0,0.0,0.0,0.0,0.0,0.0,0.0,0.0,0.0,0.0,0.0,0.0,0.0,0.0,0.0,0.0,0.0,0.0,0.0,0.0,0.0,0.0,0.0,0.0,0.0,0.0,0.0,0.0,0.0,0.0,0.0,0.0,0.0,0.0,0.0,0.0,0.0,0.0,0.0,0.0,0.0,0.0,0.0,0.0,0.0,0.0,0.0,0.0,0.0,0.0,0.0,0.0,0.0,0.0,0.0,0.0,0.0,0.0,0.0,0.0,0.0,0.0,0.0,0.0,0.0,0.0,0.0,0.0,2.8541,2.8801,3.1587,3.1682,3.0257,0.0,0.0,0.0,0.0,0.0,0.0,0.0,0.0,0.0,0.0,0.0,0.0,0.0,0.0,0.0,0.0,0.0,0.0,0.0,0.0,0.0,0.0,0.0,0.0,0.0,0.0,0.0,0.0,0.0,0.0,0.0,0.0,0.0,0.0,0.0,0.0,0.0,0.0,0.0,0.0,0.0,0.0,0.0,0.0,0.0,0.0,0.0,0.0,0.0,0.0,0.0,0.0,0.0,0.0,0.0,0.0,0.0,0.0,0.0,0.0,0.0,0.0,0.0,0.0,0.0,0.0,0.0,0.0,0.0,0.0,0.0,0.0,0.0,0.0,0.0,0.0,0.0,0.0,0.0,0.0,0.0,0.0,0.0,0.0,0.0,0.0,0.0,0.0,0.0,0.0,0.0,0.0,0.0,0.0,0.0,0.0,0.0,0.0,0.0,0.0,0.0,0.0,0.0,0.0,0.0,0.0,0.0,0.0,0.0,2.5677,2.6675,2.9498,3.3903,3.0588,2.8932,0.0,0.0,0.0,0.0,0.0,0.0,0.0,0.0,0.0,0.0,0.0,0.0,0.0,0.0,0.0,0.0,0.0,0.0,0.0,0.0,0.0,0.0,0.0,0.0,0.0,0.0,0.0,0.0,0.0,0.0,0.0,0.0,0.0,0.0,0.0,0.0,0.0,0.0,0.0,0.0,0.0,0.0,0.0,0.0,0.0,0.0,0.0,0.0,0.0,0.0,0.0,0.0,0.0,0.0,0.0,0.0,0.0,0.0,0.0,0.0,0.0,0.0,0.0,0.0,0.0,0.0,0.0,0.0,0.0,0.0,0.0,0.0,0.0,0.0,0.0,0.0,0.0,0.0,0.0,0.0,0.0,0.0,0.0,0.0,0.0,0.0,0.0,0.0,0.0,0.0,0.0,0.0,0.0,0.0,0.0,0.0,0.0,0.0,0.0,0.0,0.0,0.0,0.0,0.0,0.0,0.0,0.0,0.0,0.0,2.5645,0.0,3.133,0.0,3.0367,2.8218,0.0,0.0,0.0,0.0,0.0,0.0,0.0,0.0,0.0,0.0,0.0,0.0,0.0,0.0,0.0,0.0,0.0,0.0,0.0,0.0,0.0,0.0,0.0,0.0,0.0,0.0,0.0,0.0,0.0,0.0,0.0,0.0,0.0,0.0,0.0,0.0,0.0,0.0,0.0,0.0,0.0,0.0,0.0,0.0,0.0,0.0,0.0,0.0,0.0,0.0,0.0,0.0,0.0,0.0,0.0,0.0,0.0,0.0,0.0,0.0,0.0,0.0,0.0,0.0,0.0,0.0,0.0,0.0,0.0,0.0,0.0,0.0,0.0,0.0,0.0,0.0,0.0,0.0,0.0,0.0,0.0,0.0,0.0,0.0,0.0,0.0,0.0,0.0,0.0,0.0,0.0,0.0,0.0,0.0,0.0,0.0,0.0,0.0,0.0,0.0,0.0,0.0,0.0,0.0,0.0,0.0,0.0,0.0,2.5479,3.1446,3.3985,3.4124,3.2069,3.1311,2.8353,0.0,0.0,0.0,0.0,0.0,0.0,0.0,0.0,0.0,0.0,0.0,0.0,0.0,0.0,0.0,0.0,0.0,0.0,0.0,0.0,0.0,0.0,0.0,0.0,0.0,0.0,0.0,0.0,0.0,0.0,0.0,0.0,0.0,0.0,0.0,0.0,0.0,0.0,0.0,0.0,0.0,0.0,0.0,0.0,0.0,0.0,0.0,0.0,0.0,0.0,0.0,0.0,0.0,0.0,0.0,0.0,0.0,0.0,0.0,0.0,0.0,0.0,0.0,0.0,0.0,0.0,0.0,0.0,0.0,0.0,0.0,0.0,0.0,0.0,0.0,0.0,0.0,0.0,0.0,0.0,0.0,0.0,0.0,0.0,0.0,0.0,0.0,0.0,0.0,0.0,0.0,0.0,0.0,0.0,0.0,0.0,0.0,0.0,0.0,0.0,0.0,0.0,0.0,0.0,0.0,0.0,0.0,0.0,0.0,2.8344,3.059,3.2925,3.4986,3.0091,2.7913,0.0,0.0,0.0,0.0,0.0,0.0,0.0,0.0,0.0,0.0,0.0,0.0,0.0,0.0,0.0,0.0,0.0,0.0,0.0,0.0,0.0,0.0,0.0,0.0,0.0,0.0,0.0,0.0,0.0,0.0,0.0,0.0,0.0,0.0,0.0,0.0,0.0,0.0,0.0,0.0,0.0,0.0,0.0,0.0,0.0,0.0,0.0,0.0,0.0,0.0,0.0,0.0,0.0,0.0,0.0,0.0,0.0,0.0,0.0,0.0,0.0,0.0,0.0,0.0,0.0,0.0,0.0,0.0,0.0,0.0,0.0,0.0,0.0,0.0,0.0,0.0,0.0,0.0,0.0,0.0,0.0,0.0,0.0,0.0,0.0,0.0,0.0,0.0,0.0,0.0,0.0,0.0,0.0,0.0,0.0,0.0,0.0,0.0,0.0,0.0,0.0,0.0,0.0,0.0,0.0,0.0,0.0,0.0,0.0,3.1353,3.3189,3.4872,3.6304,3.1253,2.9021,3.0054,0.0,0.0,0.0,0.0,0.0,0.0,0.0,0.0,0.0,0.0,0.0,0.0,0.0,0.0,0.0,0.0,0.0,0.0,0.0,0.0,0.0,0.0,0.0,0.0,0.0,0.0,0.0,0.0,0.0,0.0,0.0,0.0,0.0,0.0,0.0,0.0,0.0,0.0,0.0,0.0,0.0,0.0,0.0,0.0,0.0,0.0,0.0,0.0,0.0,0.0,0.0,0.0,0.0,0.0,0.0,0.0,0.0,0.0,0.0,0.0,0.0,0.0,0.0,0.0,0.0,0.0,0.0,0.0,0.0,0.0,0.0,0.0,0.0,0.0,0.0,0.0,0.0,0.0,0.0,0.0,0.0,0.0,0.0,0.0,0.0,0.0,0.0,0.0,0.0,0.0,0.0,0.0,0.0,0.0,0.0,0.0,0.0,0.0,0.0,0.0,0.0,0.0,0.0,0.0,0.0,0.0,0.0,0.0,3.9011,4.0667,3.9773,3.6304,3.4382,3.1451,0.0,0.0,0.0,0.0,0.0,0.0,0.0,0.0,0.0,0.0,0.0,0.0,0.0,0.0,0.0,0.0,0.0,0.0,0.0,0.0,0.0,0.0,0.0,0.0,0.0,0.0,0.0,0.0,0.0,0.0,0.0,0.0,0.0,0.0,0.0,0.0,0.0,0.0,0.0,0.0,0.0,0.0,0.0,0.0,0.0,0.0,0.0,0.0,0.0,0.0,0.0,0.0,0.0,0.0,0.0,0.0,0.0,0.0,0.0,0.0,0.0,0.0,0.0,0.0,0.0,0.0,0.0,0.0,0.0,0.0,0.0,0.0,0.0,0.0,0.0,0.0,0.0,0.0,0.0,0.0,0.0,0.0,0.0,0.0,0.0,0.0,0.0,0.0,0.0,0.0,0.0,0.0,0.0,0.0,0.0,0.0,0.0,0.0,0.0,0.0,0.0,0.0,0.0,0.0,0.0,0.0,0.0,0.0,0.0,4.1821,4.4375,4.4555,4.2004,3.6951,3.3381,0.0,0.0,0.0,0.0,0.0,0.0,0.0,0.0,0.0,0.0,0.0,0.0,0.0,0.0,0.0,0.0,0.0,0.0,0.0,0.0,0.0,0.0,0.0,0.0,0.0,0.0,0.0,0.0,0.0,0.0,0.0,0.0,0.0,0.0,0.0,0.0,0.0,0.0,0.0,0.0,0.0,0.0,0.0,0.0,0.0,0.0,0.0,0.0,0.0,0.0,0.0,0.0,0.0,0.0,0.0,0.0,0.0,0.0,0.0,0.0,0.0,0.0,0.0,0.0,0.0,0.0,0.0,0.0,0.0,0.0,0.0,0.0,0.0,0.0,0.0,0.0,0.0,0.0,0.0,0.0,0.0,0.0,0.0,0.0,0.0,0.0,0.0,0.0,0.0,0.0,0.0,0.0,0.0,0.0,0.0,0.0,0.0,0.0,0.0,0.0,0.0,0.0,0.0,0.0,0.0,0.0,0.0,0.0,4.0749,4.4705,4.7272,4.792,4.6471,4.1285,3.6948,0.0,0.0,0.0,0.0,0.0,0.0,0.0,0.0,0.0,0.0,0.0,0.0,0.0,0.0,0.0,0.0,0.0,0.0,0.0,0.0,0.0,0.0,0.0,0.0,0.0,0.0,0.0,0.0,0.0,0.0,0.0,0.0,0.0,0.0,0.0,0.0,0.0,0.0,0.0,0.0,0.0,0.0,0.0,0.0,0.0,0.0,0.0,0.0,0.0,0.0,0.0,0.0,0.0,0.0,0.0,0.0,0.0,0.0,0.0,0.0,0.0,0.0,0.0,0.0,0.0,0.0,0.0,0.0,0.0,0.0,0.0,0.0,0.0,0.0,0.0,0.0,0.0,0.0,0.0,0.0,0.0,0.0,0.0,0.0,0.0,0.0,0.0,0.0,0.0,0.0,0.0,0.0,0.0,0.0,0.0,0.0,0.0,0.0,0.0,0.0,0.0,0.0,0.0,0.0,0.0,0.0,0.0,0.0,4.2955,4.7318,4.951,5.0234,4.9418,4.5936,4.1043,0.0,0.0,0.0,0.0,0.0,0.0,0.0,0.0,0.0,0.0,0.0,0.0,0.0,0.0,0.0,0.0,0.0,0.0,0.0,0.0,0.0,0.0,0.0,0.0,0.0,0.0,0.0,0.0,0.0,0.0,0.0,0.0,0.0,0.0,0.0,0.0,0.0,0.0,0.0,0.0,0.0,0.0,0.0,0.0,0.0,0.0,0.0,0.0,0.0,0.0,0.0,0.0,0.0,0.0,0.0,0.0,0.0,0.0,0.0,0.0,0.0,0.0,0.0,0.0,0.0,0.0,0.0,0.0,0.0,0.0,0.0,0.0,0.0,0.0,0.0,0.0,0.0,0.0,0.0,0.0,0.0,0.0,0.0,0.0,0.0,0.0,0.0,0.0,0.0,0.0,0.0,0.0,0.0,0.0,0.0,0.0,0.0,0.0,0.0,0.0,0.0,0.0,0.0,0.0,0.0,0.0,0.0,0.0,4.4917,4.863,5.0852,5.135,5.0048,4.6119,4.1937,0.0,0.0,0.0,0.0,0.0,0.0,0.0,0.0,0.0,0.0,0.0,0.0,0.0,0.0,0.0,0.0,0.0,0.0,0.0,0.0,0.0,0.0,0.0,0.0,0.0,0.0,0.0,0.0,0.0,0.0,0.0,0.0,0.0,0.0,0.0,0.0,0.0,0.0,0.0,0.0,0.0,0.0,0.0,0.0,0.0,0.0,0.0,0.0,2.5969,0.0,0.0,0.0,0.0,0.0,0.0,0.0,0.0,0.0,0.0,0.0,0.0,0.0,0.0,0.0,0.0,0.0,0.0,0.0,0.0,0.0,0.0,0.0,0.0,0.0,0.0,0.0,0.0,0.0,0.0,0.0,0.0,0.0,0.0,0.0,0.0,0.0,0.0,0.0,0.0,0.0,0.0,0.0,0.0,0.0,0.0,0.0,0.0,0.0,0.0,0.0,0.0,0.0,0.0,0.0,0.0,0.0,0.0,0.0,4.6657,4.9541,5.1455,5.2027,5.1156,4.7774,4.3798,0.0,0.0,0.0,0.0,0.0,0.0,0.0,0.0,0.0,0.0,0.0,0.0,0.0,0.0,0.0,0.0,0.0,0.0,0.0,0.0,0.0,0.0,0.0,0.0,0.0,0.0,0.0,0.0,0.0,0.0,0.0,0.0,0.0,0.0,0.0,0.0,0.0,0.0,0.0,0.0,0.0,0.0,0.0,0.0,0.0,0.0,0.0,0.0,0.0,0.0,0.0,0.0,0.0,0.0,0.0,0.0,0.0,0.0,0.0,0.0,0.0,0.0,0.0,0.0,0.0,0.0,0.0,0.0,0.0,0.0,0.0,0.0,0.0,0.0,0.0,0.0,0.0,0.0,0.0,0.0,0.0,0.0,0.0,0.0,0.0,0.0,0.0,0.0,0.0,0.0,0.0,0.0,0.0,0.0,0.0,0.0,0.0,0.0,0.0,0.0,0.0,0.0,0.0,0.0,0.0,0.0,0.0,4.4191,4.7835,5.0444,5.1753,5.24,5.2358,4.9533,4.5715,4.0926,0.0,0.0,0.0,0.0,0.0,0.0,0.0,0.0,0.0,0.0,0.0,0.0,0.0,0.0,0.0,0.0,0.0,0.0,0.0,0.0,0.0,0.0,0.0,0.0,0.0,0.0,0.0,0.0,0.0,0.0,0.0,0.0,0.0,0.0,0.0,0.0,0.0,0.0,2.3811,2.6247,0.0,0.0,0.0,0.0,0.0,0.0,0.0,0.0,2.7979,0.0,0.0,0.0,0.0,0.0,0.0,0.0,0.0,0.0,0.0,0.0,0.0,0.0,0.0,0.0,0.0,0.0,0.0,0.0,0.0,0.0,0.0,0.0,0.0,0.0,0.0,0.0,0.0,0.0,0.0,0.0,0.0,0.0,0.0,0.0,0.0,0.0,0.0,0.0,0.0,0.0,0.0,0.0,0.0,0.0,0.0,0.0,0.0,0.0,0.0,0.0,0.0,0.0,0.0,0.0,0.0,4.5284,4.5193,4.7313,5.1894,5.2259,5.24,5.2325,4.9533,4.6179,4.2222,0.0,0.0,0.0,0.0,0.0,0.0,0.0,0.0,0.0,0.0,0.0,0.0,0.0,0.0,0.0,0.0,0.0,0.0,0.0,0.0,0.0,0.0,0.0,0.0,0.0,0.0,0.0,0.0,0.0,0.0,0.0,0.0,0.0,0.0,0.0,0.0,0.0,0.0,0.0,3.1193,3.2643,0.0,0.0,0.0,0.0,0.0,0.0,0.0,0.0,2.7762,0.0,0.0,0.0,0.0,0.0,0.0,0.0,0.0,0.0,0.0,0.0,0.0,0.0,0.0,0.0,0.0,0.0,0.0,0.0,0.0,0.0,0.0,0.0,0.0,0.0,0.0,0.0,0.0,0.0,0.0,0.0,0.0,0.0,0.0,0.0,0.0,0.0,0.0,0.0,0.0,0.0,0.0,0.0,0.0,0.0,0.0,0.0,0.0,0.0,0.0,0.0,0.0,0.0,0.0,0.0,4.4291,4.6916,4.9508,5.2301,5.24,5.24,5.2301,4.844,4.492,0.0,0.0,0.0,0.0,0.0,0.0,0.0,0.0,0.0,0.0,0.0,0.0,0.0,0.0,0.0,0.0,0.0,0.0,0.0,0.0,0.0,0.0,0.0,0.0,0.0,0.0,0.0,0.0,0.0,0.0,0.0,0.0,0.0,0.0,0.0,0.0,0.0,0.0,0.0,0.0,3.2224,3.3323,3.4331,0.0,0.0,0.0,0.0,0.0,0.0,3.0046,2.8716,0.0,0.0,0.0,0.0,0.0,0.0,0.0,0.0,0.0,0.0,0.0,0.0,0.0,0.0,0.0,0.0,0.0,0.0,0.0,0.0,0.0,0.0,0.0,0.0,0.0,0.0,0.0,0.0,0.0,0.0,0.0,0.0,0.0,0.0,0.0,0.0,0.0,0.0,0.0,0.0,0.0,0.0,0.0,0.0,0.0,0.0,0.0,0.0,0.0,0.0,0.0,0.0,0.0,0.0,0.0,4.2719,4.7943,5.1207,5.2325,5.2239,5.2116,5.2059,4.754,4.3865,0.0,0.0,0.0,0.0,0.0,0.0,0.0,0.0,0.0,0.0,0.0,0.0,0.0,0.0,0.0,0.0,0.0,0.0,0.0,0.0,0.0,0.0,0.0,0.0,0.0,0.0,0.0,0.0,0.0,0.0,0.0,0.0,0.0,0.0,0.0,0.0,0.0,0.0,0.0,0.0,0.0,3.4517,3.5889,3.3721,0.0,0.0,0.0,0.0,3.3308,3.2508,0.0,0.0,0.0,0.0,0.0,0.0,0.0,0.0,0.0,0.0,0.0,0.0,0.0,0.0,0.0,0.0,0.0,0.0,0.0,0.0,0.0,0.0,0.0,0.0,0.0,0.0,0.0,0.0,0.0,0.0,0.0,0.0,0.0,0.0,0.0,0.0,0.0,0.0,0.0,0.0,0.0,0.0,0.0,0.0,0.0,0.0,0.0,0.0,0.0,0.0,0.0,0.0,0.0,0.0,0.0,0.0,4.3308,4.6701,4.9699,5.219,5.1628,5.1234,5.1192,4.8129,4.4528,0.0,0.0,0.0,0.0,0.0,0.0,0.0,0.0,0.0,0.0,0.0,0.0,0.0,0.0,0.0,0.0,0.0,0.0,0.0,0.0,0.0,0.0,0.0,0.0,0.0,0.0,0.0,0.0,0.0,0.0,0.0,0.0,0.0,0.0,0.0,0.0,0.0,0.0,0.0,0.0,0.0,3.9288,3.6583,3.5752,3.5226,0.0,0.0,3.5583,3.622,3.7428,0.0,0.0,0.0,0.0,0.0,0.0,0.0,0.0,0.0,0.0,0.0,0.0,0.0,0.0,0.0,0.0,0.0,0.0,0.0,0.0,0.0,0.0,0.0,0.0,0.0,0.0,0.0,0.0,0.0,0.0,0.0,0.0,0.0,0.0,0.0,0.0,0.0,0.0,0.0,0.0,0.0,0.0,0.0,0.0,0.0,0.0,0.0,0.0,0.0,0.0,0.0,0.0,0.0,0.0,0.0,3.7576,4.2848,4.6931,4.9646,5.0887,5.1036,5.0866,5.0374,4.6488,4.2807,0.0,0.0,0.0,0.0,0.0,0.0,0.0,0.0,0.0,0.0,0.0,0.0,0.0,0.0,0.0,0.0,0.0,0.0,0.0,0.0,0.0,0.0,0.0,0.0,0.0,0.0,0.0,0.0,0.0,0.0,0.0,0.0,0.0,0.0,0.0,0.0,0.0,0.0,0.0,0.0,0.0,0.0,3.7888,3.7433,0.0,0.0,0.0,3.8896,3.9784,0.0,0.0,0.0,0.0,0.0,0.0,0.0,0.0,0.0,0.0,0.0,0.0,0.0,0.0,0.0,0.0,0.0,0.0,0.0,0.0,0.0,0.0,0.0,0.0,0.0,0.0,0.0,0.0,0.0,0.0,0.0,0.0,0.0,0.0,0.0,0.0,0.0,0.0,0.0,0.0,0.0,0.0,0.0,0.0,0.0,0.0,0.0,0.0,0.0,0.0,0.0,0.0,0.0,0.0,0.0,0.0,0.0,4.2422,4.7292,4.9805,4.9805,5.0238,5.016,4.9464,4.5195,0.0,0.0,0.0,0.0,0.0,0.0,0.0,0.0,0.0,0.0,0.0,0.0,0.0,0.0,0.0,0.0,0.0,0.0,0.0,0.0,0.0,0.0,0.0,0.0,0.0,0.0,0.0,1.8299,0.0,0.0,0.0,0.0,0.0,0.0,0.0,0.0,0.0,0.0,0.0,0.0,0.0,0.0,3.8717,3.9342,3.9688,4.0233,0.0,0.0,4.2015,4.2665,4.2348,4.0328,0.0,0.0,0.0,0.0,0.0,0.0,0.0,0.0,0.0,0.0,0.0,0.0,0.0,0.0,0.0,0.0,0.0,0.0,0.0,0.0,0.0,0.0,0.0,0.0,0.0,0.0,0.0,0.0,0.0,0.0,0.0,0.0,0.0,0.0,0.0,0.0,0.0,0.0,0.0,0.0,0.0,0.0,0.0,0.0,0.0,0.0,0.0,0.0,0.0,0.0,0.0,0.0,0.0,0.0,0.0,4.2505,4.7299,4.9775,4.9775,4.9116,4.8718,4.8636,4.5222,4.1432,0.0,0.0,0.0,0.0,0.0,0.0,0.0,0.0,0.0,0.0,0.0,0.0,0.0,0.0,0.0,0.0,0.0,0.0,0.0,0.0,0.0,0.0,0.0,0.0,0.0,0.0,0.0,0.0,0.0,0.0,0.0,0.0,0.0,0.0,0.0,0.0,0.0,0.0,0.0,0.0,0.0,4.1878,4.0735,4.2897,4.4656,0.0,0.0,4.4754,4.4243,4.5793,4.4483,3.6793,0.0,0.0,0.0,0.0,0.0,0.0,0.0,0.0,0.0,0.0,0.0,0.0,0.0,0.0,0.0,0.0,0.0,0.0,0.0,0.0,0.0,0.0,0.0,0.0,0.0,0.0,0.0,0.0,0.0,0.0,0.0,0.0,0.0,0.0,0.0,0.0,0.0,0.0,0.0,0.0,0.0,0.0,0.0,0.0,0.0,0.0,0.0,0.0,0.0,0.0,0.0,0.0,0.0,3.7814,4.1687,4.6014,4.8261,4.8272,4.848,4.8334,4.7796,4.5028,4.1565,0.0,0.0,0.0,0.0,0.0,0.0,0.0,0.0,0.0,0.0,0.0,0.0,0.0,0.0,0.0,0.0,0.0,0.0,0.0,0.0,0.0,0.0,0.0,0.0,0.0,0.0,0.0,0.0,2.3695,2.453,2.4345,0.0,0.0,0.0,0.0,0.0,0.0,0.0,0.0,0.0,0.0,4.2346,4.3258,4.5079,0.0,0.0,4.6912,4.7152,4.6912,4.6055,4.3922,3.9511,3.6673,0.0,0.0,0.0,0.0,0.0,0.0,0.0,0.0,0.0,0.0,0.0,0.0,0.0,0.0,0.0,0.0,0.0,0.0,0.0,0.0,0.0,0.0,0.0,0.0,0.0,0.0,0.0,0.0,0.0,0.0,0.0,0.0,0.0,0.0,0.0,0.0,0.0,0.0,0.0,0.0,0.0,0.0,0.0,0.0,0.0,0.0,0.0,0.0,0.0,0.0,0.0,0.0,3.7169,4.121,4.5251,4.7298,4.7309,4.7892,4.7923,4.7263,4.502,4.2,0.0,0.0,0.0,0.0,0.0,0.0,0.0,0.0,0.0,0.0,0.0,0.0,0.0,0.0,0.0,0.0,0.0,0.0,0.0,0.0,0.0,0.0,0.0,0.0,0.0,0.0,0.0,0.0,2.5488,2.5675,2.4958,0.0,0.0,0.0,0.0,0.0,0.0,0.0,0.0,0.0,0.0,4.3901,4.5708,4.7147,4.798,4.7933,4.779,4.7706,4.7743,4.6005,4.3738,4.0903,0.0,0.0,0.0,0.0,0.0,0.0,0.0,0.0,0.0,0.0,0.0,0.0,0.0,0.0,0.0,0.0,0.0,0.0,0.0,0.0,0.0,0.0,0.0,0.0,0.0,0.0,0.0,0.0,0.0,0.0,0.0,0.0,0.0,0.0,0.0,0.0,0.0,0.0,0.0,0.0,0.0,0.0,0.0,0.0,0.0,0.0,0.0,0.0,0.0,0.0,0.0,0.0,0.0,3.7439,4.1362,4.5285,4.7298,4.7298,4.732,4.7342,4.7249,4.5355,4.2711,3.9352,0.0,0.0,0.0,0.0,0.0,0.0,0.0,0.0,0.0,0.0,0.0,0.0,0.0,0.0,0.0,0.0,0.0,0.0,0.0,0.0,0.0,0.0,0.0,0.0,0.0,0.0,2.539,2.4763,2.407,0.0,0.0,0.0,0.0,0.0,0.0,0.0,0.0,0.0,0.0,4.3765,4.7217,4.7835,4.9193,4.9823,4.9177,4.7321,4.5992,4.6206,4.5996,4.4542,0.0,0.0,0.0,0.0,0.0,0.0,0.0,0.0,0.0,0.0,0.0,0.0,0.0,0.0,0.0,0.0,0.0,0.0,0.0,0.0,0.0,0.0,0.0,0.0,0.0,0.0,0.0,2.691,2.5441,0.0,0.0,0.0,0.0,0.0,0.0,0.0,0.0,0.0,0.0,0.0,3.5185,3.6796,0.0,0.0,0.0,0.0,0.0,0.0,0.0,0.0,0.0,0.0,0.0,0.0,3.7892,4.1403,4.5315,4.7298,4.7298,4.7298,4.7298,4.7279,4.5773,4.2581,3.7614,0.0,0.0,0.0,0.0,0.0,0.0,0.0,0.0,0.0,0.0,0.0,0.0,0.0,0.0,0.0,0.0,0.0,0.0,0.0,0.0,0.0,0.0,0.0,0.0,0.0,2.5337,0.0,0.0,0.0,0.0,0.0,0.0,0.0,0.0,0.0,0.0,0.0,3.9248,4.2627,4.575,4.8108,4.9326,5.0286,5.0858,0.0,0.0,0.0,0.0,0.0,0.0,0.0,0.0,0.0,0.0,0.0,0.0,0.0,0.0,4.3009,3.6334,3.4352,3.4158,3.564,0.0,0.0,0.0,0.0,0.0,0.0,0.0,0.0,0.0,0.0,0.0,0.0,0.0,0.0,0.0,0.0,2.8936,0.0,0.0,0.0,0.0,0.0,0.0,0.0,0.0,3.7046,3.9087,3.954,4.1098,4.0782,0.0,3.8025,3.5056,0.0,0.0,0.0,0.0,0.0,0.0,0.0,0.0,3.8515,4.1956,4.5482,4.7298,4.7298,4.7298,4.7298,4.7279,4.5992,4.3269,3.9029,3.6746,3.3926,0.0,0.0,0.0,0.0,0.0,0.0,0.0,0.0,0.0,0.0,0.0,0.0,0.0,0.0,0.0,0.0,0.0,0.0,0.0,0.0,0.0,0.0,0.0,2.6442,0.0,0.0,0.0,0.0,0.0,0.0,0.0,0.0,0.0,3.6664,3.9767,4.3101,4.5982,4.7975,4.9491,5.0452,0.0,0.0,0.0,0.0,0.0,0.0,0.0,4.6601,4.7504,4.6146,4.5083,4.5543,4.7459,4.8696,4.7957,0.0,0.0,4.1642,3.9568,3.9341,4.0794,4.1515,4.1974,4.242,4.3683,4.46,0.0,0.0,0.0,0.0,0.0,0.0,0.0,0.0,3.3491,3.3641,0.0,3.244,0.0,0.0,0.0,0.0,0.0,0.0,0.0,0.0,4.1995,4.3678,4.268,4.323,4.315,4.2661,4.3698,4.2126,3.8011,3.208,0.0,0.0,0.0,0.0,0.0,0.0,3.9313,4.2991,4.5855,4.7307,4.7317,4.7317,4.7317,4.7279,4.6042,4.4766,4.3429,4.0896,3.7725,3.3873,3.1172,0.0,0.0,0.0,0.0,0.0,0.0,0.0,0.0,0.0,0.0,0.0,0.0,0.0,0.0,0.0,0.0,0.0,0.0,0.0,0.0,2.8096,0.0,0.0,0.0,0.0,0.0,0.0,0.0,0.0,0.0,0.0,3.9978,4.3949,4.7537,4.8953,0.0,0.0,0.0,0.0,5.1099,5.051,4.9748,4.9351,4.9342,5.0394,5.0776,4.9516,0.0,0.0,4.9781,5.109,5.1861,4.979,5.1223,5.2084,5.0543,4.7817,4.6576,4.7871,4.7124,4.6809,4.8071,4.9202,5.0088,4.0913,0.0,0.0,0.0,0.0,3.8054,3.9532,4.1755,4.1256,3.9937,3.8055,3.7247,0.0,0.0,0.0,0.0,0.0,0.0,3.8867,4.0944,4.3387,4.5143,4.6334,4.6803,4.6686,4.6054,4.5924,4.4562,4.1991,3.9738,3.5405,2.9326,0.0,0.0,0.0,0.0,4.1223,4.4067,4.6317,4.7544,4.7714,4.7744,4.7583,4.7298,4.6748,4.5913,4.4785,4.3569,4.1285,3.7836,3.4757,0.0,0.0,0.0,0.0,0.0,0.0,0.0,0.0,0.0,0.0,0.0,0.0,0.0,0.0,0.0,0.0,0.0,0.0,0.0,2.7954,2.877,2.9253,0.0,0.0,0.0,0.0,0.0,0.0,0.0,0.0,0.0,4.7007,4.8332,4.9591,0.0,0.0,5.1505,5.2027,5.2102,5.2391,5.3159,0.0,0.0,0.0,5.2009,5.1695,5.2762,5.4111,5.4664,5.3879,5.4725,5.5265,5.4602,5.5033,5.5298,5.4801,5.2542,5.1001,5.1631,5.1556,5.158,5.2484,5.3045,5.3241,4.6539,4.2971,4.0887,4.1123,4.2783,4.2952,4.4244,4.6303,4.5731,4.4628,4.3171,4.2276,3.991,3.6501,3.5731,0.0,0.0,0.0,4.2357,4.4467,4.5605,4.6871,4.8099,4.8365,4.8296,4.789,4.7485,4.6616,4.5364,4.4736,4.1517,3.5931,0.0,0.0,3.6831,4.0145,4.3087,4.5569,4.7139,4.7993,4.8151,4.7873,4.7507,4.7045,4.6942,4.6588,4.5954,4.5402,4.3938,4.1425,3.8461,3.5228,0.0,0.0,0.0,0.0,0.0,0.0,0.0,0.0,0.0,0.0,0.0,2.6062,2.2729,0.0,0.0,0.0,2.8285,3.0273,3.1713,3.2779,0.0,0.0,0.0,0.0,0.0,0.0,0.0,4.5477,4.7812,4.9675,5.1224,5.1079,5.1251,5.2416,5.2572,5.2747,5.3178,0.0,5.3524,5.4376,5.5014,5.5379,5.5345,5.4801,5.4759,5.6051,5.6594,5.6902,5.6926,5.7276,5.7551,5.7584,5.7584,5.7584,5.7584,5.6136,5.4834,5.4759,5.4948,5.5312,5.571,5.6008,5.624,5.0958,5.0481,4.6902,4.5973,4.6896,4.7148,4.7644,4.8182,4.7762,4.7842,4.8271,4.6964,4.533,4.3449,4.1766,0.0,0.0,4.5137,4.6605,4.7684,4.8262,4.8545,4.8627,4.8603,4.8603,4.8603,4.8592,4.8447,4.8109,4.7583,4.6351,4.4478,4.1731,4.1067,4.2437,4.3355,4.4979,4.7291,4.8094,4.8515,4.8538,4.7838,4.7231,4.6698,4.6796,4.6866,4.6891,4.6509,4.5771,4.4476,4.1973,3.882,3.5056,0.0,0.0,0.0,0.0,0.0,0.0,0.0,0.0,0.0,0.0,0.0,0.0,0.0,0.0,0.0,3.3204,0.0,3.7212,3.852,0.0,0.0,0.0,3.8982,4.0223,4.2992,4.5718,4.8125,0.0,0.0,0.0,0.0,5.2721,5.4391,5.4557,5.4514,5.4628,5.4717,5.4754,5.484,5.597,5.6826,5.6723,5.7661,5.8436,5.8601,5.8933,5.8899,5.8899,5.9032,5.9065,5.9065,5.9055,5.9065,5.9065,5.8933,5.8678,5.7319,5.7442,5.7849,5.7806,5.8247,5.8601,5.4264,5.4124,5.3195,5.1821,5.0252,5.0294,5.0713,5.121,5.0147,4.9491,4.9148,4.7806,4.666,4.5741,4.5793,4.6004,4.6396,4.7195,4.8111,4.8962,4.8752,4.9043,4.9702,4.951,4.9426,4.9426,4.9397,4.9116,4.8567,4.8393,4.7881,4.6951,4.6211,4.5171,4.3866,4.5277,4.6782,4.8334,4.8551,4.8757,4.8905,4.7833,4.7268,4.7272,4.6671,4.6546,4.6898,4.6815,4.6477,4.5801,4.3329,4.0795,3.8315,3.2624,0.0,0.0,0.0,0.0,0.0,0.0,0.0,0.0,0.0,3.098,2.4821,0.0,3.3796,0.0,3.6979,3.9204,3.9433,3.9264,0.0,0.0,4.2141,4.3337,4.8654,4.8697,4.9203,5.1612,5.305,5.4071,5.4507,5.477,5.5073,5.5495,5.4838,5.4717,5.5708,5.6557,5.6922,5.6788,5.7558,5.8086,5.7431,5.8178,5.8902,5.8899,5.9353,5.9728,5.9717,6.0225,6.0579,6.0579,6.0589,6.0579,6.0525,6.0589,6.0446,6.0059,5.933,5.8634,5.8644,5.88,5.8933,5.5403,5.5403,5.5403,5.4518,5.3129,5.2716,5.2574,5.2582,5.1682,5.1083,5.073,4.9687,4.8969,4.8559,4.901,4.9116,4.8986,4.9548,5.004,5.042,5.014,5.0282,5.075,5.0614,5.054,5.0552,5.054,5.0336,5.0005,4.998,4.9831,4.9465,4.9228,4.8422,4.7165,4.7457,4.8135,4.9105,4.9146,4.9061,4.889,4.7981,4.7251,4.6803,4.6148,4.5654,4.5366,4.5177,4.488,4.4403,4.2464,4.078,3.9412,3.4861,3.1763,0.0,0.0,0.0,0.0,0.0,0.0,0.0,0.0,0.0,0.0,0.0,3.6272,0.0,4.0859,0.0,4.2976,4.4115,4.5565,4.7194,4.7069,4.8266,5.1738,5.1605,5.1977,5.3688,5.4051,5.4473,5.5206,5.4946,5.4985,5.5645,5.5282,5.5216,5.5954,5.6636,5.6891,5.6787,5.7485,5.8044,5.7695,5.856,5.9059,5.871,5.9259,5.9702,5.9242,5.9858,6.0302,5.9914,6.0495,6.0929,6.0559,6.0845,6.1109,6.1009,6.0446,5.996,5.9883,5.9883,5.9883,5.5635,5.5635,5.5635,5.5577,5.5459,5.4598,5.3828,5.3136,5.2645,5.2393,5.225,5.1679,5.128,5.1095,5.1317,5.121,5.088,5.1604,5.1841,5.1601,5.1617,5.1617,5.1617,5.1588,5.1617,5.1617,5.1617,5.1617,5.1617,5.1617,5.1617,5.1559,5.1087,5.0813,5.0768,4.9582,4.9204,4.9693,4.9722,4.942,4.8832,4.8159,4.7213,4.6051,4.5449,4.4597,4.3468,4.3116,4.2829,4.2456,4.1376,4.053,3.9971,3.7396,3.5579,0.0,3.2998,0.0,0.0,0.0,0.0,0.0,0.0,0.0,0.0,3.7826,3.9037,4.0801,4.4855,4.7198,4.6918,4.9989,5.1504,5.0333,5.1654,5.2563,5.2324,5.3051,5.3956,5.4873,5.4105,5.4085,5.5463,5.4389,5.4032,5.5266,5.5536,5.5591,5.5786,5.6123,5.6356,5.6057,5.6518,5.7267,5.7946,5.8792,5.9049,5.8385,5.8792,5.9079,5.8294,5.8867,5.9124,5.8539,5.951,6.0291,5.9532,6.0119,6.0633,6.0569,6.0482,6.0566,6.0872,6.0787,6.0908,5.6926,5.6955,5.6941,5.6651,5.62,5.6009,5.5267,5.4147,5.3034,5.226,5.174,5.1624,5.154,5.1503,5.154,5.1515,5.1439,5.1594,5.1639,5.1617,5.1617,5.1617,5.1617,5.1617,5.1617,5.1617,5.1617,5.1617,5.1617,5.1617,5.1617,5.1601,5.1485,5.1427,0.0,0.0,0.0,0.0,4.9722,4.9623,4.949,4.8374,4.7433,4.6627,4.5057,0.0,4.3458,4.3801,4.4148,4.4426,4.4219,0.0,0.0,0.0,0.0,0.0,0.0,0.0,0.0,0.0,0.0,0.0,4.0664,3.9684,3.8094,4.2061,4.5157,4.6003,4.8898,5.044,4.9737,5.0747,5.1905,5.2734,5.2547,5.304,5.4768,5.4488,5.4437,5.535,5.5098,5.4928,5.524,5.499,5.4938,5.521,5.5283,5.5285,5.5345,5.6605,5.7271,5.6667,5.6539,5.7026,5.7938,5.8211,5.8323,5.8142,5.8188,5.8268,5.8073,5.8154,5.838,5.8027,5.8426,5.8687,5.8426,5.8562,5.8788,5.8698,5.8721,5.9167,6.0707,6.0452,5.9881,5.7797,0.0,5.7448,5.7129,0.0,5.6506,5.6026,5.5374,5.44,5.3617,5.3023,5.2662,5.2517,5.253,5.253,5.253,5.253,5.2517,5.2517,5.2559,5.2546,5.253,5.2559,5.2559,5.2517,5.2559,5.2517,5.2517,5.2559,5.2517,5.253,5.2517,5.2252,5.2107,5.2078,5.1481,5.0668,4.9722,4.9722,4.9722,4.9664,4.8752,4.777,4.6818,0.0,0.0,0.0,0.0,0.0,0.0,0.0,0.0,0.0,0.0,0.0,4.1225,4.0376,4.0286,4.1255,4.2242,4.3668,4.5635,4.6373,4.5567,4.2802,4.5879,4.8304,4.9232,5.1347,5.2262,5.1429,5.2311,5.3109,5.3354,5.3278,5.373,5.4794,5.4879,5.4882,5.5278,5.5283,5.5222,5.5222,5.5508,5.5521,5.5281,5.5491,5.5581,5.5357,5.6017,5.6439,5.5992,5.5906,5.609,5.6578,5.711,5.7146,5.6855,5.7039,5.7122,5.6747,5.707,5.7217,5.6891,5.7406,5.7958,5.7512,5.7757,5.8116,5.8148,5.8358,5.8842,5.9926,5.9682,5.9354,5.8493,5.8406,5.7768,5.7463,5.7405,5.681,5.6564,5.6506,0.0,0.0,0.0,5.4068,5.3778,5.3661,5.3691,5.3603,5.3516,5.3487,5.3487,5.3487,5.3487,5.3487,5.3487,5.3487,5.3487,5.3487,5.3487,5.3487,5.3487,5.3487,5.3487,5.3458,5.2978,5.2714,5.2568,5.2049,5.1207,5.0087,5.0029,4.9971,4.9867,4.9221,4.8281,4.7015,4.6272,4.5104,4.3398,4.2974,4.2603,4.2263,4.1923,4.2124,4.2919,4.2969,4.3862,4.5759,4.5929,4.6538,4.7867,4.8087,4.8697,4.9917,5.0971,5.0589,4.8315,4.9176,5.0295,5.1457,5.2882,5.3376,5.266,5.3946,5.4581,5.3811,5.4324,5.473,5.4773,5.5179,5.5593,5.5521,5.5606,5.5551,5.5611,5.603,5.6162,5.576,5.603,5.6192,5.5641,5.546,5.5428,5.5515,5.548,5.5255,5.5343,5.5844,5.5986,5.5543,5.5918,5.6054,5.5551,5.5831,5.5992,5.5488,5.667,5.7208,5.6805,5.7279,5.7891,5.7938,5.8361,5.8743,5.8775,5.8857,5.8912,5.9147,5.9103,5.8421,5.816,5.8116,5.7434,5.7187,5.7071,5.5925,5.5358,5.5271,5.5184,5.4851,5.4358,5.4358,5.4039,5.3516,5.3487,5.3487,0.0,5.3487,5.3487,5.3487,5.3487,5.3487,5.3487,5.3487,5.3487,5.3487,5.3487,5.3487,5.3487,5.3413,5.3136,5.2626,5.251,5.2091,5.1369,5.1327,5.1091,5.0564,4.9901,4.8948,4.7706,4.6545,4.55,4.4658,4.5104,4.5425,4.5519,4.6506,4.6929,4.6723,4.6698,4.7251,4.8279,4.8391,4.9088,5.0524,5.1199,5.1839,5.2558,5.2827,5.2498,5.1618,5.1678,5.2109,5.2899,5.3717,5.4082,5.4012,5.5163,5.5886,5.5799,5.6299,5.6675,5.6585,5.6688,5.6748,5.6735,5.6825,5.6765,5.6735,5.6898,5.6915,5.6838,5.6778,5.6898,5.6688,5.588,5.5521,5.5833,5.5581,5.5251,5.5379,5.5297,5.5423,5.5229,5.536,5.5511,5.5255,5.5458,5.5533,5.5259,5.6058,5.6453,5.6336,5.6757,5.7228,5.7321,5.7503,5.756,5.7612,5.7997,5.8407,5.98,5.9713,5.9103,5.8871,5.8784,5.8145,5.7608,5.7274,5.6694,5.6258,5.5925,5.5562,5.5271,5.4996,5.4996,5.4822,5.4532,5.4532,5.4532,5.4532,5.4532,5.4532,5.4532,5.4532,5.4532,5.4503,5.4184,5.4039,5.401,5.3691,5.3487,5.3487,5.3487,5.3355,5.3107,5.3094,5.2936,5.2617,5.1949,5.1456,5.1207,5.0888,5.0295,4.939,4.8444,4.7648,4.6998,4.694,4.7114,4.7544,4.8109,4.8564,4.8899,4.8911,4.9322,5.0177,5.0248,5.0781,5.1977,5.3178,5.3952,5.4264,5.4801,5.5044,5.488,5.3892,5.3725,5.4695,5.5114,5.5418,5.576,5.6329,5.6688,5.6688,5.6958,5.7094,5.7094,5.7094,5.7094,5.7094,5.7094,5.7094,5.7094,5.7423,5.7483,5.7214,5.7094,5.7214,5.7573,5.6855,5.6329,5.6611,5.6419,5.6269,5.6209,5.594,5.576,5.5743,5.573,5.5593,5.5401,5.5641,5.603,5.585,5.6269,5.6628,5.6688,5.6898,5.7064,5.7124,5.7453,5.759,5.7709,5.8188,5.8644,5.9469,5.9412,5.884,5.8497,5.8355,5.8131,5.7686,5.7095,5.7365,5.7187,5.6564,5.6041,5.5751,5.5649,5.5649,5.5533,5.5403,5.5403,5.5374,5.5403,5.5403,5.5403,5.5403,5.5403,5.5403,5.5345,5.4909,5.4706,5.4648,5.4184,5.3923,5.3923,5.3923,5.3865,5.3733,5.372,5.3661,5.3458,5.253,5.1936,5.1833,5.1846,5.1527,5.0929,5.0407,4.9884,4.9366,4.8914,4.8885,4.9325,4.9354,4.9684,5.0386,5.044,5.083,5.1655,5.1898,5.2434,5.3549,5.4726,5.5449,5.5466,5.6152,5.6677,5.6782,5.5573,5.5129,5.6184,5.6294,5.6452,5.6827,5.706,5.7133,5.7215,5.7325,5.7418,5.7467,5.7398,5.7385,5.7424,5.7464,5.7494,5.762,5.7992,5.8128,5.7723,5.7543,5.7782,5.8158,5.7872,5.7573,5.7483,5.7304,5.7034,5.7077,5.6718,5.6432,5.6389,5.6389,5.6209,5.6,5.6539,5.6868,5.6539,5.6898,5.7274,5.7334,5.7513,5.7616,5.7736,5.8038,5.8338,5.8367,5.8667,5.9069,5.7341,5.7211,5.6749,5.6018,5.5771,5.6804,5.6934,5.6504,5.7628,5.7812,5.709,5.7144,5.6754,5.6361,5.6302,5.5997,5.5461,5.5403,5.5432,5.5432,5.5403,5.5403,5.5461,5.5432,5.5403,5.5432,5.5345,5.5316,5.5316,5.52,5.52,5.5229,5.5242,5.4923,5.4474,5.4416,5.4126,5.3503,5.34,5.3065,5.2526,5.251,5.2178,5.1543,5.1456,5.1385,5.1253,5.1294,5.1253,5.134,5.1298,5.1369,5.1465,5.1465,5.1882,5.2807,5.3359,5.4326,5.5764,5.6099,5.6182,5.6201,5.6319,5.6423,5.6434,5.6257,5.6364,5.6838,5.6802,5.6717,5.675,5.7024,5.7336,5.7611,5.7878,5.8197,5.8369,5.8295,5.8197,5.8513,5.8392,5.8635,5.8662,5.8806,5.8906,5.874,5.865,5.871,5.886,5.88,5.871,5.859,5.7975,5.7274,5.7214,5.7107,5.7017,5.7047,5.7004,5.6885,5.6868,5.6958,5.7077,5.7184,5.7573,5.7979,5.8128,5.8427,5.88,5.8634,5.88,5.8979,5.9009,5.9039,5.9099,5.7006,5.6962,5.6734,5.6269,5.5833,5.6307,5.6168,5.5649,5.6167,5.6074,5.5574,5.5531,5.6017,5.6884,5.6955,5.6781,5.6506,5.6506,5.652,5.6549,5.652,5.652,5.652,5.6506,5.6506,5.649,5.6157,5.5983,5.5925,5.5591,5.5403,5.5403,5.5403,5.5258,5.5039,5.5026,5.488,5.4648,5.4619,5.4517,5.421,5.35,5.3007,5.2704,5.2368,5.2207,5.2149,5.1833,5.1775,5.2136,5.2178,5.2543,5.3284,5.3313,5.3656,5.4357,5.4807,5.5305,5.5939,5.6498,5.6828,5.6828,5.7045,5.7253,5.7388,5.7265,5.7347,5.7614,5.7291,5.7135,5.7505,5.7676,5.7853,5.8008,5.8116,5.825,5.8376,5.8293,5.828,5.839,5.8404,5.8445,5.8582,5.8746,5.8909,5.9045,5.9099,5.9085,5.9099,5.9099,5.9099,5.9039,5.859,5.8364,5.8231,5.7919,5.7739,5.7679,5.7679,5.762,5.7304,5.7902,5.8171,5.7782,5.8248,5.8607,5.8697,5.8816,5.9099,5.9099,5.9099,5.9099,5.9099,5.9099,5.9099,5.5867,5.5877,5.5851,5.5612,5.5272,5.5644,5.5424,5.492,5.5208,5.5045,5.4557,5.453,5.5308,5.6518,5.6408,5.6279,5.6251,5.6251,5.6251,5.6279,5.6251,5.6265,5.6279,5.6279,5.6251,5.6251,5.615,5.6287,5.6551,5.62,5.5925,5.5939,5.5925,5.5838,5.5693,5.5664,5.5577,5.5403,5.5403,5.5403,5.5258,5.4503,5.401,5.3981,5.3601,5.3368,5.3352,5.2891,5.2862,5.3339,5.3382,5.3775,5.4648,5.4735,5.5026,5.5591,5.5855,5.6036,5.6211,5.6854,5.7214,5.7259,5.7503,5.7767,5.7892,5.7795,5.7751,5.7846,5.7521,5.7476,5.7969,5.8001,5.7988,5.8086,5.8045,5.7974,5.8057,5.8045,5.7974,5.8086,5.8114,5.8112,5.8195,5.8431,5.8623,5.8787,5.8909,5.8991,5.9004,5.9045,5.9099,5.9099,5.9031,5.8988,5.9042,5.8697,5.8427,5.8397,5.8397,5.8218,5.7723,5.862,5.9039,5.8471,5.889,5.9039,5.8979,5.9069,5.9085,5.9099,5.9085,5.9072,5.9099,5.9099,5.9099,5.3076,5.3127,5.3093,5.3205,5.3171,5.4441,5.4635,5.4128,5.5366,5.5589,5.4907,5.4911,5.5056,5.5065,5.4175,5.3706,5.3779,5.3899,5.3956,5.3984,5.3939,5.3736,5.3649,5.3649,5.3782,5.4218,5.4976,5.6007,5.709,5.7117,5.7202,5.7173,5.7129,5.6897,5.6419,5.6332,5.6055,5.562,5.5519,5.5461,5.5432,5.5374,5.5316,5.5316,5.5258,5.5126,5.5171,5.52,5.5184,5.5242,5.5155,5.5271,5.5345,5.5374,5.5707,5.6258,5.6374,5.6634,5.707,5.7286,5.7359,5.733,5.7475,5.7404,5.7619,5.7591,5.7591,5.7418,5.7532,5.7601,5.7856,5.7745,5.7644,5.7854,5.7615,5.7644,5.7839,5.7803,5.7543,5.7768,5.7852,5.792,5.8126,5.8195,5.8236,5.8362,5.8527,5.8735,5.8732,5.8939,5.9031,5.8991,5.8898,5.8787,5.9018,5.8898,5.8912,5.8906,5.8846,5.8936,5.9026,5.9069,5.9026,5.9039,5.9069,5.9099,5.9099,5.9085,5.9088,5.9031,5.8977,5.8977,5.8882,5.9031,5.9004,5.2895,5.2895,5.2895,5.2895,5.2964,5.347,5.3504,5.3343,5.3832,5.3721,5.324,5.3188,5.2998,5.2637,5.2282,5.2991,5.4399,5.4182,5.4182,5.4491,5.4519,5.4329,5.4019,5.4034,5.429,5.4645,5.4352,5.5064,5.6502,5.6306,5.6752,5.7697,5.7492,5.7173,5.7013,5.6984,5.6839,5.6651,5.6636,5.6636,5.6564,5.6607,5.6636,5.6578,5.5823,5.5403,5.5403,5.5403,5.5403,5.5403,5.5403,5.5606,5.6026,5.6403,5.6723,5.6912,5.697,5.7057,5.7303,5.771,5.7942,5.7971,5.8348,5.8552,5.8581,5.8566,5.8566,5.8581,5.8581,5.8652,5.8608,5.826,5.7985,5.8114,5.8391,5.8595,5.8696,5.8638,5.8478,5.8142,5.7792,5.7584,5.7923,5.7948,5.8017,5.8167,5.8486,5.8555,5.8472,5.8637,5.8773,5.8552,5.8459,5.85,5.88,5.8857,5.8868,5.9031,5.9069,5.9056,5.9085,5.9031,5.8974,5.8934,5.9004,5.8991,5.895,5.8855,5.8885,5.8814,5.876,5.8678,5.8527,5.8664,5.8623,5.2895,5.2895,5.2895,5.2895,5.2895,5.2895,5.2895,5.2895,5.2895,5.2686,5.2385,5.236,5.2134,5.1825,5.1624,5.2515,5.4205,5.3657,5.353,5.3858,5.3858,5.3689,5.3398,5.3345,5.3577,5.3954,5.367,5.4511,5.6399,5.6198,5.6803,5.819,5.7826,5.7507,5.7361,5.7303,5.7303,5.7303,5.7303,5.7303,5.7303,5.7303,5.7303,5.7187,5.6448,5.6026,5.6026,5.6026,5.6012,5.6012,5.6026,5.6215,5.6694,5.726,5.7623,5.7623,5.7855,5.7942,5.7971,5.8377,5.8639,5.8639,5.9016,5.9292,5.9292,5.9292,5.9292,5.9292,5.9292,5.9292,5.9277,5.906,5.8842,5.8726,5.9016,5.9306,5.9292,5.9277,5.9074,5.8711,5.8305,5.8056,5.7949,5.7991,5.7959,5.7949,5.8197,5.828,5.8169,5.8321,5.8472,5.8236,5.8126,5.8252,5.8404,5.8445,5.8705,5.8909,5.8909,5.895,5.8936,5.8909,5.8855,5.8841,5.8828,5.8814,5.8746,5.8637,5.8568,5.8527,5.8472,5.836,5.8278,5.8236,5.8236,5.2895,5.2895,5.2895,5.2895,5.2895,5.2895,5.2895,5.2895,5.2895,5.287,5.2795,5.2845,5.277,5.2694,5.2302,5.2479,5.2826,5.2202,5.1805,5.184,5.1748,5.1722,5.1654,5.1721,5.1678,5.1782,5.2699,5.4577,5.689,5.6902,5.7335,5.8191,5.829,5.7913,5.7361,5.7361,5.7303,5.7303,5.7303,5.7303,5.7303,5.7303,5.7303,5.7303,5.7187,5.7158,5.7187,5.7216,5.7129,5.7187,5.7187,5.7274,5.739,5.7942,5.8319,5.8406,5.8871,5.919,5.9219,5.9248,5.9306,5.9335,5.9364,5.9524,5.9568,5.951,5.951,5.9539,5.951,5.9422,5.9568,5.9858,5.9887,5.9422,5.9451,5.9539,5.9466,5.935,5.9292,5.9263,5.9147,5.8987,5.8508,5.8246,5.81,5.772,5.7726,5.7878,5.7836,5.8045,5.8154,5.8085,5.7918,5.7906,5.7975,5.8072,5.8459,5.876,5.8691,5.8664,5.8623,5.8596,5.8513,5.8456,5.847,5.8486,5.8472,5.8362,5.8266,5.8211,5.8169,5.8057,5.7988,5.7932,5.8001,5.2895,5.2895,5.2895,5.2895,5.2895,5.2895,5.2895,5.2895,5.2895,5.2895,5.2895,5.2895,5.2895,5.287,5.2711,5.2737,5.2862,5.2536,5.2385,5.236,5.236,5.2176,5.19,5.185,5.1666,5.1572,5.2597,5.432,5.6034,5.6115,5.7065,5.8998,5.8697,5.8218,5.8,5.7565,5.7303,5.7303,5.7303,5.7303,5.7303,5.7303,5.7303,5.7303,5.7303,5.7303,5.7303,5.7303,5.7303,5.7303,5.7303,5.7507,5.8,5.861,5.8972,5.9016,5.9147,5.9292,5.935,5.9684,5.9916,6.0003,6.0322,6.0584,6.0613,6.0555,6.0555,6.0555,6.0613,6.0613,6.0642,6.0758,6.0584,5.9988,6.0322,6.0526,6.0424,6.0177,5.993,5.9858,5.9568,5.9219,5.8958,5.8697,5.8319,5.8058,5.7906,5.7754,5.7585,5.7782,5.7779,5.7612,5.7514,5.7556,5.7739,5.7836,5.8059,5.8335,5.8362,5.8362,5.8335,5.8225,5.8126,5.8098,5.8112,5.8112,5.8128,5.8072,5.7961,5.785,5.7781,5.7682,5.7598,5.7698,5.7856,5.2895,5.2895,5.2895,5.2895,5.2895,5.2895,5.2895,5.2895,5.2895,5.2895,5.2895,5.2895,5.2895,5.2895,5.2895,5.2895,5.2895,5.2895,5.2895,5.2895,5.2895,5.2694,5.241,5.2385,5.2234,5.2068,5.2721,5.4023,5.5665,5.5489,5.662,5.8785,5.8601,5.8377,5.8596,5.8247,5.7942,5.7725,5.7681,5.7565,5.7361,5.7303,5.7419,5.7623,5.7681,5.7797,5.7986,5.8029,5.7797,5.7463,5.7521,5.7986,5.8639,5.9277,5.9626,5.9684,5.9887,6.0017,6.0046,6.038,6.0584,6.0671,6.0961,6.1164,6.1193,6.1193,6.1193,6.1193,6.1164,6.1193,6.1164,6.1193,6.099,6.0642,6.0903,6.1164,6.1135,6.0845,6.0584,6.0496,6.0264,5.993,5.9582,5.9335,5.89,5.8696,5.8273,5.7935,5.7707,5.7647,5.7503,5.736,5.736,5.7473,5.7571,5.7641,5.7697,5.785,5.7989,5.8031,5.8059,5.7878,5.7723,5.7723,5.7723,5.7696,5.7682,5.7668,5.7584,5.7486,5.7531,5.7459,5.7488,5.778,5.7968,5.2895,5.2895,5.2895,5.2895,5.2895,5.2895,5.2895,5.2895,5.2895,5.2895,5.2895,5.2895,5.2895,5.2895,5.2895,5.2895,5.2895,5.2895,5.2895,5.2895,5.2895,5.2845,5.2795,5.2795,5.2744,5.2779,5.2847,5.3691,5.5072,5.5086,5.6089,5.8139,5.8308,5.8536,5.9116,5.9306,5.8856,5.8435,5.8348,5.8058,5.7594,5.7536,5.7768,5.8305,5.8377,5.861,5.9016,5.9074,5.861,5.771,5.8131,5.8784,5.9335,5.9916,6.0264,6.0293,6.0845,6.099,6.1135,6.1048,6.1106,6.1106,6.1135,6.1193,6.1193,6.1193,6.1193,6.1193,6.1193,6.1193,6.1193,6.1193,6.1164,6.1164,6.1164,6.1193,6.1193,6.1164,6.1077,6.1106,6.1135,6.0961,6.0322,6.0148,5.98,5.9393,5.8813,5.8435,5.8116,5.7854,5.7463,5.7332,5.7332,5.7331,5.7473,5.7487,5.75,5.7556,5.7654,5.7739,5.7781,5.7613,5.7458,5.7444,5.743,5.7374,5.736,5.7402,5.7547,5.7664,5.7564,5.739,5.7652,5.8145,5.8319,5.2895,5.2895,5.2895,5.2895,5.2895,5.2895,5.2895,5.2895,5.2895,5.2895,5.2895,5.2895,5.2895,5.2895,5.2895,5.2895,5.2895,5.2895,5.2895,5.2895,5.2895,5.2895,5.2895,5.2895,5.2895,5.2895,5.2929,5.3615,5.4894,5.4903,5.6212,5.8716,5.8221,5.8701,5.9724,5.9538,5.9248,5.9074,5.9045,5.8958,5.8784,5.8726,5.8842,5.8987,5.9045,5.9132,5.9292,5.9292,5.919,5.8885,5.9364,5.9771,6.0003,6.0555,6.0874,6.0903,6.1048,6.1193,6.1193,6.1193,6.1193,6.1193,6.1193,6.1193,6.1193,6.1193,6.1193,6.1193,6.1193,6.1193,6.1193,6.1193,6.1193,6.1193,6.1193,6.1193,6.1193,6.1193,6.1193,6.1193,6.1193,6.1077,6.0874,6.0526,6.0221,5.9916,5.9451,5.89,5.861,5.829,5.7971,5.7463,5.7318,5.7332,5.7317,5.7317,5.7331,5.7345,5.7402,5.743,5.7487,5.7402,5.7345,5.7331,5.736,5.7331,5.7346,5.736,5.7565,5.7913,5.8029,5.8087,5.8552,5.9016,5.9016,5.3113,5.2895,5.2895,5.2895,5.2895,5.2895,5.2895,5.2895,5.2895,5.2895,5.2895,5.2895,5.2895,5.2895,5.2895,5.2895,5.2895,5.2895,5.2895,5.2895,5.2895,5.2895,5.2895,5.2895,5.2895,5.2895,5.2895,5.3333,5.3971,5.4123,5.5376,5.6951,5.7559,5.8373,5.9639,6.0071,5.9945,5.9742,5.9684,5.9597,5.9335,5.9292,5.948,5.9597,5.9684,5.9771,6.0032,6.0119,6.0003,5.9829,6.0032,6.0322,6.0613,6.0961,6.1193,6.1193,6.1193,6.1193,6.1193,6.1193,6.1193,6.1193,6.1193,6.1193,6.1193,6.1193,6.1193,6.1193,6.1193,6.1193,6.1193,6.1193,6.1193,6.1193,6.1193,6.1193,6.1193,6.1193,6.1193,6.1193,6.1193,6.1193,6.1193,6.0816,6.0671,6.0496,6.009,5.9611,5.9234,5.89,5.8464,5.7899,5.7608,5.7681,5.7477,5.739,5.7332,5.7332,5.7448,5.7419,5.739,5.739,5.7332,5.7361,5.7332,5.7419,5.7594,5.7797,5.8116,5.8435,5.8581,5.8842,5.9219,5.9684,5.9684,5.349,5.3063,5.2995,5.297,5.2995,5.292,5.2895,5.2895,5.2895,5.2895,5.2895,5.2895,5.2895,5.2895,5.2895,5.2895,5.2895,5.2895,5.2895,5.2895,5.2895,5.2895,5.2895,5.2895,5.2895,5.2895,5.2895,5.2947,5.3127,5.3067,5.3734,5.525,5.6363,5.7476,5.8731,6.0051,6.056,6.0098,6.0204,6.0104,5.98,5.9742,5.9945,6.0235,6.0322,6.0555,6.0903,6.1048,6.0874,6.0322,6.0322,6.0613,6.1106,6.1193,6.1193,6.1193,6.1193,6.1193,6.1193,6.1193,6.1193,6.1193,6.1193,6.1193,6.1193,6.1193,6.1193,6.1193,6.1193,6.1193,6.1193,6.1193,6.1193,6.1193,6.1193,6.1193,6.1193,6.1193,6.1193,6.1193,6.1193,6.1193,6.1193,6.1193,6.1164,6.0903,6.0555,6.0206,5.9858,5.9539,5.8929,5.8232,5.8116,5.8116,5.7826,5.7492,5.7419,5.739,5.7594,5.7652,5.7594,5.7536,5.7448,5.7448,5.7652,5.7971,5.8348,5.8552,5.8755,5.9045,5.9306,5.9422,5.9597,6.0119,6.0322,5.4328,5.422,5.375,5.3532,5.3439,5.3088,5.2895,5.2895,5.2895,5.2895,5.2895,5.2895,5.2895,5.2895,5.2895,5.2895,5.2895,5.2895,5.2895,5.2895,5.2895,5.2895,5.2895,5.2895,5.2895,5.2895,5.2895,5.2895,5.2895,5.3015,5.3606,5.4837,5.5359,5.6107,5.7455,5.878,5.9511,5.9539,6.0286,6.065,6.0594,6.0551,6.0639,6.0917,6.0932,6.1019,6.1135,6.1193,6.1106,6.1034,6.0961,6.099,6.1135,6.1193,6.1193,6.1193,6.1193,6.1193,6.1193,6.1193,6.1193,6.1193,6.1193,6.1193,6.1193,6.1193,6.1193,6.1193,6.1193,6.1193,6.1193,6.1193,6.1193,6.1193,6.1193,6.1193,6.1193,6.1193,6.1193,6.1193,6.1193,6.1193,6.1193,6.1193,6.1193,6.1164,6.099,6.0729,6.0438,6.0148,5.9539,5.8842,5.8813,5.8813,5.8377,5.8073,5.7971,5.7913,5.8,5.8087,5.8029,5.7913,5.7913,5.7971,5.8087,5.8493,5.8958,5.9132,5.9277,5.9655,6.0032,6.0177,6.0351,6.0773,6.086,5.483,5.4572,5.4253,5.3959,5.3683,5.3406,5.3138,5.292,5.2895,5.2895,5.2895,5.2895,5.2895,5.2895,5.2895,5.2895,5.2895,5.2895,5.2895,5.2895,5.2895,5.2895,5.2895,5.2895,5.2895,5.2895,5.2895,5.2895,5.2895,5.2929,5.323,5.4056,5.4636,5.5343,5.6156,5.7407,5.8056,5.8171,5.8796,5.9493,6.0075,6.0226,6.0681,6.1073,6.1193,6.1193,6.1193,6.1193,6.1193,6.1193,6.1193,6.1193,6.1193,6.1193,6.1193,6.1193,6.1193,6.1193,6.1193,6.1193,6.1193,6.1193,6.1193,6.1193,6.1193,6.1193,6.1193,6.1193,6.1193,6.1193,6.1193,6.1193,6.1193,6.1193,6.1193,6.1193,6.1193,6.1193,6.1193,6.1193,6.1193,6.1193,6.1193,6.1193,6.1193,6.1164,6.1164,6.0932,6.0961,6.0642,6.0235,5.9771,5.9684,5.951,5.9016,5.8755,5.8697,5.8639,5.8697,5.8755,5.8755,5.861,5.8464,5.8581,5.8755,5.9103,5.951,5.9655,5.9916,6.038,6.0729,6.0918,6.1005,6.1005,6.1048,5.5257,5.483,5.4773,5.4429,5.3984,5.3884,5.3532,5.3088,5.3038,5.302,5.2895,5.2895,5.2895,5.2895,5.2895,5.2895,5.2895,5.2895,5.2895,5.2895,5.2895,5.2895,5.2895,5.2895,5.2895,5.2895,5.2895,5.2895,5.2895,5.2895,5.2998,5.3187,5.4005,5.4518,5.4927,5.5959,5.6699,5.6747,5.7215,5.779,5.8592,5.878,5.9338,5.9937,6.0577,6.0637,6.0757,6.0953,6.1193,6.1193,6.1193,6.1193,6.1193,6.1193,6.1193,6.1193,6.1193,6.1193,6.1193,6.1193,6.1193,6.1193,6.1193,6.1193,6.1193,6.1193,6.1193,6.1193,6.1193,6.1193,6.1193,6.1193,6.1193,6.1193,6.1193,6.1193,6.1193,6.1193,6.1193,6.1193,6.1193,6.1193,6.1193,6.1193,6.1193,6.1193,6.1193,6.1193,6.1193,6.1077,6.0613,6.038,6.0264,6.0061,5.9597,5.9684,5.9597,5.9219,5.9306,5.9422,5.9422,5.9335,5.9248,5.9306,5.9539,5.9829,6.009,6.0322,6.0642,6.1106,6.1164,6.1121,6.1106,6.1164,6.1193,5.6018,5.5892,5.5458,5.5207,5.5039,5.4655,5.4102,5.3632,5.3532,5.3289,5.292,5.2895,5.2895,5.2895,5.2895,5.2895,5.2895,5.2895,5.2895,5.2895,5.2895,5.2895,5.2895,5.2895,5.2895,5.2895,5.2895,5.2895,5.2895,5.2895,5.2895,5.2964,5.3196,5.3384,5.3784,5.4552,5.5326,5.5449,5.608,5.6812,5.7215,5.7535,5.7663,5.8246,5.8983,5.9385,5.9737,6.0516,6.1193,6.1193,6.1193,6.1178,6.1193,6.1193,6.1193,6.1193,6.1193,6.1193,6.1193,6.1193,6.1193,6.1193,6.1193,6.1193,6.1193,6.1193,6.1193,6.1193,6.1193,6.1193,6.1193,6.1193,6.1193,6.1193,6.1193,6.1193,6.1193,6.1193,6.1193,6.1193,6.1193,6.1193,6.1193,6.1193,6.1193,6.1193,6.1193,6.1193,6.1193,6.1106,6.0874,6.0758,6.07,6.0467,6.0177,6.0496,6.0555,5.9858,5.9771,6.0032,6.0061,6.0061,6.0061,6.0061,6.0148,6.0351,6.0627,6.0845,6.099,6.1164,6.1193,6.1193,6.1193,6.1193,6.1193,5.6219,5.615,5.5917,5.5659,5.5365,5.5132,5.4504,5.3758,5.3683,5.3389,5.302,5.2895,5.2895,5.2895,5.2895,5.2895,5.2895,5.2895,5.2895,5.2895,5.2895,5.2895,5.2895,5.2895,5.2895,5.2895,5.2895,5.2895,5.2895,5.2895,5.2895,5.2895,5.2895,5.2895,5.2998,5.3529,5.392,5.4148,5.4627,5.5317,5.6009,5.6488,5.6925,5.7199,5.7519,5.7949,5.8151,5.8514,5.9385,5.9891,6.0075,6.0501,6.0893,6.1089,6.1148,6.1074,6.1163,6.1193,6.1193,6.1193,6.1193,6.1193,6.1193,6.1193,6.1193,6.1193,6.1193,6.1193,6.1193,6.1193,6.1193,6.1193,6.1193,6.1193,6.1193,6.1193,6.1193,6.1193,6.1193,6.1193,6.1193,6.1193,6.1193,6.1193,6.1193,6.1193,6.1193,6.1193,6.1193,6.1106,6.1019,6.099,6.0961,6.0845,6.0642,6.0845,6.1092,6.0526,6.0235,6.0496,6.0613,6.0584,6.0642,6.0744,6.0831,6.0802,6.0918,6.1048,6.1135,6.1193,6.1193,6.1193,6.1193,6.1193,6.1193,5.6219,5.6219,5.6219,5.5942,5.5591,5.5566,5.5006,5.4177,5.3951,5.3607,5.3088,5.2945,5.2895,5.2895,5.2895,5.2895,5.2895,5.2895,5.2895,5.2895,5.2895,5.2895,5.2895,5.2895,5.2895,5.2895,5.2895,5.2895,5.2895,5.2895,5.2895,5.2895,5.2895,5.2895,5.2964,5.3042,5.2895,5.2895,5.2929,5.3563,5.4602,5.5565,5.6178,5.6276,5.6423,5.6585,5.6618,5.7178,5.7758,5.8419,5.8765,5.9136,6.0104,6.0333,6.0348,6.0425,6.0833,6.1148,6.1193,6.1193,6.1193,6.1193,6.1193,6.1193,6.1193,6.1193,6.1193,6.1193,6.1193,6.1193,6.1193,6.1193,6.1193,6.1193,6.1193,6.1193,6.1193,6.1193,6.1193,6.1193,6.1193,6.1193,6.1193,6.1193,6.1193,6.1193,6.1193,6.1193,6.1193,6.1193,6.1135,6.1135,6.1135,6.1135,6.1048,6.1019,6.1164,6.0961,6.0787,6.0903,6.1019,6.1077,6.1121,6.1063,6.1092,6.1048,6.1164,6.1193,6.1193,6.1193,6.1193,6.1193,6.1193,6.1193,6.1193,5.6219,5.6219,5.6219,5.6168,5.6093,5.6075,5.5723,5.5107,5.4604,5.4177,5.3457,5.3096,5.2895,5.2895,5.2895,5.2895,5.2895,5.2895,5.2895,5.2895,5.2895,5.2895,5.2895,5.2895,5.2895,5.2895,5.2895,5.2895,5.2895,5.2895,5.2895,5.2895,5.2895,5.2895,5.2895,5.2895,5.2895,5.2895,5.2895,5.3015,5.3247,5.3538,5.3632,5.392,5.4586,5.5227,5.5359,5.5992,5.6828,5.7102,5.7247,5.7327,5.7471,5.7487,5.7487,5.823,5.9508,6.1193,6.1014,6.1148,6.1193,6.1193,6.1193,6.1193,6.1193,6.1193,6.1193,6.1193,6.1193,6.1193,6.1193,6.1193,6.1193,6.1193,6.1193,6.1193,6.1193,6.1193,6.1193,6.1193,6.1193,6.1193,6.1193,6.1193,6.1193,6.1193,6.1193,6.1193,6.1193,6.1193,6.1193,6.1193,6.1193,6.1193,6.1193,6.1193,6.1193,6.1193,6.1193,6.1193,6.1193,6.1193,6.1193,6.1164,6.1193,6.1193,6.1193,6.1193,6.1193,6.1193,6.1193,6.1193,6.1193,6.1193,6.1193,5.6219,5.6219,5.6219,5.6219,5.6219,5.6219,5.5717,5.5006,5.4697,5.4102,5.3356,5.302,5.2895,5.2895,5.2895,5.2895,5.2895,5.2895,5.2895,5.2895,5.2895,5.2895,5.2895,5.2895,5.2895,5.2895,5.2895,5.2895,5.2895,5.2895,5.2895,5.2895,5.2895,5.2895,5.2895,5.2895,5.2895,5.2895,5.2895,5.2895,5.2895,5.2895,5.2895,5.2895,5.3555,5.3801,5.4056,5.4232,5.516,5.5565,5.5861,5.6276,5.6796,5.7038,5.7038,5.715,5.804,5.9105,5.9891,6.0681,6.1058,6.1193,6.1193,6.1193,6.1193,6.1193,6.1193,6.1193,6.1193,6.1193,6.1193,6.1193,6.1193,6.1193,6.1193,6.1193,6.1193,6.1193,6.1193,6.1193,6.1193,6.1193,6.1193,6.1193,6.1193,6.1193,6.1193,6.1193,6.1193,6.1193,6.1193,6.1193,6.1193,6.1193,6.1193,6.1193,6.1193,6.1193,6.1193,6.1193,6.1193,6.1193,6.1193,6.1193,6.1193,6.1193,6.1193,6.1193,6.1193,6.1193,6.1193,6.1193,6.1193,6.1193,6.1193,5.6219,5.6219,5.6219,5.6219,5.6194,5.6068,5.5584,5.4848,5.4496,5.3884,5.3239,5.297,5.2895,5.2895,5.2895,5.2895,5.2895,5.2895,5.2895,5.2895,5.2895,5.2895,5.2895,5.2895,5.2895,5.2895,5.2895,5.2895,5.2895,5.2895,5.2895,5.2895,5.2895,5.2895,5.2895,5.2895,5.2895,5.2895,5.2895,5.2895,5.2895,5.2895,5.2895,5.2895,5.2895,5.2895,5.2895,5.3015,5.3666,5.4165,5.4468,5.4861,5.5499,5.5548,5.5581,5.5729,5.6303,5.7033,5.8183,5.9292,6.059,6.1088,6.1193,6.1193,6.1193,6.1193,6.1193,6.1193,6.1193,6.1193,6.1193,6.1193,6.1193,6.1193,6.1193,6.1193,6.1193,6.1193,6.1193,6.1193,6.1193,6.1193,6.1193,6.1193,6.1193,6.1193,6.1193,6.1193,6.1193,6.1193,6.1193,6.1193,6.1193,6.1193,6.1193,6.1193,6.1193,6.1193,6.1193,6.1193,6.1193,6.1193,6.1193,6.1193,6.1193,6.1193,6.1193,6.1193,6.1193,6.1193,6.1193,6.1193,6.1193,6.1193,6.1193,5.6219,5.6219,5.6219,5.6219,5.615,5.5641,5.5408,5.5107,5.4202,5.3715,5.3439,5.3121,5.2895,5.2895,5.2895,5.2895,5.2895,5.2895,5.2895,5.2895,5.2895,5.2895,5.2895,5.2895,5.2895,5.2895,5.2895,5.2895,5.2895,5.2895,5.2895,5.2895,5.2895,5.2895,5.2895,5.2895,5.2895,5.2895,5.2895,5.2895,5.2895,5.2895,5.2895,5.2895,5.2895,5.2895,5.2895,5.2895,5.2981,5.3316,5.335,5.3367,5.3869,5.3886,5.392,5.4089,5.4686,5.5359,5.627,5.8214,5.9845,6.0757,6.1193,6.1193,6.1193,6.1193,6.1193,6.1193,6.1193,6.1193,6.1193,6.1193,6.1193,6.1193,6.1193,6.1193,6.1193,6.1193,6.1193,6.1193,6.1193,6.1193,6.1193,6.1193,6.1193,6.1193,6.1193,6.1193,6.1193,6.1193,6.1193,6.1193,6.1193,6.1193,6.1193,6.1193,6.1193,6.1193,6.1193,6.1193,6.1193,6.1193,6.1193,6.1193,6.1193,6.1193,6.1193,6.1193,6.1193,6.1193,6.1193,6.1193,6.1193,6.1193,6.1193,5.6219,5.6219,5.6219,5.6219,5.615,5.5616,5.5207,5.4823,5.4059,5.349,5.3213,5.3013,5.2895,5.2895,5.2895,5.2895,5.2895,5.2895,5.2895,5.2895,5.2895,5.2895,5.2895,5.2895,5.2895,5.2895,5.2895,5.2895,5.2895,5.2895,5.2895,5.2895,5.2895,5.2895,5.2895,5.2895,5.2895,5.2895,5.2895,5.2895,5.2895,5.2895,5.2895,5.2895,5.2895,5.2895,5.2895,5.2895,5.2895,5.2895,5.2895,5.2895,5.2895,5.2895,5.2895,5.2895,5.3606,5.4123,5.526,5.7418,5.966,6.0818,6.1193,6.1059,6.0878,6.1103,6.1178,6.1193,6.1103,6.0984,6.1163,6.1178,6.1193,6.1193,6.1193,6.1193,6.1193,6.1193,6.1193,6.1193,6.1193,6.1193,6.1193,6.1193,6.1193,6.1193,6.1193,6.1193,6.1193,6.1193,6.1193,6.1193,6.1193,6.1193,6.1193,6.1193,6.1193,6.1193,6.1193,6.1193,6.1193,6.1193,6.1193,6.1193,6.1193,6.1193,6.1193,6.1193,6.1193,6.1193,6.1193,6.1193,6.1193,6.1193,6.1193,5.5949,5.5942,5.5792,5.5917,5.6093,5.544,5.4956,5.4522,5.3783,5.3264,5.2895,5.2895,5.2895,5.2895,5.2895,5.2895,5.2895,5.2895,5.2895,5.2895,5.2895,5.2895,5.2895,5.2895,5.2895,5.2895,5.2895,5.2895,5.2895,5.2895,5.2895,5.2895,5.2895,5.2895,5.2895,5.2895,5.2895,5.2895,5.2895,5.2895,5.2895,5.2895,5.2895,5.2895,5.2895,5.2895,5.2895,5.2895,5.2895,5.2895,5.2895,5.2895,5.2895,5.2895,5.2895,5.2895,5.3015,5.3435,5.4753,5.6839,5.8796,5.9431,5.9676,5.9737,5.9968,5.9997,5.9524,5.9709,6.0075,6.0605,6.0666,6.0802,6.1133,6.1193,6.1193,6.1193,6.1193,6.1193,6.1193,6.1193,6.1193,6.1193,6.1193,6.1193,6.1193,6.1193,6.1193,6.1193,6.1193,6.1193,6.1193,6.1193,6.1193,6.1193,6.1193,6.1193,6.1193,6.1193,6.1193,6.1193,6.1193,6.1193,6.1193,6.1193,6.1193,6.1193,6.1193,6.1193,6.1193,6.1193,6.1193,6.1193,6.1193,6.1193,6.1193,5.5397,5.534,5.4863,5.5239,5.5924,5.5074,5.4572,5.4371,5.3439,5.2945,5.2895,5.2895,5.2895,5.2895,5.2895,5.2895,5.2895,5.2895,5.2895,5.2895,5.2895,5.2895,5.2895,5.2895,5.2895,5.2895,5.2895,5.2895,5.2895,5.2895,5.2895,5.2895,5.2895,5.2895,5.2895,5.2895,5.2895,5.2895,5.2895,5.2895,5.2895,5.2895,5.2895,5.2895,5.2895,5.2895,5.2895,5.2895,5.2895,5.2895,5.2895,5.2895,5.2895,5.2895,5.2895,5.2895,5.2895,5.2964,5.3238,5.5673,5.6931,5.7626,5.8072,5.7881,5.7439,5.7343,5.7674,5.8198,5.8733,5.9183,5.9617,6.0333,6.0878,6.0938,6.0893,6.1193,6.1193,6.1193,6.1193,6.1193,6.1193,6.1193,6.1193,6.1193,6.1193,6.1193,6.1193,6.1193,6.1193,6.1193,6.1193,6.1193,6.1193,6.1193,6.1193,6.1193,6.1193,6.1193,6.1193,6.1193,6.1193,6.1193,6.1193,6.1193,6.1193,6.1193,6.1193,6.1193,6.1193,6.1193,6.1193,6.1193,6.1193,6.1193,6.1193,5.4366,5.4813,5.4388,5.4574,5.4988,5.4336,5.4027,5.3884,5.3264,5.2895,5.2895,5.2895,5.2895,5.2895,5.2895,5.2895,5.2895,5.2895,5.2895,5.2895,5.2895,5.2895,5.2895,5.2895,5.2895,5.2895,5.2895,5.2895,5.2895,5.2895,5.2895,5.2895,5.2895,5.2895,5.2895,5.2895,5.2895,5.2895,5.2895,5.2895,5.2895,5.2895,5.2895,5.2895,5.2895,5.2895,5.2895,5.2895,5.2895,5.2895,5.2895,5.2895,5.2895,5.2895,5.2895,5.2895,5.292,5.3088,5.3358,5.4646,5.5525,5.6326,5.6839,5.6817,5.6968,5.6989,5.7006,5.7134,5.7929,5.8262,5.8214,6.0029,6.0727,6.0137,6.0198,6.0938,6.1193,6.1193,6.1193,6.1193,6.1193,6.1044,6.0999,6.0394,6.0287,6.047,6.0425,6.0953,6.1133,6.1163,6.1163,6.1193,6.1193,6.1193,6.1193,6.1193,6.1193,6.1193,6.1193,6.1193,6.1193,6.1193,6.1193,6.1193,6.1193,6.1193,6.1193,6.1193,6.1193,6.1193,6.1193,6.1193,6.1193,6.1193,6.1193,5.3445,5.3829,5.3424,5.3509,5.385,5.3753,5.3607,5.3406,5.3046,5.2895,5.2895,5.2895,5.2895,5.2895,5.2895,5.2895,5.2895,5.2895,5.2895,5.2895,5.2895,5.2895,5.2895,5.2895,5.2895,5.2895,5.2895,5.2895,5.2895,5.2895,5.2895,5.2895,5.2895,5.2895,5.2895,5.2895,5.2895,5.2895,5.2895,5.2895,5.2895,5.2895,5.2895,5.2895,5.2895,5.2895,5.2895,5.2895,5.2895,5.2895,5.2895,5.2895,5.2895,5.2895,5.2895,5.2895,5.3138,5.3339,5.3652,5.4047,5.5023,5.581,5.6139,5.604,5.5925,5.5609,5.5474,5.5842,5.7103,5.7044,5.7006,5.9052,5.9457,5.8852,5.9027,5.9737,5.9814,5.9722,6.0045,6.0152,6.044,6.0455,6.0364,5.9737,5.9152,5.9385,5.9601,6.0242,6.0757,6.0621,6.0621,6.0727,6.0652,6.0531,6.0772,6.1193,6.1193,6.1193,6.1118,6.0984,6.1193,6.1193,6.1193,6.1193,6.1193,6.1193,6.1193,6.1193,6.1014,6.1044,6.1193,6.1193,6.1193,6.1193,6.1193,5.2558,5.2502,5.2,5.214,5.2668,5.3266,5.3295,5.2886,5.2843,5.2826,5.2861,5.2809,5.2723,5.2792,5.2826,5.2843,5.2861,5.2861,5.2895,5.2895,5.2895,5.2895,5.2895,5.2895,5.2895,5.2895,5.2895,5.2895,5.2895,5.2895,5.2895,5.2895,5.2895,5.2895,5.2895,5.2895,5.2895,5.2895,5.2895,5.2895,5.2895,5.2895,5.2895,5.2895,5.2895,5.2895,5.2895,5.2895,5.2895,5.2895,5.2895,5.2895,5.2895,5.2895,5.2895,5.3071,5.3439,5.3632,5.4009,5.4454,5.4708,5.5347,5.5117,5.4479,5.426,5.4422,5.4372,5.4551,5.5384,5.5313,5.5527,5.6578,5.7571,5.7372,5.7333,5.7499,5.7515,5.7695,5.8155,5.8514,5.889,5.9012,5.8859,5.8404,5.7992,5.8151,5.8419,5.8874,5.9276,5.9198,5.9323,5.9876,5.9814,5.9707,5.9968,6.0091,6.0455,6.0242,6.0621,6.0651,6.0893,6.1148,6.1193,6.1193,6.1193,6.1059,6.0637,6.0592,6.0683,6.0683,6.0091,6.0863,6.0772,6.1133,6.1193,5.1567,5.1965,5.1572,5.1607,5.2035,5.2269,5.2414,5.2498,5.2273,5.2256,5.2533,5.2238,5.2203,5.2109,5.2387,5.2533,5.2636,5.2757,5.2861,5.2878,5.2809,5.2861,5.2895,5.2895,5.2895,5.2895,5.2895,5.2895,5.2895,5.2895,5.2895,5.2895,5.2895,5.2895,5.2895,5.2895,5.2895,5.2895,5.2895,5.2895,5.2895,5.2895,5.2895,5.2895,5.2895,5.2895,5.2895,5.2895,5.2895,5.2895,5.2895,5.2895,5.2895,5.292,5.2988,5.3439,5.369,5.3984,5.4755,5.5082,5.5282,5.5541,5.5641,5.5157,5.4579,5.4077,5.3901,5.4144,5.4475,5.4765,5.4969,5.5675,5.6127,5.6027,5.6086,5.6238,5.6227,5.6358,5.6812,5.7231,5.7626,5.761,5.7439,5.7118,5.6807,5.6909,5.7102,5.7423,5.7727,5.7631,5.8107,5.8671,5.8435,5.8198,5.8088,5.8167,5.884,5.9307,5.9599,6.0027,6.0425,6.0696,6.1014,6.0893,6.0409,6.0029,5.9707,5.9691,5.957,5.8608,5.8119,5.9385,6.0409,6.0592,6.1014,5.0961,5.1295,5.1119,5.1148,5.1348,5.1365,5.1576,5.1866,5.1813,5.1935,5.2134,5.1925,5.1803,5.1873,5.2064,5.2169,5.2203,5.2308,5.2394,5.2429,5.2636,5.2671,5.2723,5.2826,5.2895,5.2878,5.2878,5.2895,5.2878,5.2878,5.2895,5.2895,5.2895,5.2895,5.2895,5.2895,5.2895,5.2895,5.2895,5.2895,5.2895,5.2895,5.2895,5.2895,5.2895,5.2895,5.2895,5.2895,5.2895,5.2895,5.2895,5.2895,5.2895,5.292,5.2945,5.3389,5.3909,5.4285,5.4881,5.5465,5.5817,5.6093,5.6194,5.5867,5.5257,5.468,5.4303,5.4169,5.4496,5.4783,5.492,5.5014,5.4885,5.473,5.4978,5.526,5.5267,5.5267,5.5631,5.6074,5.6221,5.6221,5.6041,5.5729,5.5333,5.5044,5.4894,5.5027,5.5532,5.5927,5.6682,5.7551,5.7033,5.6498,5.6482,5.665,5.7418,5.8008,5.8167,5.8671,5.9493,5.9508,5.9214,5.9229,5.9276,5.8871,5.8388,5.8293,5.8028,5.7102,5.6682,5.7758,5.8918,5.9599,6.0165,5.0696,5.0713,5.0678,5.0731,5.0696,5.0731,5.0943,5.1201,5.1523,5.1733,5.1751,5.1716,5.1628,5.1576,5.1716,5.1768,5.182,5.1908,5.2012,5.1838,5.2203,5.2342,5.2429,5.2636,5.2585,5.2723,5.2774,5.2636,5.2809,5.2809,5.2792,5.2878,5.2895,5.2895,5.2895,5.2895,5.2895,5.2895,5.2895,5.2895,5.2895,5.2895,5.2895,5.2895,5.2895,5.2895,5.2895,5.2895,5.2895,5.2895,5.2895,5.2895,5.2895,5.2895,5.292,5.3239,5.3884,5.4429,5.4931,5.5516,5.5924,5.61,5.615,5.5949,5.544,5.4881,5.4429,5.4303,5.4565,5.4407,5.4426,5.4342,5.4181,5.3995,5.4014,5.409,5.4013,5.4064,5.4283,5.4643,5.4811,5.4794,5.471,5.4434,5.4249,5.3461,5.335,5.3435,5.3717,5.4384,5.5127,5.6146,5.5565,5.5077,5.5442,5.5696,5.6254,5.6666,5.6796,5.7311,5.8119,5.7786,5.7134,5.7658,5.8198,5.7471,5.6989,5.6893,5.665,5.6041,5.5877,5.6423,5.7231,5.8056,5.9152,5.0678,5.0678,5.0678,5.0678,5.0678,5.0678,5.0749,5.0837,5.0908,5.1113,5.1271,5.1102,5.0996,5.1067,5.1271,5.1359,5.1394,5.1558,5.1768,5.1768,5.1883,5.1935,5.1935,5.2117,5.2134,5.2064,5.2099,5.229,5.2464,5.255,5.2671,5.2861,5.2895,5.2895,5.2895,5.2895,5.2895,5.2895,5.2895,5.2895,5.2895,5.2895,5.2895,5.2895,5.2895,5.2895,5.2895,5.2895,5.2895,5.2895,5.2895,5.2895,5.2895,5.2895,5.3113,5.3482,5.3775,5.4303,5.4856,5.5333,5.5641,5.5867,5.5842,5.5666,5.534,5.4881,5.4597,5.4529,5.4361,5.411,5.3884,5.3715,5.359,5.3364,5.3138,5.2995,5.2895,5.2998,5.3093,5.3265,5.347,5.3487,5.3435,5.3282,5.3015,5.2929,5.2981,5.3033,5.3084,5.3487,5.3606,5.4266,5.3911,5.37,5.4165,5.4552,5.4994,5.531,5.5459,5.6041,5.6693,5.6374,5.6074,5.6747,5.7086,5.6227,5.5631,5.5525,5.521,5.476,5.4593,5.4977,5.5399,5.614,5.7562,5.0678,5.0678,5.0678,5.0678,5.0678,5.0678,5.0678,5.0678,5.0678,5.0802,5.0937,5.0784,5.0678,5.0678,5.0925,5.0989,5.1025,5.1165,5.1225,5.1295,5.1481,5.1534,5.1569,5.1681,5.1838,5.1803,5.182,5.1977,5.2134,5.2352,5.2525,5.2723,5.2774,5.2895,5.2895,5.2895,5.2895,5.2895,5.2895,5.2895,5.2895,5.2895,5.2895,5.2895,5.2895,5.2895,5.2895,5.2895,5.2895,5.2895,5.2895,5.2895,5.2895,5.2895,5.302,5.3289,5.3607,5.3966,5.4536,5.4931,5.5182,5.5333,5.5308,5.5031,5.4931,5.4479,5.4152,5.4059,5.4034,5.3808,5.359,5.3414,5.3364,5.3188,5.3063,5.2945,5.2895,5.2929,5.2998,5.305,5.3127,5.3127,5.3136,5.3118,5.2895,5.2895,5.2895,5.2895,5.2895,5.2895,5.2895,5.2895,5.2895,5.2895,5.3333,5.3495,5.358,5.3852,5.4241,5.4384,5.4794,5.4961,5.5101,5.5383,5.5317,5.4744,5.4266,5.4326,5.4056,5.3666,5.3452,5.3367,5.3886,5.4552,5.5779,5.0678,5.0678,5.0678,5.0678,5.0678,5.0678,5.0678,5.0678,5.0678,5.0678,5.0713,5.0696,5.0678,5.0678,5.0678,5.0678,5.0731,5.0855,5.0784,5.0855,5.1042,5.1113,5.1253,5.1411,5.1471,5.1523,5.1541,5.1611,5.1709,5.2022,5.2283,5.2421,5.2671,5.2895,5.2895,5.2895,5.2895,5.2895,5.2895,5.2895,5.2895,5.2895,5.2895,5.2895,5.2895,5.2895,5.2895,5.2895,5.2895,5.2895,5.2895,5.2895,5.2895,5.2895,5.2895,5.3071,5.3289,5.3565,5.3909,5.4278,5.4479,5.4604,5.4529,5.4429,5.4353,5.4084,5.3758,5.3632,5.3607,5.3532,5.3289,5.3188,5.3138,5.3088,5.297,5.2895,5.2895,5.2895,5.2895,5.2895,5.2895,5.2895,5.2895,5.2895,5.2895,5.2895,5.2895,5.2895,5.2895,5.2895,5.2895,5.2895,5.2895,5.2895,5.2895,5.2947,5.3033,5.311,5.3487,5.3136,5.305,5.3649,5.3835,5.3444,5.3282,5.3427,5.3367,5.3367,5.3033,5.2912,5.2947,5.3015,5.3213,5.3835,5.43,5.0678,5.0678,5.0678,5.0678,5.0678,5.0678,5.0678,5.0678,5.0678,5.0678,5.0678,5.0678,5.0678,5.0678,5.0678,5.0678,5.0678,5.0678,5.0678,5.0749,5.082,5.082,5.0873,5.1031,5.0943,5.0978,5.1067,5.1095,5.1341,5.1709,5.2082,5.2342,5.2688,5.2843,5.2861,5.2861,5.2843,5.2843,5.2878,5.2895,5.2895,5.2895,5.2895,5.2895,5.2895,5.2895,5.2895,5.2895,5.2895,5.2895,5.2895,5.2895,5.2895,5.2895,5.2895,5.2895,5.3096,5.3289,5.3582,5.3758,5.3959,5.4278,5.4152,5.3884,5.3708,5.3464,5.3239,5.3146,5.3138,5.3121,5.2995,5.2995,5.297,5.297,5.2895,5.2895,5.2895,5.2895,5.2895,5.2895,5.2895,5.2895,5.2895,5.2895,5.2895,5.2895,5.2895,5.2895,5.2895,5.2895,5.2895,5.2895,5.2895,5.2895,5.2895,5.2895,5.2947,5.2895,5.2895,5.2895,5.2895,5.2895,5.2895,5.2895,5.2895,5.3042,5.2912,5.2895,5.2895,5.2895,5.2895,5.2947,5.3015,5.3145,5.3632]},{"header":{"parameterUnit":"m.s-1","parameterCategory":1,"la1":31.0,"la2":29.5877,"lo1":-88.7671,"lo2":-86.6584,"dy":0.0162,"dx":0.0185,"nx":115,"ny":88,"refTime":"2024-11-26T12:00:00:Z","depth":0,"parameterNumber":3,"parameterNumberName":"V-component_of_WINDS"},"data":[0.0,0.0,0.0,0.0,0.0,0.0,0.0,0.0,0.0,0.0,0.0,0.0,0.0,0.0,0.0,0.0,0.0,0.0,0.0,0.0,0.0,0.0,0.0,0.0,0.0,0.0,0.0,0.0,0.0,0.0,0.0,0.0,0.0,0.0,0.0,0.0,0.0,0.0,0.0,0.0,0.0,0.0,0.0,0.0,0.0,0.0,0.0,0.0,0.0,0.0,0.0,0.0,0.0,0.0,0.0,0.0,0.0,0.0,0.0,0.0,0.0,0.0,0.0,0.0,0.0,0.0,0.0,0.0,0.0,0.0,0.0,0.0,0.0,0.0,0.0,0.0,0.0,0.0,0.0,0.0,0.0,0.0,0.0,0.0,0.0,0.0,0.0,0.0,0.0,0.0,0.0,0.0,0.0,0.0,0.0,0.0,0.0,0.0,0.0,0.0,0.0,0.0,0.0,0.0,0.0,0.0,0.0,0.0,0.0,0.0,0.0,0.0,0.0,0.0,0.0,0.0,0.0,0.0,0.0,0.0,0.0,0.0,0.0,0.0,0.0,0.0,0.0,0.0,0.0,0.0,0.0,0.0,0.0,0.0,0.0,0.0,0.0,0.0,0.0,0.0,0.0,0.0,0.0,0.0,0.0,0.0,0.0,0.0,0.0,0.0,0.0,0.0,0.0,0.0,0.0,0.0,0.0,0.0,0.0,0.0,0.0,0.0,0.0,0.0,0.0,0.0,0.0,0.0,0.0,0.0,0.0,0.0,0.0,0.0,0.0,0.0,0.0,0.0,0.0,0.0,0.0,0.0,0.0,0.0,0.0,0.0,0.0,0.0,0.0,0.0,0.0,0.0,0.0,0.0,0.0,0.0,0.0,0.0,0.0,0.0,0.0,0.0,0.0,0.0,0.0,0.0,0.0,0.0,0.0,0.0,0.0,0.0,0.0,0.0,0.0,0.0,0.0,0.0,0.0,0.0,0.0,0.0,0.0,0.0,0.0,0.0,0.0,0.0,0.0,0.0,0.0,0.0,0.0,0.0,0.0,0.0,0.0,0.0,0.0,0.0,0.0,0.0,0.0,0.0,0.0,0.0,0.0,0.0,0.0,0.0,0.0,0.0,0.0,0.0,0.0,0.0,0.0,0.0,0.0,0.0,0.0,0.0,0.0,0.0,0.0,0.0,0.0,0.0,0.0,0.0,0.0,0.0,0.0,0.0,0.0,0.0,0.0,0.0,0.0,0.0,0.0,0.0,0.0,0.0,0.0,0.0,0.0,0.0,0.0,0.0,0.0,0.0,0.0,0.0,0.0,0.0,0.0,0.0,0.0,0.0,0.0,0.0,0.0,0.0,0.0,0.0,0.0,0.0,0.0,0.0,0.0,0.0,0.0,0.0,0.0,0.0,0.0,0.0,0.0,0.0,0.0,0.0,0.0,0.0,0.0,0.0,0.0,0.0,0.0,0.0,0.0,0.0,0.0,0.0,0.0,0.0,0.0,0.0,0.0,0.0,0.0,0.0,0.0,0.0,0.0,0.0,0.0,0.0,0.0,0.0,0.0,0.0,0.0,0.0,0.0,0.0,0.0,0.0,0.0,0.0,0.0,0.0,0.0,0.0,0.0,0.0,0.0,0.0,0.0,0.0,0.0,0.0,0.0,0.0,0.0,0.0,0.0,0.0,0.0,0.0,0.0,0.0,0.0,0.0,0.0,0.0,0.0,0.0,0.0,0.0,0.0,0.0,0.0,0.0,0.0,0.0,0.0,0.0,0.0,0.0,0.0,0.0,0.0,0.0,0.0,0.0,0.0,0.0,0.0,0.0,0.0,0.0,0.0,0.0,0.0,0.0,0.0,0.0,0.0,0.0,0.0,0.0,0.0,0.0,0.0,0.0,0.0,0.0,0.0,0.0,0.0,0.0,0.0,0.0,0.0,0.0,0.0,0.0,0.0,0.0,0.0,0.0,0.0,0.0,0.0,0.0,0.0,0.0,0.0,0.0,0.0,0.0,0.0,0.0,0.0,0.0,0.0,0.0,0.0,0.0,0.0,0.0,0.0,0.0,0.0,0.0,0.0,0.0,0.0,0.0,0.0,0.0,0.0,0.0,0.0,0.0,0.0,0.0,0.0,0.0,0.0,0.0,0.0,0.0,0.0,0.0,0.0,0.0,0.0,0.0,0.0,0.0,0.0,0.0,0.0,0.0,0.0,0.0,0.0,0.0,0.0,0.0,0.0,0.0,0.0,0.0,0.0,0.0,0.0,0.0,0.0,0.0,0.0,0.0,0.0,0.0,0.0,0.0,0.0,0.0,0.0,0.0,0.0,0.0,0.0,0.0,0.0,0.0,0.0,0.0,0.0,0.0,0.0,0.0,0.0,0.0,0.0,0.0,0.0,0.0,0.0,0.0,0.0,0.0,0.0,0.0,0.0,0.0,0.0,0.0,0.0,0.0,0.0,0.0,0.0,0.0,0.0,0.0,0.0,0.0,0.0,0.0,0.0,0.0,0.0,0.0,0.0,0.0,0.0,0.0,0.0,0.0,0.0,0.0,0.0,0.0,0.0,0.0,0.0,0.0,0.0,0.0,0.0,0.0,0.0,0.0,0.0,0.0,0.0,0.0,0.0,0.0,0.0,0.0,0.0,0.0,0.0,0.0,0.0,0.0,0.0,0.0,0.0,0.0,0.0,0.0,0.0,0.0,0.0,0.0,0.0,0.0,0.0,0.0,0.0,0.0,0.0,0.0,0.0,0.0,0.0,0.0,0.0,0.0,0.0,0.0,0.0,0.0,0.0,0.0,0.0,0.0,0.0,0.0,0.0,0.0,0.0,0.0,0.0,0.0,0.0,0.0,0.0,0.0,0.0,0.0,0.0,0.0,0.0,0.0,0.0,0.0,0.0,0.0,0.0,0.0,0.0,0.0,0.0,0.0,0.0,0.0,0.0,0.0,0.0,0.0,0.0,0.0,0.0,0.0,0.0,0.0,0.0,0.0,0.0,0.0,0.0,0.0,0.0,0.0,0.0,0.0,0.0,0.0,0.0,0.0,0.0,0.0,0.0,0.0,0.0,0.0,0.0,0.0,0.0,0.0,0.0,0.0,0.0,0.0,0.0,0.0,0.0,0.0,0.0,0.0,0.0,0.0,0.0,0.0,0.0,0.0,0.0,0.0,0.0,0.0,0.0,0.0,0.0,0.0,0.0,0.0,0.0,0.0,0.0,0.0,0.0,0.0,0.0,0.0,0.0,0.0,0.0,0.0,0.0,0.0,0.0,0.0,0.0,0.0,0.0,0.0,0.0,0.0,0.0,0.0,0.0,0.0,0.0,0.0,0.0,0.0,0.0,0.0,0.0,0.0,0.0,0.0,0.0,0.0,0.0,0.0,0.0,0.0,0.0,0.0,0.0,0.0,0.0,0.0,0.0,0.0,0.0,0.0,0.0,0.0,0.0,0.0,0.0,0.0,0.0,0.0,0.0,0.0,0.0,0.0,0.0,0.0,0.0,0.0,0.0,0.0,0.0,0.0,0.0,0.0,0.0,0.0,0.0,0.0,0.0,0.0,0.0,0.0,0.0,0.0,0.0,0.0,0.0,0.0,0.0,0.0,0.0,0.0,0.0,0.0,0.0,0.0,0.0,0.0,0.0,0.0,0.0,0.0,0.0,0.0,0.0,0.0,0.0,0.0,0.0,0.0,0.0,0.0,0.0,0.0,0.0,0.0,0.0,0.0,0.0,0.0,0.0,0.0,0.0,0.0,0.0,0.0,0.0,0.0,0.0,0.0,0.0,0.0,0.0,0.0,0.0,0.0,0.0,0.0,0.0,0.0,0.0,0.0,0.0,0.0,0.0,0.0,0.0,0.0,0.0,0.0,0.0,0.0,0.0,0.0,0.0,0.0,0.0,0.0,0.0,0.0,0.0,0.0,0.0,0.0,0.0,0.0,0.0,0.0,0.0,0.0,0.0,0.0,0.0,0.0,0.0,0.0,0.0,0.0,0.0,0.0,0.0,0.0,0.0,0.0,0.0,0.0,0.0,0.0,0.0,0.0,0.0,0.0,0.0,0.0,0.0,0.0,0.0,0.0,0.0,0.0,0.0,0.0,0.0,0.0,0.0,0.0,0.0,0.0,0.0,0.0,0.0,0.0,0.0,0.0,0.0,0.0,0.0,0.0,0.0,0.0,0.0,0.0,0.0,0.0,0.0,0.0,0.0,0.0,0.0,0.0,0.0,0.0,0.0,0.0,0.0,0.0,0.0,0.0,0.0,0.0,0.0,0.0,0.0,0.0,0.9607,0.0,0.0,0.0,0.0,0.0,0.0,0.0,0.0,0.0,0.0,0.0,0.0,0.0,0.0,0.0,0.0,0.0,0.0,0.0,0.0,0.0,0.0,0.0,0.0,0.0,0.0,0.0,0.0,0.0,0.0,0.0,0.0,0.0,0.0,0.0,0.0,0.0,0.0,0.0,0.0,0.0,0.0,0.0,0.0,0.0,0.0,0.0,0.0,0.0,0.0,0.0,0.0,0.0,0.0,0.0,0.0,0.0,0.0,0.0,0.0,0.0,0.0,0.0,0.0,0.0,0.0,0.0,0.0,0.0,0.0,0.0,0.0,0.0,0.0,0.0,0.0,0.0,0.0,0.0,0.0,0.0,0.0,0.0,0.0,0.0,0.0,0.0,0.0,0.0,0.0,0.0,0.0,0.0,0.0,0.0,0.0,0.0,0.0,0.0,0.0,0.0,0.0,0.0,0.0,0.0,0.0,0.0,0.0,0.0,0.0,0.9607,0.9607,0.9607,0.9607,0.9607,0.0,0.0,0.0,0.0,0.0,0.0,0.0,0.0,0.0,0.0,0.0,0.0,0.0,0.0,0.0,0.0,0.0,0.0,0.0,0.0,0.0,0.0,0.0,0.0,0.0,0.0,0.0,0.0,0.0,0.0,0.0,0.0,0.0,0.0,0.0,0.0,0.0,0.0,0.0,0.0,0.0,0.0,0.0,0.0,0.0,0.0,0.0,0.0,0.0,0.0,0.0,0.0,0.0,0.0,0.0,0.0,0.0,0.0,0.0,0.0,0.0,0.0,0.0,0.0,0.0,0.0,0.0,0.0,0.0,0.0,0.0,0.0,0.0,0.0,0.0,0.0,0.0,0.0,0.0,0.0,0.0,0.0,0.0,0.0,0.0,0.0,0.0,0.0,0.0,0.0,0.0,0.0,0.0,0.0,0.0,0.0,0.0,0.0,0.0,0.0,0.0,0.0,0.0,0.0,0.0,0.0,0.0,0.0,0.0,0.0,0.0,0.0,1.0558,1.0477,1.0384,0.0,0.0,0.0,0.0,0.0,0.0,0.0,0.0,0.0,0.0,0.0,0.0,0.0,0.0,0.0,0.0,0.0,0.0,0.0,0.0,0.0,0.0,0.0,0.0,0.0,0.0,0.0,0.0,0.0,0.0,0.0,0.0,0.0,0.0,0.0,0.0,0.0,0.0,0.0,0.0,0.0,0.0,0.0,0.0,0.0,0.0,0.0,0.0,0.0,0.0,0.0,0.0,0.0,0.0,0.0,0.0,0.0,0.0,0.0,0.0,0.0,0.0,0.0,0.0,0.0,0.0,0.0,0.0,0.0,0.0,0.0,0.0,0.0,0.0,0.0,0.0,0.0,0.0,0.0,0.0,0.0,0.0,0.0,0.0,0.0,0.0,0.0,0.0,0.0,0.0,0.0,0.0,0.0,0.0,0.0,0.0,0.0,0.0,0.0,0.0,0.0,0.0,0.0,0.0,0.0,0.0,0.0,0.0,0.0,0.0,1.1814,1.337,1.3397,0.0,1.2691,0.0,0.0,0.0,0.0,0.0,0.0,0.0,0.0,0.0,0.0,0.0,0.0,0.0,0.0,0.0,0.0,0.0,0.0,0.0,0.0,0.0,0.0,0.0,0.0,0.0,0.0,0.0,0.0,0.0,0.0,0.0,0.0,0.0,0.0,0.0,0.0,0.0,0.0,0.0,0.0,0.0,0.0,0.0,0.0,0.0,0.0,0.0,0.0,0.0,0.0,0.0,0.0,0.0,0.0,0.0,0.0,0.0,0.0,0.0,0.0,0.0,0.0,0.0,0.0,0.0,0.0,0.0,0.0,0.0,0.0,0.0,0.0,0.0,0.0,0.0,0.0,0.0,0.0,0.0,0.0,0.0,0.0,0.0,0.0,0.0,0.0,0.0,0.0,0.0,0.0,0.0,0.0,0.0,0.0,0.0,0.0,0.0,0.0,0.0,0.0,0.0,0.0,0.0,0.0,0.0,0.0,0.0,0.0,0.0,0.0,1.2942,1.331,1.3627,1.3855,0.0,0.0,0.0,0.0,0.0,0.0,0.0,0.0,0.0,0.0,0.0,0.0,0.0,0.0,0.0,0.0,0.0,0.0,0.0,0.0,0.0,0.0,0.0,0.0,0.0,0.0,0.0,0.0,0.0,0.0,0.0,0.0,0.0,0.0,0.0,0.0,0.0,0.0,0.0,0.0,0.0,0.0,0.0,0.0,0.0,0.0,0.0,0.0,0.0,0.0,0.0,0.0,0.0,0.0,0.0,0.0,0.0,0.0,0.0,0.0,0.0,0.0,0.0,0.0,0.0,0.0,0.0,0.0,0.0,0.0,0.0,0.0,0.0,0.0,0.0,0.0,0.0,0.0,0.0,0.0,0.0,0.0,0.0,0.0,0.0,0.0,0.0,0.0,0.0,0.0,0.0,0.0,0.0,0.0,0.0,0.0,0.0,0.0,0.0,0.0,0.0,0.0,0.0,0.0,0.0,0.0,0.0,0.0,0.0,0.0,1.3401,0.0,1.4006,1.4354,1.458,1.4595,0.0,0.0,0.0,0.0,0.0,0.0,0.0,0.0,0.0,0.0,0.0,0.0,0.0,0.0,0.0,0.0,0.0,0.0,0.0,0.0,0.0,0.0,0.0,0.0,0.0,0.0,0.0,0.0,0.0,0.0,0.0,0.0,0.0,0.0,0.0,0.0,0.0,0.0,0.0,0.0,0.0,0.0,0.0,0.0,0.0,0.0,0.0,0.0,0.0,0.0,0.0,0.0,0.0,0.0,0.0,0.0,0.0,0.0,0.0,0.0,0.0,0.0,0.0,0.0,0.0,0.0,0.0,0.0,0.0,0.0,0.0,0.0,0.0,0.0,0.0,0.0,0.0,0.0,0.0,0.0,0.0,0.0,0.0,0.0,0.0,0.0,0.0,0.0,0.0,0.0,0.0,0.0,0.0,0.0,0.0,0.0,0.0,0.0,0.0,0.0,0.0,0.0,0.0,0.0,0.0,0.0,0.0,0.0,0.0,1.5216,1.4804,1.6389,1.646,1.5898,0.0,0.0,0.0,0.0,0.0,0.0,0.0,0.0,0.0,0.0,0.0,0.0,0.0,0.0,0.0,0.0,0.0,0.0,0.0,0.0,0.0,0.0,0.0,0.0,0.0,0.0,0.0,0.0,0.0,0.0,0.0,0.0,0.0,0.0,0.0,0.0,0.0,0.0,0.0,0.0,0.0,0.0,0.0,0.0,0.0,0.0,0.0,0.0,0.0,0.0,0.0,0.0,0.0,0.0,0.0,0.0,0.0,0.0,0.0,0.0,0.0,0.0,0.0,0.0,0.0,0.0,0.0,0.0,0.0,0.0,0.0,0.0,0.0,0.0,0.0,0.0,0.0,0.0,0.0,0.0,0.0,0.0,0.0,0.0,0.0,0.0,0.0,0.0,0.0,0.0,0.0,0.0,0.0,0.0,0.0,0.0,0.0,0.0,0.0,0.0,0.0,0.0,0.0,0.0,0.0,0.0,0.0,0.0,0.0,1.4187,1.4314,1.5912,1.8926,1.701,1.613,0.0,0.0,0.0,0.0,0.0,0.0,0.0,0.0,0.0,0.0,0.0,0.0,0.0,0.0,0.0,0.0,0.0,0.0,0.0,0.0,0.0,0.0,0.0,0.0,0.0,0.0,0.0,0.0,0.0,0.0,0.0,0.0,0.0,0.0,0.0,0.0,0.0,0.0,0.0,0.0,0.0,0.0,0.0,0.0,0.0,0.0,0.0,0.0,0.0,0.0,0.0,0.0,0.0,0.0,0.0,0.0,0.0,0.0,0.0,0.0,0.0,0.0,0.0,0.0,0.0,0.0,0.0,0.0,0.0,0.0,0.0,0.0,0.0,0.0,0.0,0.0,0.0,0.0,0.0,0.0,0.0,0.0,0.0,0.0,0.0,0.0,0.0,0.0,0.0,0.0,0.0,0.0,0.0,0.0,0.0,0.0,0.0,0.0,0.0,0.0,0.0,0.0,0.0,0.0,0.0,0.0,0.0,0.0,0.0,1.3591,0.0,1.7445,0.0,1.7323,1.6281,0.0,0.0,0.0,0.0,0.0,0.0,0.0,0.0,0.0,0.0,0.0,0.0,0.0,0.0,0.0,0.0,0.0,0.0,0.0,0.0,0.0,0.0,0.0,0.0,0.0,0.0,0.0,0.0,0.0,0.0,0.0,0.0,0.0,0.0,0.0,0.0,0.0,0.0,0.0,0.0,0.0,0.0,0.0,0.0,0.0,0.0,0.0,0.0,0.0,0.0,0.0,0.0,0.0,0.0,0.0,0.0,0.0,0.0,0.0,0.0,0.0,0.0,0.0,0.0,0.0,0.0,0.0,0.0,0.0,0.0,0.0,0.0,0.0,0.0,0.0,0.0,0.0,0.0,0.0,0.0,0.0,0.0,0.0,0.0,0.0,0.0,0.0,0.0,0.0,0.0,0.0,0.0,0.0,0.0,0.0,0.0,0.0,0.0,0.0,0.0,0.0,0.0,0.0,0.0,0.0,0.0,0.0,0.0,1.4142,1.649,1.902,1.9171,1.6817,1.7479,1.6359,0.0,0.0,0.0,0.0,0.0,0.0,0.0,0.0,0.0,0.0,0.0,0.0,0.0,0.0,0.0,0.0,0.0,0.0,0.0,0.0,0.0,0.0,0.0,0.0,0.0,0.0,0.0,0.0,0.0,0.0,0.0,0.0,0.0,0.0,0.0,0.0,0.0,0.0,0.0,0.0,0.0,0.0,0.0,0.0,0.0,0.0,0.0,0.0,0.0,0.0,0.0,0.0,0.0,0.0,0.0,0.0,0.0,0.0,0.0,0.0,0.0,0.0,0.0,0.0,0.0,0.0,0.0,0.0,0.0,0.0,0.0,0.0,0.0,0.0,0.0,0.0,0.0,0.0,0.0,0.0,0.0,0.0,0.0,0.0,0.0,0.0,0.0,0.0,0.0,0.0,0.0,0.0,0.0,0.0,0.0,0.0,0.0,0.0,0.0,0.0,0.0,0.0,0.0,0.0,0.0,0.0,0.0,0.0,0.0,1.5822,1.7484,1.883,1.9631,1.7177,1.6106,0.0,0.0,0.0,0.0,0.0,0.0,0.0,0.0,0.0,0.0,0.0,0.0,0.0,0.0,0.0,0.0,0.0,0.0,0.0,0.0,0.0,0.0,0.0,0.0,0.0,0.0,0.0,0.0,0.0,0.0,0.0,0.0,0.0,0.0,0.0,0.0,0.0,0.0,0.0,0.0,0.0,0.0,0.0,0.0,0.0,0.0,0.0,0.0,0.0,0.0,0.0,0.0,0.0,0.0,0.0,0.0,0.0,0.0,0.0,0.0,0.0,0.0,0.0,0.0,0.0,0.0,0.0,0.0,0.0,0.0,0.0,0.0,0.0,0.0,0.0,0.0,0.0,0.0,0.0,0.0,0.0,0.0,0.0,0.0,0.0,0.0,0.0,0.0,0.0,0.0,0.0,0.0,0.0,0.0,0.0,0.0,0.0,0.0,0.0,0.0,0.0,0.0,0.0,0.0,0.0,0.0,0.0,0.0,0.0,1.8273,1.9234,2.0146,2.0947,1.8055,1.6766,1.7319,0.0,0.0,0.0,0.0,0.0,0.0,0.0,0.0,0.0,0.0,0.0,0.0,0.0,0.0,0.0,0.0,0.0,0.0,0.0,0.0,0.0,0.0,0.0,0.0,0.0,0.0,0.0,0.0,0.0,0.0,0.0,0.0,0.0,0.0,0.0,0.0,0.0,0.0,0.0,0.0,0.0,0.0,0.0,0.0,0.0,0.0,0.0,0.0,0.0,0.0,0.0,0.0,0.0,0.0,0.0,0.0,0.0,0.0,0.0,0.0,0.0,0.0,0.0,0.0,0.0,0.0,0.0,0.0,0.0,0.0,0.0,0.0,0.0,0.0,0.0,0.0,0.0,0.0,0.0,0.0,0.0,0.0,0.0,0.0,0.0,0.0,0.0,0.0,0.0,0.0,0.0,0.0,0.0,0.0,0.0,0.0,0.0,0.0,0.0,0.0,0.0,0.0,0.0,0.0,0.0,0.0,0.0,0.0,2.3051,2.3702,2.3064,2.1026,1.9901,1.8181,0.0,0.0,0.0,0.0,0.0,0.0,0.0,0.0,0.0,0.0,0.0,0.0,0.0,0.0,0.0,0.0,0.0,0.0,0.0,0.0,0.0,0.0,0.0,0.0,0.0,0.0,0.0,0.0,0.0,0.0,0.0,0.0,0.0,0.0,0.0,0.0,0.0,0.0,0.0,0.0,0.0,0.0,0.0,0.0,0.0,0.0,0.0,0.0,0.0,0.0,0.0,0.0,0.0,0.0,0.0,0.0,0.0,0.0,0.0,0.0,0.0,0.0,0.0,0.0,0.0,0.0,0.0,0.0,0.0,0.0,0.0,0.0,0.0,0.0,0.0,0.0,0.0,0.0,0.0,0.0,0.0,0.0,0.0,0.0,0.0,0.0,0.0,0.0,0.0,0.0,0.0,0.0,0.0,0.0,0.0,0.0,0.0,0.0,0.0,0.0,0.0,0.0,0.0,0.0,0.0,0.0,0.0,0.0,0.0,2.5051,2.6564,2.6491,2.4665,2.1468,1.937,0.0,0.0,0.0,0.0,0.0,0.0,0.0,0.0,0.0,0.0,0.0,0.0,0.0,0.0,0.0,0.0,0.0,0.0,0.0,0.0,0.0,0.0,0.0,0.0,0.0,0.0,0.0,0.0,0.0,0.0,0.0,0.0,0.0,0.0,0.0,0.0,0.0,0.0,0.0,0.0,0.0,0.0,0.0,0.0,0.0,0.0,0.0,0.0,0.0,0.0,0.0,0.0,0.0,0.0,0.0,0.0,0.0,0.0,0.0,0.0,0.0,0.0,0.0,0.0,0.0,0.0,0.0,0.0,0.0,0.0,0.0,0.0,0.0,0.0,0.0,0.0,0.0,0.0,0.0,0.0,0.0,0.0,0.0,0.0,0.0,0.0,0.0,0.0,0.0,0.0,0.0,0.0,0.0,0.0,0.0,0.0,0.0,0.0,0.0,0.0,0.0,0.0,0.0,0.0,0.0,0.0,0.0,0.0,2.4636,2.7077,2.872,2.9007,2.7854,2.4501,2.1859,0.0,0.0,0.0,0.0,0.0,0.0,0.0,0.0,0.0,0.0,0.0,0.0,0.0,0.0,0.0,0.0,0.0,0.0,0.0,0.0,0.0,0.0,0.0,0.0,0.0,0.0,0.0,0.0,0.0,0.0,0.0,0.0,0.0,0.0,0.0,0.0,0.0,0.0,0.0,0.0,0.0,0.0,0.0,0.0,0.0,0.0,0.0,0.0,0.0,0.0,0.0,0.0,0.0,0.0,0.0,0.0,0.0,0.0,0.0,0.0,0.0,0.0,0.0,0.0,0.0,0.0,0.0,0.0,0.0,0.0,0.0,0.0,0.0,0.0,0.0,0.0,0.0,0.0,0.0,0.0,0.0,0.0,0.0,0.0,0.0,0.0,0.0,0.0,0.0,0.0,0.0,0.0,0.0,0.0,0.0,0.0,0.0,0.0,0.0,0.0,0.0,0.0,0.0,0.0,0.0,0.0,0.0,0.0,2.642,2.8944,3.0377,3.084,3.0302,2.7909,2.4829,0.0,0.0,0.0,0.0,0.0,0.0,0.0,0.0,0.0,0.0,0.0,0.0,0.0,0.0,0.0,0.0,0.0,0.0,0.0,0.0,0.0,0.0,0.0,0.0,0.0,0.0,0.0,0.0,0.0,0.0,0.0,0.0,0.0,0.0,0.0,0.0,0.0,0.0,0.0,0.0,0.0,0.0,0.0,0.0,0.0,0.0,0.0,0.0,0.0,0.0,0.0,0.0,0.0,0.0,0.0,0.0,0.0,0.0,0.0,0.0,0.0,0.0,0.0,0.0,0.0,0.0,0.0,0.0,0.0,0.0,0.0,0.0,0.0,0.0,0.0,0.0,0.0,0.0,0.0,0.0,0.0,0.0,0.0,0.0,0.0,0.0,0.0,0.0,0.0,0.0,0.0,0.0,0.0,0.0,0.0,0.0,0.0,0.0,0.0,0.0,0.0,0.0,0.0,0.0,0.0,0.0,0.0,0.0,2.7778,3.024,3.1622,3.1932,3.1141,2.821,2.5464,0.0,0.0,0.0,0.0,0.0,0.0,0.0,0.0,0.0,0.0,0.0,0.0,0.0,0.0,0.0,0.0,0.0,0.0,0.0,0.0,0.0,0.0,0.0,0.0,0.0,0.0,0.0,0.0,0.0,0.0,0.0,0.0,0.0,0.0,0.0,0.0,0.0,0.0,0.0,0.0,0.0,0.0,0.0,0.0,0.0,0.0,0.0,0.0,1.1588,0.0,0.0,0.0,0.0,0.0,0.0,0.0,0.0,0.0,0.0,0.0,0.0,0.0,0.0,0.0,0.0,0.0,0.0,0.0,0.0,0.0,0.0,0.0,0.0,0.0,0.0,0.0,0.0,0.0,0.0,0.0,0.0,0.0,0.0,0.0,0.0,0.0,0.0,0.0,0.0,0.0,0.0,0.0,0.0,0.0,0.0,0.0,0.0,0.0,0.0,0.0,0.0,0.0,0.0,0.0,0.0,0.0,0.0,0.0,2.9048,3.0994,3.2133,3.2471,3.1947,2.9545,2.6988,0.0,0.0,0.0,0.0,0.0,0.0,0.0,0.0,0.0,0.0,0.0,0.0,0.0,0.0,0.0,0.0,0.0,0.0,0.0,0.0,0.0,0.0,0.0,0.0,0.0,0.0,0.0,0.0,0.0,0.0,0.0,0.0,0.0,0.0,0.0,0.0,0.0,0.0,0.0,0.0,0.0,0.0,0.0,0.0,0.0,0.0,0.0,0.0,0.0,0.0,0.0,0.0,0.0,0.0,0.0,0.0,0.0,0.0,0.0,0.0,0.0,0.0,0.0,0.0,0.0,0.0,0.0,0.0,0.0,0.0,0.0,0.0,0.0,0.0,0.0,0.0,0.0,0.0,0.0,0.0,0.0,0.0,0.0,0.0,0.0,0.0,0.0,0.0,0.0,0.0,0.0,0.0,0.0,0.0,0.0,0.0,0.0,0.0,0.0,0.0,0.0,0.0,0.0,0.0,0.0,0.0,0.0,2.7614,2.9891,3.154,3.2319,3.2684,3.2677,3.0933,2.8566,2.5542,0.0,0.0,0.0,0.0,0.0,0.0,0.0,0.0,0.0,0.0,0.0,0.0,0.0,0.0,0.0,0.0,0.0,0.0,0.0,0.0,0.0,0.0,0.0,0.0,0.0,0.0,0.0,0.0,0.0,0.0,0.0,0.0,0.0,0.0,0.0,0.0,0.0,0.0,0.9886,1.154,0.0,0.0,0.0,0.0,0.0,0.0,0.0,0.0,1.2357,0.0,0.0,0.0,0.0,0.0,0.0,0.0,0.0,0.0,0.0,0.0,0.0,0.0,0.0,0.0,0.0,0.0,0.0,0.0,0.0,0.0,0.0,0.0,0.0,0.0,0.0,0.0,0.0,0.0,0.0,0.0,0.0,0.0,0.0,0.0,0.0,0.0,0.0,0.0,0.0,0.0,0.0,0.0,0.0,0.0,0.0,0.0,0.0,0.0,0.0,0.0,0.0,0.0,0.0,0.0,0.0,2.8297,2.8222,2.9547,3.2388,3.2615,3.2684,3.2657,3.0933,2.8856,2.6415,0.0,0.0,0.0,0.0,0.0,0.0,0.0,0.0,0.0,0.0,0.0,0.0,0.0,0.0,0.0,0.0,0.0,0.0,0.0,0.0,0.0,0.0,0.0,0.0,0.0,0.0,0.0,0.0,0.0,0.0,0.0,0.0,0.0,0.0,0.0,0.0,0.0,0.0,0.0,1.4164,1.4844,0.0,0.0,0.0,0.0,0.0,0.0,0.0,0.0,1.3112,0.0,0.0,0.0,0.0,0.0,0.0,0.0,0.0,0.0,0.0,0.0,0.0,0.0,0.0,0.0,0.0,0.0,0.0,0.0,0.0,0.0,0.0,0.0,0.0,0.0,0.0,0.0,0.0,0.0,0.0,0.0,0.0,0.0,0.0,0.0,0.0,0.0,0.0,0.0,0.0,0.0,0.0,0.0,0.0,0.0,0.0,0.0,0.0,0.0,0.0,0.0,0.0,0.0,0.0,0.0,2.7676,2.9298,3.0899,3.2622,3.2684,3.2684,3.2622,3.025,2.8069,0.0,0.0,0.0,0.0,0.0,0.0,0.0,0.0,0.0,0.0,0.0,0.0,0.0,0.0,0.0,0.0,0.0,0.0,0.0,0.0,0.0,0.0,0.0,0.0,0.0,0.0,0.0,0.0,0.0,0.0,0.0,0.0,0.0,0.0,0.0,0.0,0.0,0.0,0.0,0.0,1.5554,1.6152,1.7199,0.0,0.0,0.0,0.0,0.0,0.0,1.5371,1.4278,0.0,0.0,0.0,0.0,0.0,0.0,0.0,0.0,0.0,0.0,0.0,0.0,0.0,0.0,0.0,0.0,0.0,0.0,0.0,0.0,0.0,0.0,0.0,0.0,0.0,0.0,0.0,0.0,0.0,0.0,0.0,0.0,0.0,0.0,0.0,0.0,0.0,0.0,0.0,0.0,0.0,0.0,0.0,0.0,0.0,0.0,0.0,0.0,0.0,0.0,0.0,0.0,0.0,0.0,0.0,2.6726,2.994,3.194,3.2657,3.2941,3.3062,3.3006,3.0213,2.7911,0.0,0.0,0.0,0.0,0.0,0.0,0.0,0.0,0.0,0.0,0.0,0.0,0.0,0.0,0.0,0.0,0.0,0.0,0.0,0.0,0.0,0.0,0.0,0.0,0.0,0.0,0.0,0.0,0.0,0.0,0.0,0.0,0.0,0.0,0.0,0.0,0.0,0.0,0.0,0.0,0.0,1.7611,1.9284,1.7788,0.0,0.0,0.0,0.0,1.8144,1.724,0.0,0.0,0.0,0.0,0.0,0.0,0.0,0.0,0.0,0.0,0.0,0.0,0.0,0.0,0.0,0.0,0.0,0.0,0.0,0.0,0.0,0.0,0.0,0.0,0.0,0.0,0.0,0.0,0.0,0.0,0.0,0.0,0.0,0.0,0.0,0.0,0.0,0.0,0.0,0.0,0.0,0.0,0.0,0.0,0.0,0.0,0.0,0.0,0.0,0.0,0.0,0.0,0.0,0.0,0.0,0.0,2.7111,2.92,3.1036,3.2652,3.3748,3.4274,3.4266,3.2311,3.0035,0.0,0.0,0.0,0.0,0.0,0.0,0.0,0.0,0.0,0.0,0.0,0.0,0.0,0.0,0.0,0.0,0.0,0.0,0.0,0.0,0.0,0.0,0.0,0.0,0.0,0.0,0.0,0.0,0.0,0.0,0.0,0.0,0.0,0.0,0.0,0.0,0.0,0.0,0.0,0.0,0.0,1.9776,1.9477,1.9374,1.9114,0.0,0.0,1.9521,2.0623,2.0867,0.0,0.0,0.0,0.0,0.0,0.0,0.0,0.0,0.0,0.0,0.0,0.0,0.0,0.0,0.0,0.0,0.0,0.0,0.0,0.0,0.0,0.0,0.0,0.0,0.0,0.0,0.0,0.0,0.0,0.0,0.0,0.0,0.0,0.0,0.0,0.0,0.0,0.0,0.0,0.0,0.0,0.0,0.0,0.0,0.0,0.0,0.0,0.0,0.0,0.0,0.0,0.0,0.0,0.0,0.0,2.4901,2.826,3.1711,3.3902,3.4648,3.4566,3.4817,3.5457,3.1876,2.9232,0.0,0.0,0.0,0.0,0.0,0.0,0.0,0.0,0.0,0.0,0.0,0.0,0.0,0.0,0.0,0.0,0.0,0.0,0.0,0.0,0.0,0.0,0.0,0.0,0.0,0.0,0.0,0.0,0.0,0.0,0.0,0.0,0.0,0.0,0.0,0.0,0.0,0.0,0.0,0.0,0.0,0.0,2.1083,2.0857,0.0,0.0,0.0,2.1602,2.281,0.0,0.0,0.0,0.0,0.0,0.0,0.0,0.0,0.0,0.0,0.0,0.0,0.0,0.0,0.0,0.0,0.0,0.0,0.0,0.0,0.0,0.0,0.0,0.0,0.0,0.0,0.0,0.0,0.0,0.0,0.0,0.0,0.0,0.0,0.0,0.0,0.0,0.0,0.0,0.0,0.0,0.0,0.0,0.0,0.0,0.0,0.0,0.0,0.0,0.0,0.0,0.0,0.0,0.0,0.0,0.0,0.0,2.9515,3.3928,3.6185,3.6185,3.5649,3.5758,3.6518,3.2293,0.0,0.0,0.0,0.0,0.0,0.0,0.0,0.0,0.0,0.0,0.0,0.0,0.0,0.0,0.0,0.0,0.0,0.0,0.0,0.0,0.0,0.0,0.0,0.0,0.0,0.0,0.0,1.0571,0.0,0.0,0.0,0.0,0.0,0.0,0.0,0.0,0.0,0.0,0.0,0.0,0.0,0.0,2.1683,2.2872,2.2899,2.3126,0.0,0.0,2.3786,2.4695,2.4619,2.343,0.0,0.0,0.0,0.0,0.0,0.0,0.0,0.0,0.0,0.0,0.0,0.0,0.0,0.0,0.0,0.0,0.0,0.0,0.0,0.0,0.0,0.0,0.0,0.0,0.0,0.0,0.0,0.0,0.0,0.0,0.0,0.0,0.0,0.0,0.0,0.0,0.0,0.0,0.0,0.0,0.0,0.0,0.0,0.0,0.0,0.0,0.0,0.0,0.0,0.0,0.0,0.0,0.0,0.0,0.0,3.0882,3.4384,3.6226,3.6226,3.718,3.77,3.7743,3.5133,3.237,0.0,0.0,0.0,0.0,0.0,0.0,0.0,0.0,0.0,0.0,0.0,0.0,0.0,0.0,0.0,0.0,0.0,0.0,0.0,0.0,0.0,0.0,0.0,0.0,0.0,0.0,0.0,0.0,0.0,0.0,0.0,0.0,0.0,0.0,0.0,0.0,0.0,0.0,0.0,0.0,0.0,2.3633,2.4355,2.5839,2.6931,0.0,0.0,2.6692,2.6175,2.7008,2.6153,2.135,0.0,0.0,0.0,0.0,0.0,0.0,0.0,0.0,0.0,0.0,0.0,0.0,0.0,0.0,0.0,0.0,0.0,0.0,0.0,0.0,0.0,0.0,0.0,0.0,0.0,0.0,0.0,0.0,0.0,0.0,0.0,0.0,0.0,0.0,0.0,0.0,0.0,0.0,0.0,0.0,0.0,0.0,0.0,0.0,0.0,0.0,0.0,0.0,0.0,0.0,0.0,0.0,0.0,2.9196,3.2042,3.6213,3.8346,3.8333,3.8069,3.8254,3.8986,3.5697,3.2896,0.0,0.0,0.0,0.0,0.0,0.0,0.0,0.0,0.0,0.0,0.0,0.0,0.0,0.0,0.0,0.0,0.0,0.0,0.0,0.0,0.0,0.0,0.0,0.0,0.0,0.0,0.0,0.0,1.3646,1.4153,1.4082,0.0,0.0,0.0,0.0,0.0,0.0,0.0,0.0,0.0,0.0,2.5162,2.6072,2.7439,0.0,0.0,2.8258,2.8314,2.8031,2.7485,2.618,2.3434,2.171,0.0,0.0,0.0,0.0,0.0,0.0,0.0,0.0,0.0,0.0,0.0,0.0,0.0,0.0,0.0,0.0,0.0,0.0,0.0,0.0,0.0,0.0,0.0,0.0,0.0,0.0,0.0,0.0,0.0,0.0,0.0,0.0,0.0,0.0,0.0,0.0,0.0,0.0,0.0,0.0,0.0,0.0,0.0,0.0,0.0,0.0,0.0,0.0,0.0,0.0,0.0,0.0,3.0199,3.3278,3.753,3.971,3.9697,3.8868,3.8829,3.957,3.6518,3.3916,0.0,0.0,0.0,0.0,0.0,0.0,0.0,0.0,0.0,0.0,0.0,0.0,0.0,0.0,0.0,0.0,0.0,0.0,0.0,0.0,0.0,0.0,0.0,0.0,0.0,0.0,0.0,0.0,1.4837,1.4982,1.4583,0.0,0.0,0.0,0.0,0.0,0.0,0.0,0.0,0.0,0.0,2.6969,2.7907,2.8998,2.9583,2.9212,2.9071,2.8984,2.8847,2.7796,2.6411,2.4607,0.0,0.0,0.0,0.0,0.0,0.0,0.0,0.0,0.0,0.0,0.0,0.0,0.0,0.0,0.0,0.0,0.0,0.0,0.0,0.0,0.0,0.0,0.0,0.0,0.0,0.0,0.0,0.0,0.0,0.0,0.0,0.0,0.0,0.0,0.0,0.0,0.0,0.0,0.0,0.0,0.0,0.0,0.0,0.0,0.0,0.0,0.0,0.0,0.0,0.0,0.0,0.0,0.0,3.1345,3.463,3.7977,3.971,3.971,3.9684,3.9658,3.9647,3.8015,3.5819,3.3075,0.0,0.0,0.0,0.0,0.0,0.0,0.0,0.0,0.0,0.0,0.0,0.0,0.0,0.0,0.0,0.0,0.0,0.0,0.0,0.0,0.0,0.0,0.0,0.0,0.0,0.0,1.4928,1.476,1.4472,0.0,0.0,0.0,0.0,0.0,0.0,0.0,0.0,0.0,0.0,2.6967,2.9183,2.9818,3.0739,3.1133,3.0692,2.9534,2.8565,2.8367,2.8186,2.7195,0.0,0.0,0.0,0.0,0.0,0.0,0.0,0.0,0.0,0.0,0.0,0.0,0.0,0.0,0.0,0.0,0.0,0.0,0.0,0.0,0.0,0.0,0.0,0.0,0.0,0.0,0.0,1.9383,1.7465,0.0,0.0,0.0,0.0,0.0,0.0,0.0,0.0,0.0,0.0,0.0,2.6589,2.7696,0.0,0.0,0.0,0.0,0.0,0.0,0.0,0.0,0.0,0.0,0.0,0.0,3.1777,3.4703,3.8002,3.971,3.971,3.971,3.971,3.9672,3.8429,3.573,3.1562,0.0,0.0,0.0,0.0,0.0,0.0,0.0,0.0,0.0,0.0,0.0,0.0,0.0,0.0,0.0,0.0,0.0,0.0,0.0,0.0,0.0,0.0,0.0,0.0,0.0,1.5093,0.0,0.0,0.0,0.0,0.0,0.0,0.0,0.0,0.0,0.0,0.0,2.4096,2.6282,2.8362,2.997,3.0822,3.1422,3.1761,0.0,0.0,0.0,0.0,0.0,0.0,0.0,0.0,0.0,0.0,0.0,0.0,0.0,0.0,2.6631,2.2197,2.0871,2.0664,2.1534,0.0,0.0,0.0,0.0,0.0,0.0,0.0,0.0,0.0,0.0,0.0,0.0,0.0,0.0,0.0,0.0,2.118,0.0,0.0,0.0,0.0,0.0,0.0,0.0,0.0,2.8911,3.0676,3.1048,3.2163,3.1934,0.0,3.0569,2.8277,0.0,0.0,0.0,0.0,0.0,0.0,0.0,0.0,3.2372,3.5381,3.8228,3.971,3.971,3.971,3.971,3.9672,3.8592,3.6307,3.2731,3.0834,2.8483,0.0,0.0,0.0,0.0,0.0,0.0,0.0,0.0,0.0,0.0,0.0,0.0,0.0,0.0,0.0,0.0,0.0,0.0,0.0,0.0,0.0,0.0,0.0,1.5986,0.0,0.0,0.0,0.0,0.0,0.0,0.0,0.0,0.0,2.2481,2.4519,2.6704,2.8507,2.9887,3.0926,3.1526,0.0,0.0,0.0,0.0,0.0,0.0,0.0,2.9138,2.9684,2.8835,2.8103,2.8251,2.9386,3.0134,2.9695,0.0,0.0,2.5722,2.4322,2.4094,2.4937,2.5331,2.5628,2.5947,2.6802,2.7398,0.0,0.0,0.0,0.0,0.0,0.0,0.0,0.0,2.7045,2.6669,0.0,2.4906,0.0,0.0,0.0,0.0,0.0,0.0,0.0,0.0,3.4908,3.6671,3.5734,3.6294,3.6267,3.5757,3.6708,3.5603,3.2483,2.7157,0.0,0.0,0.0,0.0,0.0,0.0,3.3244,3.6697,3.8755,3.9761,3.9748,3.9748,3.9748,3.9672,3.8655,3.7563,3.6421,3.4335,3.1673,2.8423,2.6113,0.0,0.0,0.0,0.0,0.0,0.0,0.0,0.0,0.0,0.0,0.0,0.0,0.0,0.0,0.0,0.0,0.0,0.0,0.0,0.0,1.7249,0.0,0.0,0.0,0.0,0.0,0.0,0.0,0.0,0.0,0.0,2.4921,2.7412,2.9704,3.0608,0.0,0.0,0.0,0.0,3.1891,3.1581,3.1105,3.0856,3.087,3.1471,3.1671,3.096,0.0,0.0,3.1126,3.1905,3.2367,3.1112,3.1988,3.2526,3.1602,2.9698,2.8734,2.9462,2.9037,2.8878,2.9584,3.0503,3.1298,3.504,0.0,0.0,0.0,0.0,3.1949,3.3043,3.4708,3.4331,3.2739,3.0406,2.9728,0.0,0.0,0.0,0.0,0.0,0.0,3.2559,3.4034,3.7015,3.8748,3.9399,4.0173,4.0249,3.9726,3.9637,3.8525,3.6422,3.4429,3.0541,2.5089,0.0,0.0,0.0,0.0,3.5638,3.8201,4.0019,4.0809,4.055,4.0575,4.0282,3.971,3.9575,3.8868,3.76,3.6558,3.4661,3.1783,2.9132,0.0,0.0,0.0,0.0,0.0,0.0,0.0,0.0,0.0,0.0,0.0,0.0,0.0,0.0,0.0,0.0,0.0,0.0,0.0,1.733,1.7868,1.8202,0.0,0.0,0.0,0.0,0.0,0.0,0.0,0.0,0.0,2.9373,3.0201,3.0988,0.0,0.0,3.2126,3.2471,3.2498,3.2698,3.3238,0.0,0.0,0.0,3.2499,3.2264,3.2989,3.3853,3.422,3.3708,3.4196,3.4512,3.4099,3.4368,3.4533,3.4223,3.2752,3.1753,3.2145,3.2118,3.2153,3.2696,3.3126,3.3329,4.0657,3.6721,3.525,3.5395,3.652,3.6442,3.7455,3.9133,3.8479,3.7179,3.5509,3.4753,3.2771,2.9906,2.9242,0.0,0.0,0.0,3.6176,3.7916,3.9469,4.0632,4.1422,4.195,4.2029,4.1722,4.1415,4.0746,3.9805,3.9276,3.643,3.1424,0.0,0.0,3.2176,3.5032,3.7662,3.9985,4.1158,4.1605,4.1421,4.1205,4.0732,4.007,4.007,3.9702,3.8881,3.8202,3.6909,3.4798,3.2254,2.9543,0.0,0.0,0.0,0.0,0.0,0.0,0.0,0.0,0.0,0.0,0.0,1.6305,1.4194,0.0,0.0,0.0,1.7685,1.8928,1.9793,2.0445,0.0,0.0,0.0,0.0,0.0,0.0,0.0,2.8504,3.1161,3.2665,3.2281,3.3231,3.3682,3.2952,3.2851,3.294,3.3209,0.0,3.3466,3.4019,3.4398,3.4625,3.4605,3.4223,3.4217,3.5024,3.5407,3.5578,3.5614,3.579,3.594,3.5961,3.5961,3.5961,3.5961,3.5035,3.4243,3.4217,3.4356,3.4584,3.4832,3.5019,3.5164,4.5332,4.41,4.1132,4.0295,4.0901,4.067,4.0872,4.1265,4.0433,4.0278,4.0617,3.9561,3.8227,3.664,3.5182,0.0,0.0,3.8935,4.0224,4.1543,4.2069,4.2339,4.2364,4.239,4.239,4.239,4.2403,4.251,4.2657,4.219,4.1166,3.9568,3.6779,3.6173,3.769,3.8126,3.9532,4.1931,4.2201,4.2313,4.2287,4.1723,4.1171,4.0594,4.03,4.016,4.007,3.9373,3.8492,3.7361,3.5239,3.2556,2.9383,0.0,0.0,0.0,0.0,0.0,0.0,0.0,0.0,0.0,0.0,0.0,0.0,0.0,0.0,0.0,2.0798,0.0,2.345,2.4231,0.0,0.0,0.0,2.467,2.5119,2.8608,3.0855,3.053,0.0,0.0,0.0,0.0,3.7281,3.4943,3.4464,3.4313,3.4426,3.4357,3.4297,3.4601,3.508,3.5552,3.579,3.6206,3.6515,3.6618,3.6825,3.6804,3.6804,3.6887,3.6908,3.6908,3.6924,3.6908,3.6908,3.6825,3.6644,3.5795,3.5894,3.6126,3.6121,3.6375,3.6618,4.8725,4.8413,4.7635,4.5948,4.3828,4.372,4.4012,4.4393,4.3353,4.2738,4.2419,4.1283,4.0338,3.9609,3.961,3.9903,4.0465,4.1389,4.2123,4.2633,4.3227,4.3605,4.3804,4.402,4.4115,4.4115,4.4089,4.3934,4.361,4.3454,4.2971,4.2136,4.1381,4.0317,3.9023,4.0433,4.1915,4.3401,4.3452,4.3398,4.3172,4.2203,4.1544,4.1183,4.0862,4.0529,4.0121,3.9918,3.9411,3.8517,3.6358,3.4212,3.2185,2.736,0.0,0.0,0.0,0.0,0.0,0.0,0.0,0.0,0.0,2.0921,1.6989,0.0,2.1543,0.0,2.3671,2.4976,2.6411,2.6453,0.0,0.0,2.9508,3.0047,3.0717,3.3352,3.5015,3.469,3.7492,3.9285,3.8678,3.9519,3.9967,3.9311,3.7382,3.6302,3.7069,3.627,3.6133,3.7276,3.7023,3.6849,3.7721,3.7287,3.6873,3.6804,3.711,3.7322,3.7338,3.7632,3.7877,3.7877,3.786,3.7877,3.7889,3.786,3.7794,3.7529,3.7074,3.6639,3.6623,3.6742,3.6825,4.9912,4.9912,4.9912,4.8793,4.7004,4.6409,4.6157,4.6088,4.51,4.4479,4.4172,4.3287,4.2803,4.2679,4.2815,4.305,4.3316,4.386,4.4247,4.4584,4.4899,4.515,4.5271,4.5423,4.5506,4.5492,4.5506,4.5323,4.5049,4.5076,4.4892,4.4539,4.4277,4.348,4.2189,4.2683,4.3389,4.4239,4.4251,4.4054,4.366,4.2801,4.2034,4.1362,4.0806,4.0126,3.9327,3.8948,3.8395,3.7569,3.5869,3.4351,3.3126,2.9252,2.6623,0.0,0.0,0.0,0.0,0.0,0.0,0.0,0.0,0.0,0.0,0.0,2.5017,0.0,2.7511,0.0,3.0425,3.0639,3.1426,3.3257,3.4237,3.4847,3.5062,3.7429,3.8769,3.8009,4.0431,4.1751,4.0711,4.1711,4.243,4.2146,4.0674,3.9567,3.9339,3.8698,3.86,3.951,3.9255,3.9197,4.0188,3.9198,3.8514,3.9044,3.8922,3.8887,3.9444,3.9291,3.9254,3.9774,3.9028,3.842,3.8929,3.8553,3.8208,3.8146,3.7794,3.7467,3.7442,3.7442,3.7442,5.0121,5.0121,5.0121,5.0069,4.9908,4.8704,4.7806,4.7114,4.6194,4.5771,4.5697,4.5222,4.5145,4.5354,4.5103,4.5282,4.5712,4.5957,4.6219,4.6487,4.6527,4.6527,4.6527,4.6501,4.6527,4.6527,4.6527,4.6527,4.6527,4.6527,4.6527,4.6475,4.5949,4.5727,4.5661,4.4643,4.4304,4.4695,4.4721,4.4473,4.4017,4.3363,4.2487,4.1442,4.0475,3.9434,3.8352,3.7687,3.7006,3.6241,3.528,3.4406,3.3614,3.1396,2.9854,0.0,2.7704,0.0,0.0,0.0,0.0,0.0,0.0,0.0,0.0,2.8471,2.9266,3.0624,3.1829,3.3183,3.4837,3.5595,3.6294,3.7117,3.8484,3.9095,3.8564,4.0845,4.2037,4.0766,4.311,4.3944,4.2127,4.3506,4.4565,4.4035,4.3757,4.3116,4.1895,4.1245,4.0992,4.1268,4.163,4.1798,4.1859,4.1142,4.0773,4.1718,4.1142,4.0866,4.1845,4.1171,4.0801,4.1635,4.0306,3.9271,4.0273,3.9533,3.8814,3.8913,3.8904,3.8701,3.8291,3.8353,3.8453,5.1256,5.1282,5.1298,5.1037,5.0603,5.0348,4.9654,4.8621,4.7464,4.6747,4.6332,4.6228,4.6204,4.6246,4.6204,4.6232,4.6316,4.6379,4.6445,4.6527,4.6527,4.6527,4.6527,4.6527,4.6527,4.6527,4.6527,4.6527,4.6527,4.6527,4.6527,4.6487,4.6383,4.633,0.0,0.0,0.0,0.0,4.4721,4.4656,4.4512,4.3532,4.2709,4.2029,4.0503,0.0,3.8364,3.8624,3.8525,3.7964,3.7725,0.0,0.0,0.0,0.0,0.0,0.0,0.0,0.0,0.0,0.0,0.0,3.3576,3.2369,3.042,3.2898,3.4513,3.4235,3.5772,3.7302,3.8554,3.9226,3.9964,4.0808,4.2056,4.219,4.0711,4.3003,4.4378,4.3171,4.4742,4.581,4.5309,4.5735,4.592,4.5714,4.5749,4.5624,4.5244,4.3336,4.2451,4.3384,4.3678,4.3364,4.2336,4.2027,4.1938,4.2122,4.2058,4.1947,4.2217,4.2106,4.1859,4.228,4.1795,4.1428,4.1795,4.1604,4.1284,4.1412,4.138,4.0807,3.8698,3.9094,3.9823,5.204,0.0,5.1727,5.1439,0.0,5.0906,5.0446,4.9886,4.8982,4.8277,4.7768,4.7469,4.7338,4.7324,4.7324,4.7324,4.7324,4.7338,4.7338,4.735,4.7364,4.7324,4.735,4.735,4.7338,4.735,4.7338,4.7338,4.735,4.7338,4.7324,4.7338,4.7048,4.6917,4.6891,4.6328,4.5597,4.4721,4.4721,4.4721,4.4669,4.3872,4.3036,4.2225,0.0,0.0,0.0,0.0,0.0,0.0,0.0,0.0,0.0,0.0,0.0,3.4611,3.3861,3.3786,3.4636,3.5465,3.6622,3.8229,3.8868,3.8066,3.5342,3.7381,3.8855,3.9008,3.96,4.0397,4.1577,4.1726,4.2103,4.3109,4.4066,4.4193,4.3561,4.4763,4.562,4.5139,4.5749,4.6311,4.6311,4.6577,4.6562,4.6361,4.6537,4.6612,4.627,4.5159,4.4568,4.519,4.5297,4.5068,4.4328,4.3575,4.3529,4.3972,4.3669,4.356,4.4111,4.3692,4.3435,4.3925,4.3185,4.2375,4.3044,4.2714,4.2224,4.2247,4.2424,4.2287,4.0874,4.1162,4.1633,5.2668,5.2589,5.2014,5.1769,5.1716,5.1152,5.0958,5.0906,0.0,0.0,0.0,4.871,4.8448,4.8344,4.837,4.8291,4.8213,4.8187,4.8187,4.8187,4.8187,4.8187,4.8187,4.8187,4.8187,4.8187,4.8187,4.8187,4.8187,4.8187,4.8187,4.8161,4.7702,4.7411,4.7281,4.6865,4.6107,4.5074,4.5022,4.497,4.4852,4.4343,4.352,4.2356,4.1664,4.0567,3.9076,3.8672,3.815,3.7474,3.7151,3.6982,3.6961,3.6963,3.7482,3.8567,3.8667,3.9158,4.0187,4.035,4.0839,4.1816,4.2746,4.2473,4.0564,4.124,4.2155,4.3201,4.2823,4.2958,4.4016,4.3806,4.3953,4.4953,4.5558,4.5924,4.5934,4.6301,4.6597,4.6562,4.6582,4.6587,4.6637,4.6988,4.7074,4.6763,4.6988,4.7099,4.6662,4.633,4.6125,4.6325,4.6245,4.621,4.6105,4.5373,4.5135,4.5863,4.5281,4.5114,4.5793,4.5388,4.519,4.5868,4.44,4.3897,4.4481,4.4126,4.3254,4.3191,4.3605,4.3941,4.3964,4.405,4.4042,5.3285,5.3217,5.2631,5.2396,5.2328,5.1742,5.1492,5.1387,5.0383,4.9845,4.9766,4.9688,4.9416,4.8971,4.8971,4.8683,4.8213,4.8187,4.8187,0.0,4.8187,4.8187,4.8187,4.8187,4.8187,4.8187,4.8187,4.8187,4.8187,4.8187,4.8187,4.8187,4.8094,4.7818,4.7333,4.7229,4.6877,4.6278,4.6266,4.6003,4.5478,4.4931,4.4121,4.2931,4.1886,4.0946,4.0188,4.0567,4.0677,4.0338,4.1168,4.1337,4.0683,4.0594,4.0849,4.1211,4.1261,4.1648,4.2489,4.2961,4.3474,4.4077,4.4303,4.4027,4.3313,4.3363,4.37,4.4338,4.47,4.5055,4.5321,4.5955,4.6429,4.6717,4.7214,4.7556,4.7481,4.7541,4.7591,4.7606,4.7682,4.7631,4.7606,4.7716,4.7757,4.7666,4.7616,4.7716,4.7541,4.6863,4.6562,4.6798,4.6612,4.6336,4.6366,4.622,4.6069,4.624,4.6145,4.5963,4.621,4.615,4.6059,4.6266,4.616,4.6356,4.6621,4.6969,4.6705,4.6651,4.6799,4.6977,4.6914,4.7306,4.7297,5.3844,5.3766,5.3217,5.3008,5.2929,5.2354,5.1899,5.157,5.1047,5.0655,5.0383,5.0028,4.9766,4.9546,4.9546,4.9389,4.9128,4.9128,4.9128,4.9128,4.9128,4.9128,4.9128,4.9128,4.9128,4.9102,4.8814,4.8683,4.8657,4.837,4.8187,4.8187,4.8187,4.8041,4.7792,4.7806,4.769,4.7402,4.6801,4.6356,4.6107,4.582,4.5311,4.4447,4.3572,4.2879,4.2317,4.2265,4.2305,4.2528,4.3009,4.3203,4.3001,4.2988,4.3112,4.3378,4.3416,4.3635,4.4099,4.4795,4.5271,4.5508,4.6264,4.6521,4.605,4.5221,4.5056,4.5844,4.6195,4.6502,4.6763,4.7239,4.7541,4.7541,4.7767,4.7908,4.7908,4.7908,4.7908,4.7908,4.7908,4.7908,4.7908,4.8184,4.8234,4.8008,4.7908,4.8008,4.8309,4.7707,4.7239,4.745,4.7315,4.7189,4.7139,4.6913,4.6763,4.6722,4.6737,4.6597,4.6461,4.6662,4.6988,4.6838,4.7189,4.749,4.7541,4.7716,4.7883,4.7933,4.8209,4.835,4.8451,4.8853,4.8855,5.5305,5.5251,5.4719,5.44,5.4209,5.3472,5.2802,5.2232,5.1936,5.1492,5.0958,5.0487,5.0226,5.0106,5.0106,5.0002,4.9912,4.9912,4.9886,4.9912,4.9912,4.9912,4.9912,4.9912,4.9912,4.986,4.9468,4.9285,4.9232,4.8814,4.8579,4.8579,4.8579,4.8527,4.8381,4.8396,4.8344,4.8161,4.7324,4.6815,4.6696,4.6682,4.6395,4.5832,4.5362,4.4891,4.4474,4.4042,4.4016,4.4461,4.4487,4.4588,4.4799,4.4797,4.4946,4.525,4.5388,4.5605,4.5988,4.6534,4.6889,4.693,4.7932,4.846,4.8096,4.7046,4.6542,4.717,4.7341,4.7579,4.7922,4.8251,4.8286,4.8249,4.8422,4.8554,4.8435,4.8457,4.8472,4.8425,4.8378,4.8404,4.8375,4.8661,4.8802,4.8435,4.8284,4.8485,4.8827,4.856,4.8309,4.8234,4.8083,4.7857,4.7867,4.7566,4.7299,4.729,4.729,4.7139,4.6963,4.7415,4.7691,4.7415,4.7716,4.8058,4.8109,4.8259,4.8319,4.8419,4.8727,4.8978,4.9003,4.9254,4.9565,5.8606,5.8569,5.7874,5.7441,5.6753,5.5608,5.4801,5.4121,5.298,5.2082,5.1715,5.1481,5.1214,5.0775,5.0723,5.042,4.9965,4.9912,4.9938,4.9938,4.9912,4.9912,4.9965,4.9938,4.9912,4.9938,4.986,4.9834,4.9834,4.9729,4.9729,4.9755,4.974,4.9453,4.9076,4.9023,4.8762,4.8227,4.8108,4.778,4.7269,4.7229,4.6955,4.6435,4.6356,4.6318,4.6173,4.6186,4.6173,4.6252,4.624,4.6278,4.6288,4.6288,4.6408,4.672,4.7157,4.7774,4.8502,4.8712,4.8677,4.8774,4.8876,4.8994,4.8922,4.8769,4.8406,4.809,4.8193,4.8414,4.8496,4.9135,4.9431,4.9232,4.9761,5.0228,4.9907,5.0175,5.0228,4.992,4.9761,4.9776,4.9442,4.9453,4.9455,4.9289,4.9213,4.9264,4.9389,4.9339,4.9264,4.9163,4.862,4.8058,4.8008,4.7892,4.7817,4.7842,4.7832,4.7732,4.7691,4.7767,4.7867,4.7983,4.8309,4.8677,4.8802,4.9053,4.9339,4.9172,4.9339,4.949,4.9515,4.954,4.959,5.9096,5.9083,5.8814,5.8395,5.7785,5.7267,5.6691,5.6106,5.5588,5.5014,5.4464,5.4451,5.3274,5.1303,5.1282,5.1126,5.0906,5.0906,5.089,5.0917,5.089,5.089,5.089,5.0906,5.0906,5.0864,5.0592,5.0435,5.0383,5.0054,4.9912,4.9912,4.9912,4.9782,4.9557,4.9572,4.9442,4.9232,4.9206,4.9087,4.8785,4.8172,4.7728,4.7481,4.7153,4.6982,4.6929,4.6696,4.6644,4.6944,4.6955,4.731,4.8004,4.803,4.8233,4.8622,4.8703,4.8849,4.9192,4.9384,4.9481,4.9481,4.9945,5.0182,4.9969,5.011,5.0016,4.9588,4.9365,4.9366,4.9714,5.0054,5.0208,5.0148,5.0381,5.0525,5.0439,5.0534,5.055,5.0423,5.0407,5.0359,5.02,5.0008,4.9815,4.9654,4.959,4.9606,4.959,4.959,4.959,4.954,4.9163,4.8946,4.8862,4.8626,4.8476,4.8426,4.8426,4.8375,4.8083,4.8586,4.8812,4.8485,4.8903,4.9204,4.928,4.938,4.959,4.959,4.959,4.959,4.959,4.959,4.959,6.0173,6.0217,6.0188,5.993,5.9499,5.9152,5.8661,5.8063,5.7734,5.7188,5.6681,5.6653,5.5398,5.3312,5.2803,5.2654,5.2627,5.2627,5.2627,5.2654,5.2627,5.2669,5.2654,5.2654,5.2627,5.2512,5.1933,5.138,5.1031,5.0603,5.0383,5.0368,5.0383,5.0304,5.0174,5.0148,5.0069,4.9912,4.9912,4.9912,4.9782,4.9102,4.8657,4.8631,4.8236,4.8027,4.7986,4.7623,4.7597,4.8001,4.8012,4.8393,4.9232,4.9311,4.9572,5.0054,4.9935,4.9849,5.0005,5.0162,5.0286,5.0353,5.0903,5.1136,5.0994,5.1104,5.1094,5.0869,5.0528,5.0461,5.067,5.081,5.0826,5.0772,5.082,5.0842,5.0747,5.082,5.0842,5.0772,5.0741,5.0683,5.0588,5.0375,5.0152,4.996,4.9815,4.9719,4.9703,4.9654,4.959,4.959,4.967,4.9661,4.9597,4.928,4.9053,4.9028,4.9028,4.8878,4.8435,4.9188,4.954,4.9063,4.9414,4.954,4.949,4.9565,4.9606,4.959,4.9606,4.9622,4.959,4.959,4.959,6.2904,6.2861,6.289,6.2744,6.2773,6.1466,6.0612,6.0017,5.8823,5.7911,5.7482,5.7424,5.7231,5.6897,5.5855,5.5221,5.5205,5.5088,5.5087,5.5114,5.5159,5.5192,5.5223,5.5223,5.5148,5.4664,5.379,5.2773,5.1715,5.157,5.1533,5.1507,5.1439,5.123,5.0827,5.0749,5.0472,5.008,5.0017,4.9965,4.9938,4.9886,4.9834,4.9834,4.9782,4.9636,4.9703,4.9729,4.9688,4.974,4.9662,4.9766,4.986,4.9886,5.0159,5.0655,5.076,5.0938,5.133,5.144,5.1476,5.1507,5.1581,5.1601,5.1654,5.1685,5.1685,5.1586,5.1575,5.1439,5.1271,5.1454,5.145,5.1213,5.1424,5.145,5.1172,5.1506,5.1387,5.1193,5.1099,5.0962,5.0667,5.0588,5.0541,5.0455,5.0264,5.0081,5.0024,4.984,4.967,4.9719,4.9889,4.996,4.9687,4.9586,4.957,4.9455,4.9405,4.948,4.9556,4.9565,4.9556,4.954,4.9565,4.959,4.959,4.9606,4.9663,4.967,4.9735,4.9735,4.9847,4.967,4.9703,6.3108,6.3108,6.3108,6.3108,6.305,6.257,6.2232,6.201,6.1586,6.0955,6.0442,6.0384,6.0135,5.9724,5.9256,5.8148,5.6671,5.6229,5.6229,5.6582,5.661,5.6413,5.6061,5.6046,5.5306,5.4348,5.4531,5.4259,5.3443,5.3025,5.2605,5.2151,5.1795,5.1507,5.1335,5.1309,5.1178,5.1037,5.0995,5.0995,5.0958,5.0969,5.0995,5.0943,5.0263,4.9912,4.9912,4.9912,4.9912,4.9912,4.9912,5.0095,5.0446,5.0786,5.1073,5.1272,5.1324,5.1403,5.1596,5.1962,5.2171,5.2197,5.2537,5.272,5.2746,5.2762,5.2762,5.2746,5.2746,5.2666,5.254,5.2343,5.2124,5.2097,5.2431,5.2672,5.2618,5.2682,5.2568,5.2065,5.1695,5.1283,5.1077,5.0931,5.0852,5.062,5.0311,5.0232,5.0327,5.0136,4.9976,5.0174,5.0343,5.0295,4.9944,4.9937,4.9863,4.967,4.9565,4.9581,4.9606,4.967,4.9678,4.9726,4.9703,4.9719,4.9767,4.9879,4.9905,4.9928,4.9992,5.0088,5.0264,5.0104,5.0152,6.3108,6.3108,6.3108,6.3108,6.3108,6.3108,6.3108,6.3108,6.3108,6.2824,6.2465,6.2435,6.2165,6.1762,6.1523,6.0712,5.9155,5.8333,5.8131,5.8519,5.8519,5.8303,5.7987,5.793,5.7235,5.6177,5.6341,5.6019,5.4792,5.427,5.3523,5.2538,5.2067,5.1779,5.1648,5.1596,5.1596,5.1596,5.1596,5.1596,5.1596,5.1596,5.1596,5.1492,5.0854,5.0446,5.0446,5.0446,5.0461,5.0461,5.0446,5.0644,5.1047,5.1586,5.1884,5.1884,5.2093,5.2171,5.2197,5.2563,5.2798,5.2798,5.3138,5.3416,5.3416,5.3416,5.3416,5.3416,5.3416,5.3416,5.3373,5.3148,5.2981,5.2877,5.3138,5.34,5.3416,5.3373,5.3191,5.2835,5.2469,5.2045,5.1636,5.1589,5.139,5.0988,5.0646,5.055,5.0677,5.0503,5.0327,5.0541,5.0667,5.0582,5.0407,5.0359,5.0056,4.9815,4.9815,4.9767,4.9783,4.9815,4.9879,4.9895,4.9912,4.9928,5.0008,5.0136,5.0216,5.0264,5.0327,5.0397,5.0493,5.0541,5.0541,6.3108,6.3108,6.3108,6.3108,6.3108,6.3108,6.3108,6.3108,6.3108,6.3078,6.2988,6.3048,6.2958,6.2868,6.2331,6.2335,6.2297,6.129,6.0858,6.0931,6.0958,6.0928,6.0781,6.0725,6.0607,6.0261,5.9565,5.7796,5.5632,5.534,5.4439,5.2886,5.2485,5.2145,5.1648,5.1648,5.1596,5.1596,5.1596,5.1596,5.1596,5.1596,5.1596,5.1596,5.1492,5.1465,5.1492,5.1518,5.1439,5.1492,5.1492,5.157,5.1675,5.2171,5.2511,5.2589,5.3008,5.3295,5.3321,5.3347,5.34,5.3426,5.3452,5.3625,5.3635,5.3583,5.3583,5.3609,5.3583,5.3504,5.3635,5.3896,5.3922,5.3504,5.353,5.3609,5.3573,5.3468,5.3416,5.339,5.3285,5.3112,5.2652,5.2359,5.2113,5.1658,5.124,5.101,5.1057,5.082,5.0636,5.0715,5.0905,5.0978,5.0899,5.0788,5.0343,4.9992,5.0072,5.0104,5.0152,5.0184,5.028,5.0286,5.027,5.0311,5.0327,5.0455,5.0566,5.063,5.0677,5.0747,5.0826,5.0889,5.081,6.3108,6.3108,6.3108,6.3108,6.3108,6.3108,6.3108,6.3108,6.3108,6.3108,6.3108,6.3108,6.3108,6.3078,6.2854,6.2884,6.3033,6.2644,6.2465,6.2435,6.2435,6.2181,6.1852,6.1792,6.1539,6.0953,5.9811,5.8571,5.7426,5.6854,5.5621,5.3914,5.2909,5.2448,5.2223,5.1831,5.1596,5.1596,5.1596,5.1596,5.1596,5.1596,5.1596,5.1596,5.1596,5.1596,5.1596,5.1596,5.1596,5.1596,5.1596,5.1779,5.2223,5.2772,5.3128,5.3138,5.3285,5.3416,5.3468,5.3739,5.3949,5.4027,5.4314,5.455,5.4576,5.4524,5.4524,5.4524,5.4576,5.4576,5.4602,5.4707,5.455,5.4043,5.4314,5.4497,5.4435,5.4184,5.3991,5.3896,5.3635,5.3321,5.3086,5.2851,5.2511,5.2218,5.1626,5.1209,5.134,5.1177,5.1063,5.1251,5.1361,5.1314,5.1167,5.1057,5.0804,5.0487,5.0455,5.0455,5.0487,5.0614,5.0667,5.0699,5.0683,5.0683,5.0725,5.0788,5.0915,5.1041,5.112,5.1173,5.1267,5.1272,5.1271,6.3108,6.3108,6.3108,6.3108,6.3108,6.3108,6.3108,6.3108,6.3108,6.3108,6.3108,6.3108,6.3108,6.3108,6.3108,6.3108,6.3108,6.3108,6.3108,6.3108,6.3108,6.2868,6.2495,6.2465,6.2285,6.1813,6.1051,6.0164,5.9239,5.8761,5.7398,5.5179,5.423,5.3493,5.2905,5.2475,5.2171,5.2004,5.1936,5.1831,5.1648,5.1596,5.1701,5.1884,5.1936,5.204,5.2239,5.225,5.204,5.1769,5.1821,5.2239,5.2798,5.3373,5.3687,5.3739,5.3922,5.4069,5.4096,5.4367,5.455,5.4628,5.4889,5.5072,5.5099,5.5099,5.5099,5.5099,5.5072,5.5099,5.5072,5.5099,5.4916,5.4602,5.4837,5.5072,5.5046,5.4785,5.455,5.4471,5.4262,5.3991,5.3677,5.3426,5.3034,5.2793,5.2153,5.1652,5.1789,5.1565,5.1549,5.1534,5.1534,5.1466,5.1356,5.1277,5.1214,5.1041,5.0883,5.0836,5.0804,5.101,5.1126,5.1126,5.1126,5.1157,5.1173,5.1189,5.1283,5.1393,5.1518,5.1481,5.1507,5.1826,5.1909,6.3108,6.3108,6.3108,6.3108,6.3108,6.3108,6.3108,6.3108,6.3108,6.3108,6.3108,6.3108,6.3108,6.3108,6.3108,6.3108,6.3108,6.3108,6.3108,6.3108,6.3108,6.3048,6.2988,6.2988,6.2928,6.2899,6.2842,6.2174,6.0796,6.0678,5.943,5.6421,5.5909,5.5216,5.3727,5.34,5.3024,5.2616,5.2537,5.2276,5.1858,5.1805,5.2014,5.2527,5.2563,5.2772,5.3138,5.3191,5.2772,5.1962,5.237,5.2929,5.3426,5.3949,5.4262,5.4288,5.4785,5.4916,5.5046,5.4968,5.502,5.502,5.5046,5.5099,5.5099,5.5099,5.5099,5.5099,5.5099,5.5099,5.5099,5.5099,5.5072,5.5072,5.5072,5.5099,5.5099,5.5072,5.4994,5.502,5.5046,5.4889,5.4314,5.4158,5.3844,5.3478,5.2897,5.2558,5.227,5.1977,5.1711,5.1622,5.1622,5.1565,5.1466,5.145,5.1377,5.1314,5.1204,5.1167,5.112,5.1309,5.1424,5.144,5.1455,5.1518,5.1534,5.1487,5.1617,5.1779,5.1774,5.1675,5.191,5.2354,5.2511,6.3108,6.3108,6.3108,6.3108,6.3108,6.3108,6.3108,6.3108,6.3108,6.3108,6.3108,6.3108,6.3108,6.3108,6.3108,6.3108,6.3108,6.3108,6.3108,6.3108,6.3108,6.3108,6.3108,6.3108,6.3108,6.3108,6.3079,6.2395,6.1167,6.1211,5.969,5.6949,5.6561,5.5553,5.4161,5.3667,5.3347,5.3191,5.3164,5.3086,5.2929,5.2877,5.2981,5.3112,5.3164,5.3243,5.3416,5.3416,5.3295,5.305,5.3452,5.3818,5.4027,5.4524,5.4811,5.4837,5.4968,5.5099,5.5099,5.5099,5.5099,5.5099,5.5099,5.5099,5.5099,5.5099,5.5099,5.5099,5.5099,5.5099,5.5099,5.5099,5.5099,5.5099,5.5099,5.5099,5.5099,5.5099,5.5099,5.5099,5.5099,5.4994,5.4811,5.4497,5.4193,5.3949,5.353,5.3034,5.2772,5.2485,5.2197,5.1769,5.1638,5.1622,5.158,5.158,5.1565,5.1549,5.1487,5.1455,5.145,5.1487,5.1549,5.1565,5.1534,5.1565,5.1607,5.1591,5.1831,5.2145,5.225,5.2302,5.272,5.3138,5.3138,6.3333,6.3108,6.3108,6.3108,6.3108,6.3108,6.3108,6.3108,6.3108,6.3108,6.3108,6.3108,6.3108,6.3108,6.3108,6.3108,6.3108,6.3108,6.3108,6.3108,6.3108,6.3108,6.3108,6.3108,6.3108,6.3108,6.3108,6.2687,6.2087,6.1954,6.0731,5.9039,5.7842,5.6741,5.5523,5.4535,5.3975,5.3792,5.3739,5.3661,5.3426,5.3416,5.3556,5.3661,5.3739,5.3818,5.4053,5.4131,5.4027,5.387,5.4053,5.4314,5.4576,5.4889,5.5099,5.5099,5.5099,5.5099,5.5099,5.5099,5.5099,5.5099,5.5099,5.5099,5.5099,5.5099,5.5099,5.5099,5.5099,5.5099,5.5099,5.5099,5.5099,5.5099,5.5099,5.5099,5.5099,5.5099,5.5099,5.5099,5.5099,5.5099,5.5099,5.4759,5.4628,5.4471,5.4105,5.3703,5.3364,5.3034,5.2642,5.2161,5.1899,5.1936,5.1753,5.1675,5.1622,5.1622,5.1727,5.1701,5.1675,5.1675,5.1622,5.1648,5.1622,5.1701,5.1858,5.204,5.2328,5.2616,5.2746,5.2981,5.3321,5.3739,5.3739,6.3782,6.3273,6.3227,6.3197,6.3227,6.3138,6.3108,6.3108,6.3108,6.3108,6.3108,6.3108,6.3108,6.3108,6.3108,6.3108,6.3108,6.3108,6.3108,6.3108,6.3108,6.3108,6.3108,6.3108,6.3108,6.3108,6.3108,6.3064,6.2861,6.2963,6.2292,6.0793,5.9655,5.8584,5.7213,5.5998,5.5099,5.4679,5.4387,5.4148,5.3844,5.3792,5.3975,5.4236,5.4314,5.4524,5.4837,5.4968,5.4811,5.4314,5.4314,5.4576,5.502,5.5099,5.5099,5.5099,5.5099,5.5099,5.5099,5.5099,5.5099,5.5099,5.5099,5.5099,5.5099,5.5099,5.5099,5.5099,5.5099,5.5099,5.5099,5.5099,5.5099,5.5099,5.5099,5.5099,5.5099,5.5099,5.5099,5.5099,5.5099,5.5099,5.5099,5.5099,5.5072,5.4837,5.4524,5.421,5.3896,5.3609,5.306,5.2433,5.2328,5.2328,5.2067,5.1795,5.1701,5.1675,5.1858,5.191,5.1858,5.1805,5.1727,5.1727,5.191,5.2197,5.2537,5.272,5.2903,5.3164,5.34,5.3504,5.3661,5.4131,5.4314,6.471,6.4545,6.4022,6.3797,6.3722,6.3303,6.3108,6.3108,6.3108,6.3108,6.3108,6.3108,6.3108,6.3108,6.3108,6.3108,6.3108,6.3108,6.3108,6.3108,6.3108,6.3108,6.3108,6.3108,6.3108,6.3108,6.3108,6.3108,6.3108,6.3007,6.2453,6.1271,6.0746,6.0003,5.8659,5.7386,5.6628,5.6315,5.5515,5.5,5.4829,5.476,5.478,5.488,5.4863,5.4942,5.5046,5.5099,5.502,5.4925,5.4889,5.4916,5.5046,5.5099,5.5099,5.5099,5.5099,5.5099,5.5099,5.5099,5.5099,5.5099,5.5099,5.5099,5.5099,5.5099,5.5099,5.5099,5.5099,5.5099,5.5099,5.5099,5.5099,5.5099,5.5099,5.5099,5.5099,5.5099,5.5099,5.5099,5.5099,5.5099,5.5099,5.5099,5.5099,5.5072,5.4916,5.468,5.4419,5.4158,5.3609,5.2981,5.2955,5.2955,5.2563,5.2318,5.2197,5.2145,5.2223,5.2302,5.225,5.2145,5.2145,5.2197,5.2302,5.2668,5.3086,5.3243,5.3373,5.3713,5.4053,5.4184,5.4341,5.469,5.4768,6.5308,6.4964,6.462,6.4306,6.3977,6.3647,6.3363,6.3138,6.3108,6.3108,6.3108,6.3108,6.3108,6.3108,6.3108,6.3108,6.3108,6.3108,6.3108,6.3108,6.3108,6.3108,6.3108,6.3108,6.3108,6.3108,6.3108,6.3108,6.3108,6.3079,6.2774,6.2013,6.145,6.0761,5.9957,5.8705,5.8119,5.7949,5.737,5.6704,5.6144,5.6039,5.5604,5.5232,5.5099,5.5099,5.5099,5.5099,5.5099,5.5099,5.5099,5.5099,5.5099,5.5099,5.5099,5.5099,5.5099,5.5099,5.5099,5.5099,5.5099,5.5099,5.5099,5.5099,5.5099,5.5099,5.5099,5.5099,5.5099,5.5099,5.5099,5.5099,5.5099,5.5099,5.5099,5.5099,5.5099,5.5099,5.5099,5.5099,5.5099,5.5099,5.5099,5.5099,5.5099,5.5072,5.5072,5.4863,5.4889,5.4602,5.4236,5.3818,5.3739,5.3583,5.3138,5.2903,5.2851,5.2798,5.2851,5.2903,5.2903,5.2772,5.2642,5.2746,5.2903,5.3217,5.3583,5.3713,5.3949,5.4367,5.468,5.4821,5.4899,5.4899,5.4968,6.5817,6.5308,6.5203,6.4829,6.4336,6.4216,6.3797,6.3303,6.3243,6.3257,6.3108,6.3108,6.3108,6.3108,6.3108,6.3108,6.3108,6.3108,6.3108,6.3108,6.3108,6.3108,6.3108,6.3108,6.3108,6.3108,6.3108,6.3108,6.3108,6.3108,6.3021,6.2862,6.2057,6.1554,6.1137,6.0141,5.939,5.9344,5.8893,5.8329,5.7578,5.7386,5.6866,5.6291,5.566,5.5594,5.5521,5.5306,5.5099,5.5099,5.5099,5.5099,5.5099,5.5099,5.5099,5.5099,5.5099,5.5099,5.5099,5.5099,5.5099,5.5099,5.5099,5.5099,5.5099,5.5099,5.5099,5.5099,5.5099,5.5099,5.5099,5.5099,5.5099,5.5099,5.5099,5.5099,5.5099,5.5099,5.5099,5.5099,5.5099,5.5099,5.5099,5.5099,5.5099,5.5099,5.5099,5.5099,5.5099,5.4994,5.4576,5.4367,5.4262,5.4079,5.3661,5.3739,5.3661,5.3321,5.34,5.3504,5.3504,5.3426,5.3347,5.34,5.3609,5.387,5.4105,5.4314,5.4602,5.502,5.5072,5.5004,5.502,5.5072,5.5099,6.6759,6.661,6.6056,6.5757,6.5592,6.5099,6.4441,6.3917,6.3797,6.3542,6.3138,6.3108,6.3108,6.3108,6.3108,6.3108,6.3108,6.3108,6.3108,6.3108,6.3108,6.3108,6.3108,6.3108,6.3108,6.3108,6.3108,6.3108,6.3108,6.3108,6.3108,6.305,6.2803,6.2643,6.2248,6.1524,6.0776,6.0611,5.9974,5.9282,5.8893,5.858,5.8454,5.7929,5.7178,5.6817,5.6503,5.5726,5.5099,5.5099,5.5099,5.5115,5.5099,5.5099,5.5099,5.5099,5.5099,5.5099,5.5099,5.5099,5.5099,5.5099,5.5099,5.5099,5.5099,5.5099,5.5099,5.5099,5.5099,5.5099,5.5099,5.5099,5.5099,5.5099,5.5099,5.5099,5.5099,5.5099,5.5099,5.5099,5.5099,5.5099,5.5099,5.5099,5.5099,5.5099,5.5099,5.5099,5.5099,5.502,5.4811,5.4707,5.4654,5.4445,5.4184,5.4471,5.4524,5.3896,5.3818,5.4053,5.4079,5.4079,5.4079,5.4079,5.4158,5.4341,5.4559,5.4785,5.4916,5.5072,5.5099,5.5099,5.5099,5.5099,5.5099,6.6999,6.6954,6.664,6.6295,6.5981,6.5667,6.4919,6.4066,6.3977,6.3662,6.3257,6.3108,6.3108,6.3108,6.3108,6.3108,6.3108,6.3108,6.3108,6.3108,6.3108,6.3108,6.3108,6.3108,6.3108,6.3108,6.3108,6.3108,6.3108,6.3108,6.3108,6.3108,6.3108,6.3108,6.3021,6.2468,6.2131,6.188,6.1406,6.0732,6.0095,5.9591,5.9173,5.8909,5.8596,5.8171,5.8024,5.7658,5.6817,5.634,5.6144,5.5743,5.5372,5.5156,5.5149,5.5172,5.5132,5.5099,5.5099,5.5099,5.5099,5.5099,5.5099,5.5099,5.5099,5.5099,5.5099,5.5099,5.5099,5.5099,5.5099,5.5099,5.5099,5.5099,5.5099,5.5099,5.5099,5.5099,5.5099,5.5099,5.5099,5.5099,5.5099,5.5099,5.5099,5.5099,5.5099,5.5099,5.5099,5.502,5.4942,5.4916,5.4889,5.4785,5.4602,5.4785,5.4977,5.4497,5.4236,5.4471,5.4576,5.455,5.4602,5.4664,5.4742,5.4716,5.4821,5.4968,5.5046,5.5099,5.5099,5.5099,5.5099,5.5099,5.5099,6.6999,6.6999,6.6999,6.667,6.6251,6.6221,6.5518,6.453,6.4261,6.3887,6.3303,6.3168,6.3108,6.3108,6.3108,6.3108,6.3108,6.3108,6.3108,6.3108,6.3108,6.3108,6.3108,6.3108,6.3108,6.3108,6.3108,6.3108,6.3108,6.3108,6.3108,6.3108,6.3108,6.3108,6.305,6.2933,6.3108,6.3108,6.3079,6.2438,6.148,6.0505,5.9883,5.9791,5.9652,5.9498,5.9467,5.8983,5.836,5.7754,5.7402,5.7076,5.617,5.5924,5.5908,5.5825,5.5438,5.5149,5.5099,5.5099,5.5099,5.5099,5.5099,5.5099,5.5099,5.5099,5.5099,5.5099,5.5099,5.5099,5.5099,5.5099,5.5099,5.5099,5.5099,5.5099,5.5099,5.5099,5.5099,5.5099,5.5099,5.5099,5.5099,5.5099,5.5099,5.5099,5.5099,5.5099,5.5099,5.5099,5.5046,5.5046,5.5046,5.5046,5.4968,5.4942,5.5072,5.4889,5.4733,5.4837,5.4942,5.4994,5.5004,5.4951,5.4977,5.4968,5.5072,5.5099,5.5099,5.5099,5.5099,5.5099,5.5099,5.5099,5.5099,6.6999,6.6999,6.6999,6.6939,6.6849,6.6864,6.6445,6.5637,6.5039,6.453,6.3707,6.3347,6.3108,6.3108,6.3108,6.3108,6.3108,6.3108,6.3108,6.3108,6.3108,6.3108,6.3108,6.3108,6.3108,6.3108,6.3108,6.3108,6.3108,6.3108,6.3108,6.3108,6.3108,6.3108,6.3108,6.3108,6.3108,6.3108,6.3108,6.3007,6.2759,6.2512,6.238,6.2131,6.1495,6.0867,6.0746,6.011,5.9266,5.9002,5.8862,5.8784,5.8643,5.8627,5.8627,5.7945,5.6688,5.5099,5.5239,5.5149,5.5099,5.5099,5.5099,5.5099,5.5099,5.5099,5.5099,5.5099,5.5099,5.5099,5.5099,5.5099,5.5099,5.5099,5.5099,5.5099,5.5099,5.5099,5.5099,5.5099,5.5099,5.5099,5.5099,5.5099,5.5099,5.5099,5.5099,5.5099,5.5099,5.5099,5.5099,5.5099,5.5099,5.5099,5.5099,5.5099,5.5099,5.5099,5.5099,5.5099,5.5099,5.5099,5.5099,5.5072,5.5099,5.5099,5.5099,5.5099,5.5099,5.5099,5.5099,5.5099,5.5099,5.5099,5.5099,6.6999,6.6999,6.6999,6.6999,6.6999,6.6999,6.64,6.5518,6.5114,6.4441,6.3588,6.3257,6.3108,6.3108,6.3108,6.3108,6.3108,6.3108,6.3108,6.3108,6.3108,6.3108,6.3108,6.3108,6.3108,6.3108,6.3108,6.3108,6.3108,6.3108,6.3108,6.3108,6.3108,6.3108,6.3108,6.3108,6.3108,6.3108,6.3108,6.3108,6.3108,6.3108,6.3108,6.3108,6.2497,6.2233,6.2013,6.1806,6.0927,6.0505,6.0232,5.9791,5.9297,5.9064,5.9064,5.8955,5.8135,5.7108,5.634,5.5604,5.5249,5.5099,5.5099,5.5099,5.5099,5.5099,5.5099,5.5099,5.5099,5.5099,5.5099,5.5099,5.5099,5.5099,5.5099,5.5099,5.5099,5.5099,5.5099,5.5099,5.5099,5.5099,5.5099,5.5099,5.5099,5.5099,5.5099,5.5099,5.5099,5.5099,5.5099,5.5099,5.5099,5.5099,5.5099,5.5099,5.5099,5.5099,5.5099,5.5099,5.5099,5.5099,5.5099,5.5099,5.5099,5.5099,5.5099,5.5099,5.5099,5.5099,5.5099,5.5099,5.5099,5.5099,5.5099,6.6999,6.6999,6.6999,6.6999,6.6969,6.6819,6.6206,6.5293,6.4874,6.4216,6.3482,6.3197,6.3108,6.3108,6.3108,6.3108,6.3108,6.3108,6.3108,6.3108,6.3108,6.3108,6.3108,6.3108,6.3108,6.3108,6.3108,6.3108,6.3108,6.3108,6.3108,6.3108,6.3108,6.3108,6.3108,6.3108,6.3108,6.3108,6.3108,6.3108,6.3108,6.3108,6.3108,6.3108,6.3108,6.3108,6.3108,6.3007,6.2351,6.1865,6.1599,6.1197,6.0566,6.0521,6.049,6.0354,5.9819,5.9124,5.7992,5.6914,5.5703,5.5215,5.5099,5.5099,5.5099,5.5099,5.5099,5.5099,5.5099,5.5099,5.5099,5.5099,5.5099,5.5099,5.5099,5.5099,5.5099,5.5099,5.5099,5.5099,5.5099,5.5099,5.5099,5.5099,5.5099,5.5099,5.5099,5.5099,5.5099,5.5099,5.5099,5.5099,5.5099,5.5099,5.5099,5.5099,5.5099,5.5099,5.5099,5.5099,5.5099,5.5099,5.5099,5.5099,5.5099,5.5099,5.5099,5.5099,5.5099,5.5099,5.5099,5.5099,5.5099,5.5099,5.5099,6.6999,6.6999,6.6999,6.6999,6.6954,6.6311,6.5996,6.5637,6.456,6.4051,6.3722,6.3377,6.3108,6.3108,6.3108,6.3108,6.3108,6.3108,6.3108,6.3108,6.3108,6.3108,6.3108,6.3108,6.3108,6.3108,6.3108,6.3108,6.3108,6.3108,6.3108,6.3108,6.3108,6.3108,6.3108,6.3108,6.3108,6.3108,6.3108,6.3108,6.3108,6.3108,6.3108,6.3108,6.3108,6.3108,6.3108,6.3108,6.3036,6.2701,6.2672,6.2658,6.2175,6.216,6.2131,6.1983,6.1405,6.0746,5.985,5.7961,5.6389,5.5521,5.5099,5.5099,5.5099,5.5099,5.5099,5.5099,5.5099,5.5099,5.5099,5.5099,5.5099,5.5099,5.5099,5.5099,5.5099,5.5099,5.5099,5.5099,5.5099,5.5099,5.5099,5.5099,5.5099,5.5099,5.5099,5.5099,5.5099,5.5099,5.5099,5.5099,5.5099,5.5099,5.5099,5.5099,5.5099,5.5099,5.5099,5.5099,5.5099,5.5099,5.5099,5.5099,5.5099,5.5099,5.5099,5.5099,5.5099,5.5099,5.5099,5.5099,5.5099,5.5099,5.5099,6.6999,6.6999,6.6999,6.6999,6.6954,6.6281,6.5757,6.5263,6.4425,6.3782,6.3452,6.3213,6.3108,6.3108,6.3108,6.3108,6.3108,6.3108,6.3108,6.3108,6.3108,6.3108,6.3108,6.3108,6.3108,6.3108,6.3108,6.3108,6.3108,6.3108,6.3108,6.3108,6.3108,6.3108,6.3108,6.3108,6.3108,6.3108,6.3108,6.3108,6.3108,6.3108,6.3108,6.3108,6.3108,6.3108,6.3108,6.3108,6.3108,6.3108,6.3108,6.3108,6.3108,6.3108,6.3108,6.3108,6.2453,6.1954,6.0837,5.8749,5.6585,5.5455,5.5099,5.5189,5.5389,5.5199,5.5115,5.5099,5.5199,5.5272,5.5132,5.5115,5.5099,5.5099,5.5099,5.5099,5.5099,5.5099,5.5099,5.5099,5.5099,5.5099,5.5099,5.5099,5.5099,5.5099,5.5099,5.5099,5.5099,5.5099,5.5099,5.5099,5.5099,5.5099,5.5099,5.5099,5.5099,5.5099,5.5099,5.5099,5.5099,5.5099,5.5099,5.5099,5.5099,5.5099,5.5099,5.5099,5.5099,5.5099,5.5099,5.5099,5.5099,5.5099,5.5099,6.6715,6.667,6.649,6.664,6.6849,6.6071,6.5458,6.4904,6.4096,6.3512,6.3108,6.3108,6.3108,6.3108,6.3108,6.3108,6.3108,6.3108,6.3108,6.3108,6.3108,6.3108,6.3108,6.3108,6.3108,6.3108,6.3108,6.3108,6.3108,6.3108,6.3108,6.3108,6.3108,6.3108,6.3108,6.3108,6.3108,6.3108,6.3108,6.3108,6.3108,6.3108,6.3108,6.3108,6.3108,6.3108,6.3108,6.3108,6.3108,6.3108,6.3108,6.3108,6.3108,6.3108,6.3108,6.3108,6.3007,6.2599,6.1346,5.931,5.737,5.6769,5.6568,5.6503,5.6258,5.6285,5.6671,5.6476,5.6144,5.5687,5.5621,5.5472,5.5165,5.5099,5.5099,5.5099,5.5099,5.5099,5.5099,5.5099,5.5099,5.5099,5.5099,5.5099,5.5099,5.5099,5.5099,5.5099,5.5099,5.5099,5.5099,5.5099,5.5099,5.5099,5.5099,5.5099,5.5099,5.5099,5.5099,5.5099,5.5099,5.5099,5.5099,5.5099,5.5099,5.5099,5.5099,5.5099,5.5099,5.5099,5.5099,5.5099,5.5099,5.5099,5.5099,6.6056,6.5951,6.5383,6.5832,6.6685,6.5562,6.4964,6.4725,6.3722,6.3168,6.3108,6.3108,6.3108,6.3108,6.3108,6.3108,6.3108,6.3108,6.3108,6.3108,6.3108,6.3108,6.3108,6.3108,6.3108,6.3108,6.3108,6.3108,6.3108,6.3108,6.3108,6.3108,6.3108,6.3108,6.3108,6.3108,6.3108,6.3108,6.3108,6.3108,6.3108,6.3108,6.3108,6.3108,6.3108,6.3108,6.3108,6.3108,6.3108,6.3108,6.3108,6.3108,6.3108,6.3108,6.3108,6.3108,6.3108,6.305,6.2818,6.0458,5.9276,5.8545,5.8103,5.8293,5.8674,5.8768,5.8498,5.7977,5.7434,5.7028,5.6574,5.5924,5.5389,5.5322,5.5372,5.5099,5.5099,5.5099,5.5099,5.5099,5.5099,5.5099,5.5099,5.5099,5.5099,5.5099,5.5099,5.5099,5.5099,5.5099,5.5099,5.5099,5.5099,5.5099,5.5099,5.5099,5.5099,5.5099,5.5099,5.5099,5.5099,5.5099,5.5099,5.5099,5.5099,5.5099,5.5099,5.5099,5.5099,5.5099,5.5099,5.5099,5.5099,5.5099,5.5099,6.5695,6.5323,6.5322,6.5472,6.5533,6.4755,6.4351,6.4216,6.3512,6.3108,6.3108,6.3108,6.3108,6.3108,6.3108,6.3108,6.3108,6.3108,6.3108,6.3108,6.3108,6.3108,6.3108,6.3108,6.3108,6.3108,6.3108,6.3108,6.3108,6.3108,6.3108,6.3108,6.3108,6.3108,6.3108,6.3108,6.3108,6.3108,6.3108,6.3108,6.3108,6.3108,6.3108,6.3108,6.3108,6.3108,6.3108,6.3108,6.3108,6.3108,6.3108,6.3108,6.3108,6.3108,6.3108,6.3108,6.3138,6.3303,6.3484,6.2483,6.1229,6.0172,5.9472,5.9547,5.9186,5.9111,5.9096,5.8971,5.8246,5.7913,5.7961,5.6193,5.5554,5.6078,5.6013,5.5322,5.5099,5.5099,5.5099,5.5099,5.5099,5.5206,5.5256,5.5858,5.5973,5.5776,5.5825,5.5306,5.5165,5.5132,5.5132,5.5099,5.5099,5.5099,5.5099,5.5099,5.5099,5.5099,5.5099,5.5099,5.5099,5.5099,5.5099,5.5099,5.5099,5.5099,5.5099,5.5099,5.5099,5.5099,5.5099,5.5099,5.5099,5.5099,5.5099,6.534,6.4974,6.4953,6.4984,6.4855,6.4274,6.3887,6.3647,6.3287,6.3108,6.3108,6.3108,6.3108,6.3108,6.3108,6.3108,6.3108,6.3108,6.3108,6.3108,6.3108,6.3108,6.3108,6.3108,6.3108,6.3108,6.3108,6.3108,6.3108,6.3108,6.3108,6.3108,6.3108,6.3108,6.3108,6.3108,6.3108,6.3108,6.3108,6.3108,6.3108,6.3108,6.3108,6.3108,6.3108,6.3108,6.3108,6.3108,6.3108,6.3108,6.3108,6.3108,6.3108,6.3108,6.3108,6.3108,6.3363,6.3602,6.3798,6.4232,6.2983,6.1814,6.1198,6.1023,6.0864,6.1153,6.0906,6.0409,5.9164,5.9167,5.9258,5.7275,5.6855,5.7425,5.7189,5.6503,5.6422,5.652,5.6177,5.6062,5.5809,5.5792,5.5891,5.6503,5.706,5.6817,5.659,5.6023,5.5521,5.567,5.567,5.5554,5.5578,5.571,5.5505,5.5099,5.5099,5.5099,5.5182,5.5272,5.5099,5.5099,5.5099,5.5099,5.5099,5.5099,5.5099,5.5099,5.5239,5.5206,5.5099,5.5099,5.5099,5.5099,5.5099,6.4904,6.4798,6.425,6.4388,6.4714,6.4223,6.369,6.3166,6.3151,6.3165,6.3137,6.318,6.3252,6.3194,6.3165,6.3151,6.3137,6.3137,6.3108,6.3108,6.3108,6.3108,6.3108,6.3108,6.3108,6.3108,6.3108,6.3108,6.3108,6.3108,6.3108,6.3108,6.3108,6.3108,6.3108,6.3108,6.3108,6.3108,6.3108,6.3108,6.3108,6.3108,6.3108,6.3108,6.3108,6.3108,6.3108,6.3108,6.3108,6.3108,6.3108,6.3108,6.3108,6.3108,6.3108,6.3317,6.3722,6.3917,6.4366,6.4859,6.5054,6.4305,6.4605,6.4532,6.3847,6.3194,6.2824,6.2306,6.1409,6.1263,6.0963,5.9882,5.8873,5.8958,5.8887,5.8671,5.8655,5.8423,5.7965,5.7658,5.7274,5.7205,5.7306,5.777,5.8183,5.8024,5.7754,5.729,5.6931,5.7011,5.6882,5.6356,5.6422,5.6536,5.6258,5.6127,5.5792,5.6023,5.567,5.5637,5.5372,5.5149,5.5099,5.5099,5.5099,5.5189,5.5594,5.5644,5.5545,5.5545,5.6127,5.5405,5.5505,5.5165,5.5099,6.4648,6.4278,6.4293,6.4265,6.4222,6.4081,6.3761,6.3438,6.3624,6.3638,6.341,6.3652,6.3681,6.3708,6.348,6.341,6.3324,6.3223,6.3137,6.3122,6.318,6.3137,6.3108,6.3108,6.3108,6.3108,6.3108,6.3108,6.3108,6.3108,6.3108,6.3108,6.3108,6.3108,6.3108,6.3108,6.3108,6.3108,6.3108,6.3108,6.3108,6.3108,6.3108,6.3108,6.3108,6.3108,6.3108,6.3108,6.3108,6.3108,6.3108,6.3108,6.3108,6.3138,6.3183,6.3722,6.4021,6.4336,6.5218,6.5607,6.5847,6.6191,6.6311,6.5697,6.5009,6.4411,6.4201,6.3535,6.2839,6.2379,6.2199,6.1462,6.0784,6.061,6.0343,5.988,5.9837,5.9714,5.9282,5.8877,5.8545,5.8561,5.8674,5.8987,5.9341,5.9189,5.9002,5.869,5.8392,5.8486,5.8012,5.7499,5.7738,5.7977,5.8088,5.8008,5.7382,5.6898,5.665,5.6252,5.5825,5.5588,5.5239,5.5372,5.5842,5.6193,5.6536,5.6552,5.6623,5.7562,5.8056,5.6817,5.5842,5.5644,5.5239,6.468,6.4415,6.4554,6.4482,6.4373,6.4359,6.419,6.3906,6.3948,6.3849,6.3738,6.3908,6.4007,6.3951,6.3795,6.3709,6.3681,6.3595,6.3524,6.3495,6.3324,6.3295,6.3252,6.3165,6.3108,6.3122,6.3122,6.3108,6.3122,6.3122,6.3108,6.3108,6.3108,6.3108,6.3108,6.3108,6.3108,6.3108,6.3108,6.3108,6.3108,6.3108,6.3108,6.3108,6.3108,6.3108,6.3108,6.3108,6.3108,6.3108,6.3108,6.3108,6.3108,6.3138,6.3168,6.3662,6.4246,6.4695,6.5368,6.6101,6.652,6.6849,6.6969,6.658,6.5817,6.5129,6.468,6.4129,6.3491,6.2985,6.297,6.2835,6.2585,6.2305,6.1564,6.0837,6.0777,6.0777,6.0445,6.0034,5.9896,5.9896,6.0064,6.0354,6.0717,6.1032,6.1167,6.1047,6.0536,6.0171,5.9406,5.8564,5.9124,5.9634,5.965,5.9436,5.8749,5.8167,5.8008,5.7499,5.6704,5.6688,5.6995,5.6979,5.6931,5.735,5.7786,5.7881,5.8092,5.9002,5.9406,5.836,5.7301,5.665,5.6105,6.4888,6.4874,6.4901,6.486,6.4888,6.486,6.4694,6.444,6.4233,6.4064,6.4049,6.4078,6.4148,6.419,6.4078,6.4035,6.3993,6.3922,6.3837,6.3979,6.3681,6.3567,6.3495,6.3324,6.3367,6.3252,6.3209,6.3324,6.318,6.318,6.3194,6.3122,6.3108,6.3108,6.3108,6.3108,6.3108,6.3108,6.3108,6.3108,6.3108,6.3108,6.3108,6.3108,6.3108,6.3108,6.3108,6.3108,6.3108,6.3108,6.3108,6.3108,6.3108,6.3108,6.3138,6.3482,6.4216,6.4829,6.5428,6.6161,6.6685,6.6894,6.6954,6.6715,6.6071,6.5368,6.4829,6.468,6.41,6.3773,6.3654,6.3521,6.3298,6.3046,6.2514,6.2087,6.1998,6.1954,6.1762,6.1391,6.1242,6.1257,6.1331,6.1628,6.1791,6.2526,6.2672,6.2599,6.2307,6.1673,6.0957,5.9913,6.0505,6.1002,6.067,6.0384,5.9865,5.9421,5.9297,5.8799,5.8056,5.8388,5.8971,5.8514,5.7977,5.8643,5.9111,5.9204,5.9436,6.0064,6.0217,5.9652,5.8877,5.8119,5.706,6.4901,6.4901,6.4901,6.4901,6.4901,6.4901,6.4846,6.4777,6.4721,6.451,6.4384,6.4568,6.4652,6.4596,6.4384,6.4314,6.4286,6.4204,6.4035,6.4035,6.3892,6.3849,6.3849,6.3752,6.3738,6.3795,6.3766,6.361,6.3467,6.3395,6.3295,6.3137,6.3108,6.3108,6.3108,6.3108,6.3108,6.3108,6.3108,6.3108,6.3108,6.3108,6.3108,6.3108,6.3108,6.3108,6.3108,6.3108,6.3108,6.3108,6.3108,6.3108,6.3108,6.3108,6.3333,6.3737,6.4052,6.468,6.5338,6.5906,6.6311,6.658,6.655,6.634,6.5951,6.5368,6.4994,6.4949,6.4784,6.4485,6.4216,6.4051,6.3901,6.3632,6.3363,6.3227,6.3108,6.3021,6.289,6.2745,6.257,6.2556,6.2599,6.273,6.3007,6.3079,6.3036,6.2992,6.2949,6.2556,6.2453,6.1777,6.2086,6.2321,6.1865,6.1524,6.1077,6.0791,6.0655,6.0064,5.9449,5.9698,6.0034,5.9344,5.9018,5.9837,6.0445,6.0595,6.0882,6.1287,6.1436,6.1092,6.0657,5.9972,5.8608,6.4901,6.4901,6.4901,6.4901,6.4901,6.4901,6.4901,6.4901,6.4901,6.4805,6.4649,6.4818,6.4901,6.4901,6.4707,6.4607,6.4579,6.4468,6.4471,6.4415,6.4216,6.4174,6.4146,6.4106,6.3979,6.4007,6.3993,6.3866,6.3738,6.3508,6.3365,6.3252,6.3209,6.3108,6.3108,6.3108,6.3108,6.3108,6.3108,6.3108,6.3108,6.3108,6.3108,6.3108,6.3108,6.3108,6.3108,6.3108,6.3108,6.3108,6.3108,6.3108,6.3108,6.3108,6.3257,6.3542,6.3887,6.435,6.4994,6.5428,6.5727,6.5906,6.5877,6.5547,6.5428,6.4889,6.45,6.4425,6.4395,6.4126,6.3901,6.3692,6.3632,6.3422,6.3273,6.3168,6.3108,6.3079,6.3021,6.2978,6.2861,6.2861,6.2905,6.292,6.3108,6.3108,6.3108,6.3108,6.3108,6.3108,6.3108,6.3108,6.3108,6.3108,6.2687,6.2497,6.2424,6.2189,6.185,6.1673,6.1257,6.1107,6.0928,6.0672,6.0732,6.1302,6.1777,6.1776,6.2013,6.2351,6.2585,6.2658,6.216,6.1524,6.0308,6.4901,6.4901,6.4901,6.4901,6.4901,6.4901,6.4901,6.4901,6.4901,6.4901,6.4874,6.4888,6.4901,6.4901,6.4901,6.4901,6.486,6.4763,6.4818,6.4763,6.4566,6.451,6.4398,6.4272,6.4275,6.4233,6.4218,6.4162,6.4033,6.3779,6.3565,6.3451,6.3295,6.3108,6.3108,6.3108,6.3108,6.3108,6.3108,6.3108,6.3108,6.3108,6.3108,6.3108,6.3108,6.3108,6.3108,6.3108,6.3108,6.3108,6.3108,6.3108,6.3108,6.3108,6.3108,6.3317,6.3542,6.3871,6.4246,6.465,6.4889,6.5039,6.4949,6.4829,6.474,6.4455,6.4066,6.3917,6.3887,6.3797,6.3542,6.3422,6.3363,6.3303,6.3197,6.3108,6.3108,6.3108,6.3108,6.3108,6.3108,6.3108,6.3108,6.3108,6.3108,6.3108,6.3108,6.3108,6.3108,6.3108,6.3108,6.3108,6.3108,6.3108,6.3108,6.3064,6.2992,6.2875,6.2556,6.2905,6.2978,6.2365,6.2204,6.2541,6.273,6.2555,6.2658,6.2658,6.2992,6.3093,6.3064,6.3007,6.2788,6.2204,6.1747,6.4901,6.4901,6.4901,6.4901,6.4901,6.4901,6.4901,6.4901,6.4901,6.4901,6.4901,6.4901,6.4901,6.4901,6.4901,6.4901,6.4901,6.4901,6.4901,6.4846,6.4791,6.4791,6.4749,6.4624,6.4694,6.4666,6.4596,6.4524,6.4328,6.4033,6.378,6.3567,6.328,6.3151,6.3137,6.3137,6.3151,6.3151,6.3122,6.3108,6.3108,6.3108,6.3108,6.3108,6.3108,6.3108,6.3108,6.3108,6.3108,6.3108,6.3108,6.3108,6.3108,6.3108,6.3108,6.3108,6.3347,6.3542,6.3857,6.4066,6.4306,6.465,6.45,6.4216,6.4006,6.3752,6.3482,6.3407,6.3363,6.3377,6.3227,6.3227,6.3197,6.3197,6.3108,6.3108,6.3108,6.3108,6.3108,6.3108,6.3108,6.3108,6.3108,6.3108,6.3108,6.3108,6.3108,6.3108,6.3108,6.3108,6.3108,6.3108,6.3108,6.3108,6.3108,6.3108,6.3064,6.3108,6.3108,6.3108,6.3108,6.3108,6.3108,6.3108,6.3108,6.2933,6.3093,6.3108,6.3108,6.3108,6.3108,6.3064,6.3007,6.2846,6.238]}]]